<?xml version="1.0" encoding="UTF-8" standalone="no" ?>
<gpx xmlns="http://www.topografix.com/GPX/1/1" xmlns:xsi="http://www.w3.org/2001/XMLSchema-instance" xsi:schemaLocation="http://www.topografix.com/GPX/1/1 http://www.topografix.com/GPX/1/1/gpx.xsd" version="1.1" creator="VisuGPX - https://www.visugpx.com">
  <metadata>
    <name>9344449-rivieres  70kms</name>
  </metadata>
  <trk>
    <name><![CDATA[9344449-rivieres  70kms]]></name>
    <trkseg>
      <trkpt lat="44.18836" lon="3.13184">
        <ele>381</ele>
        <time>2019-05-22T20:14:50Z</time>
      </trkpt>
      <trkpt lat="44.19035" lon="3.14018">
        <ele>378</ele>
        <time>2019-05-22T20:16:42Z</time>
      </trkpt>
      <trkpt lat="44.19057" lon="3.14122">
        <ele>380</ele>
        <time>2019-05-22T20:16:56Z</time>
      </trkpt>
      <trkpt lat="44.19061" lon="3.14163">
        <ele>381</ele>
        <time>2019-05-22T20:17:01Z</time>
      </trkpt>
      <trkpt lat="44.19064" lon="3.14259">
        <ele>383</ele>
        <time>2019-05-22T20:17:14Z</time>
      </trkpt>
      <trkpt lat="44.19076" lon="3.14332">
        <ele>384</ele>
        <time>2019-05-22T20:17:23Z</time>
      </trkpt>
      <trkpt lat="44.19128" lon="3.14623">
        <ele>388</ele>
        <time>2019-05-22T20:18:01Z</time>
      </trkpt>
      <trkpt lat="44.19132" lon="3.1466">
        <ele>387</ele>
        <time>2019-05-22T20:18:06Z</time>
      </trkpt>
      <trkpt lat="44.19132" lon="3.14729">
        <ele>389</ele>
        <time>2019-05-22T20:18:15Z</time>
      </trkpt>
      <trkpt lat="44.19129" lon="3.14763">
        <ele>389</ele>
        <time>2019-05-22T20:18:19Z</time>
      </trkpt>
      <trkpt lat="44.19114" lon="3.14825">
        <ele>388</ele>
        <time>2019-05-22T20:18:28Z</time>
      </trkpt>
      <trkpt lat="44.19058" lon="3.15028">
        <ele>389</ele>
        <time>2019-05-22T20:18:55Z</time>
      </trkpt>
      <trkpt lat="44.1904" lon="3.15087">
        <ele>390</ele>
        <time>2019-05-22T20:19:04Z</time>
      </trkpt>
      <trkpt lat="44.18993" lon="3.1521">
        <ele>391</ele>
        <time>2019-05-22T20:19:21Z</time>
      </trkpt>
      <trkpt lat="44.18968" lon="3.15296">
        <ele>394</ele>
        <time>2019-05-22T20:19:33Z</time>
      </trkpt>
      <trkpt lat="44.18947" lon="3.15379">
        <ele>393</ele>
        <time>2019-05-22T20:19:44Z</time>
      </trkpt>
      <trkpt lat="44.1894" lon="3.15423">
        <ele>392</ele>
        <time>2019-05-22T20:19:50Z</time>
      </trkpt>
      <trkpt lat="44.1894" lon="3.15449">
        <ele>392</ele>
        <time>2019-05-22T20:19:53Z</time>
      </trkpt>
      <trkpt lat="44.18944" lon="3.15485">
        <ele>392</ele>
        <time>2019-05-22T20:19:58Z</time>
      </trkpt>
      <trkpt lat="44.18958" lon="3.15534">
        <ele>393</ele>
        <time>2019-05-22T20:20:05Z</time>
      </trkpt>
      <trkpt lat="44.18971" lon="3.1556">
        <ele>393</ele>
        <time>2019-05-22T20:20:09Z</time>
      </trkpt>
      <trkpt lat="44.1899" lon="3.15588">
        <ele>394</ele>
        <time>2019-05-22T20:20:14Z</time>
      </trkpt>
      <trkpt lat="44.19008" lon="3.15604">
        <ele>395</ele>
        <time>2019-05-22T20:20:18Z</time>
      </trkpt>
      <trkpt lat="44.19057" lon="3.15639">
        <ele>397</ele>
        <time>2019-05-22T20:20:27Z</time>
      </trkpt>
      <trkpt lat="44.1908" lon="3.15648">
        <ele>397</ele>
        <time>2019-05-22T20:20:32Z</time>
      </trkpt>
      <trkpt lat="44.19108" lon="3.15652">
        <ele>397</ele>
        <time>2019-05-22T20:20:37Z</time>
      </trkpt>
      <trkpt lat="44.19148" lon="3.15648">
        <ele>400</ele>
        <time>2019-05-22T20:20:44Z</time>
      </trkpt>
      <trkpt lat="44.19203" lon="3.15638">
        <ele>404</ele>
        <time>2019-05-22T20:20:54Z</time>
      </trkpt>
      <trkpt lat="44.19239" lon="3.15628">
        <ele>406</ele>
        <time>2019-05-22T20:21:00Z</time>
      </trkpt>
      <trkpt lat="44.19289" lon="3.15607">
        <ele>405</ele>
        <time>2019-05-22T20:21:09Z</time>
      </trkpt>
      <trkpt lat="44.19314" lon="3.15598">
        <ele>403</ele>
        <time>2019-05-22T20:21:14Z</time>
      </trkpt>
      <trkpt lat="44.19326" lon="3.15588">
        <ele>403</ele>
        <time>2019-05-22T20:21:17Z</time>
      </trkpt>
      <trkpt lat="44.19467" lon="3.15431">
        <ele>409</ele>
        <time>2019-05-22T20:21:49Z</time>
      </trkpt>
      <trkpt lat="44.19484" lon="3.15416">
        <ele>407</ele>
        <time>2019-05-22T20:21:52Z</time>
      </trkpt>
      <trkpt lat="44.19507" lon="3.15401">
        <ele>405</ele>
        <time>2019-05-22T20:21:57Z</time>
      </trkpt>
      <trkpt lat="44.19528" lon="3.1539">
        <ele>405</ele>
        <time>2019-05-22T20:22:01Z</time>
      </trkpt>
      <trkpt lat="44.19588" lon="3.15371">
        <ele>400</ele>
        <time>2019-05-22T20:22:12Z</time>
      </trkpt>
      <trkpt lat="44.19627" lon="3.15366">
        <ele>401</ele>
        <time>2019-05-22T20:22:19Z</time>
      </trkpt>
      <trkpt lat="44.19722" lon="3.15379">
        <ele>397</ele>
        <time>2019-05-22T20:22:36Z</time>
      </trkpt>
      <trkpt lat="44.19771" lon="3.15378">
        <ele>395</ele>
        <time>2019-05-22T20:22:44Z</time>
      </trkpt>
      <trkpt lat="44.19847" lon="3.15367">
        <ele>393</ele>
        <time>2019-05-22T20:22:58Z</time>
      </trkpt>
      <trkpt lat="44.19877" lon="3.15364">
        <ele>395</ele>
        <time>2019-05-22T20:23:03Z</time>
      </trkpt>
      <trkpt lat="44.19903" lon="3.15366">
        <ele>395</ele>
        <time>2019-05-22T20:23:08Z</time>
      </trkpt>
      <trkpt lat="44.19933" lon="3.15372">
        <ele>397</ele>
        <time>2019-05-22T20:23:13Z</time>
      </trkpt>
      <trkpt lat="44.19965" lon="3.15385">
        <ele>399</ele>
        <time>2019-05-22T20:23:19Z</time>
      </trkpt>
      <trkpt lat="44.20003" lon="3.15415">
        <ele>400</ele>
        <time>2019-05-22T20:23:27Z</time>
      </trkpt>
      <trkpt lat="44.20029" lon="3.15448">
        <ele>400</ele>
        <time>2019-05-22T20:23:33Z</time>
      </trkpt>
      <trkpt lat="44.20052" lon="3.15486">
        <ele>400</ele>
        <time>2019-05-22T20:23:40Z</time>
      </trkpt>
      <trkpt lat="44.20066" lon="3.15516">
        <ele>399</ele>
        <time>2019-05-22T20:23:44Z</time>
      </trkpt>
      <trkpt lat="44.20075" lon="3.15542">
        <ele>398</ele>
        <time>2019-05-22T20:23:48Z</time>
      </trkpt>
      <trkpt lat="44.20098" lon="3.15619">
        <ele>394</ele>
        <time>2019-05-22T20:23:59Z</time>
      </trkpt>
      <trkpt lat="44.20109" lon="3.15648">
        <ele>393</ele>
        <time>2019-05-22T20:24:03Z</time>
      </trkpt>
      <trkpt lat="44.20119" lon="3.15667">
        <ele>392</ele>
        <time>2019-05-22T20:24:06Z</time>
      </trkpt>
      <trkpt lat="44.2013" lon="3.15681">
        <ele>392</ele>
        <time>2019-05-22T20:24:08Z</time>
      </trkpt>
      <trkpt lat="44.2014" lon="3.15689">
        <ele>392</ele>
        <time>2019-05-22T20:24:10Z</time>
      </trkpt>
      <trkpt lat="44.20154" lon="3.15698">
        <ele>392</ele>
        <time>2019-05-22T20:24:13Z</time>
      </trkpt>
      <trkpt lat="44.20173" lon="3.15703">
        <ele>393</ele>
        <time>2019-05-22T20:24:17Z</time>
      </trkpt>
      <trkpt lat="44.20271" lon="3.15705">
        <ele>392</ele>
        <time>2019-05-22T20:24:34Z</time>
      </trkpt>
      <trkpt lat="44.2029" lon="3.15707">
        <ele>392</ele>
        <time>2019-05-22T20:24:37Z</time>
      </trkpt>
      <trkpt lat="44.20302" lon="3.15711">
        <ele>391</ele>
        <time>2019-05-22T20:24:40Z</time>
      </trkpt>
      <trkpt lat="44.20316" lon="3.1572">
        <ele>391</ele>
        <time>2019-05-22T20:24:42Z</time>
      </trkpt>
      <trkpt lat="44.20328" lon="3.15732">
        <ele>390</ele>
        <time>2019-05-22T20:24:45Z</time>
      </trkpt>
      <trkpt lat="44.20336" lon="3.15744">
        <ele>389</ele>
        <time>2019-05-22T20:24:47Z</time>
      </trkpt>
      <trkpt lat="44.20344" lon="3.15769">
        <ele>388</ele>
        <time>2019-05-22T20:24:51Z</time>
      </trkpt>
      <trkpt lat="44.20363" lon="3.15874">
        <ele>389</ele>
        <time>2019-05-22T20:25:04Z</time>
      </trkpt>
      <trkpt lat="44.20363" lon="3.15885">
        <ele>390</ele>
        <time>2019-05-22T20:25:06Z</time>
      </trkpt>
      <trkpt lat="44.20361" lon="3.15894">
        <ele>390</ele>
        <time>2019-05-22T20:25:07Z</time>
      </trkpt>
      <trkpt lat="44.20355" lon="3.15904">
        <ele>390</ele>
        <time>2019-05-22T20:25:09Z</time>
      </trkpt>
      <trkpt lat="44.20349" lon="3.15912">
        <ele>390</ele>
        <time>2019-05-22T20:25:10Z</time>
      </trkpt>
      <trkpt lat="44.20145" lon="3.16001">
        <ele>389</ele>
        <time>2019-05-22T20:25:48Z</time>
      </trkpt>
      <trkpt lat="44.20127" lon="3.16014">
        <ele>389</ele>
        <time>2019-05-22T20:25:52Z</time>
      </trkpt>
      <trkpt lat="44.20111" lon="3.16042">
        <ele>391</ele>
        <time>2019-05-22T20:25:56Z</time>
      </trkpt>
      <trkpt lat="44.201" lon="3.16086">
        <ele>393</ele>
        <time>2019-05-22T20:26:02Z</time>
      </trkpt>
      <trkpt lat="44.20096" lon="3.16117">
        <ele>396</ele>
        <time>2019-05-22T20:26:06Z</time>
      </trkpt>
      <trkpt lat="44.20096" lon="3.16144">
        <ele>399</ele>
        <time>2019-05-22T20:26:10Z</time>
      </trkpt>
      <trkpt lat="44.20102" lon="3.16228">
        <ele>404</ele>
        <time>2019-05-22T20:26:21Z</time>
      </trkpt>
      <trkpt lat="44.20105" lon="3.16359">
        <ele>397</ele>
        <time>2019-05-22T20:26:37Z</time>
      </trkpt>
      <trkpt lat="44.20109" lon="3.1645">
        <ele>397</ele>
        <time>2019-05-22T20:26:49Z</time>
      </trkpt>
      <trkpt lat="44.20124" lon="3.16576">
        <ele>401</ele>
        <time>2019-05-22T20:27:05Z</time>
      </trkpt>
      <trkpt lat="44.20124" lon="3.16627">
        <ele>400</ele>
        <time>2019-05-22T20:27:12Z</time>
      </trkpt>
      <trkpt lat="44.20121" lon="3.16727">
        <ele>396</ele>
        <time>2019-05-22T20:27:24Z</time>
      </trkpt>
      <trkpt lat="44.20124" lon="3.16791">
        <ele>395</ele>
        <time>2019-05-22T20:27:33Z</time>
      </trkpt>
      <trkpt lat="44.2014" lon="3.16934">
        <ele>398</ele>
        <time>2019-05-22T20:27:51Z</time>
      </trkpt>
      <trkpt lat="44.20156" lon="3.17032">
        <ele>395</ele>
        <time>2019-05-22T20:28:04Z</time>
      </trkpt>
      <trkpt lat="44.20161" lon="3.17098">
        <ele>392</ele>
        <time>2019-05-22T20:28:12Z</time>
      </trkpt>
      <trkpt lat="44.20179" lon="3.17203">
        <ele>392</ele>
        <time>2019-05-22T20:28:26Z</time>
      </trkpt>
      <trkpt lat="44.20181" lon="3.17246">
        <ele>389</ele>
        <time>2019-05-22T20:28:32Z</time>
      </trkpt>
      <trkpt lat="44.2018" lon="3.17308">
        <ele>388</ele>
        <time>2019-05-22T20:28:40Z</time>
      </trkpt>
      <trkpt lat="44.20178" lon="3.17327">
        <ele>388</ele>
        <time>2019-05-22T20:28:42Z</time>
      </trkpt>
      <trkpt lat="44.20173" lon="3.1735">
        <ele>390</ele>
        <time>2019-05-22T20:28:45Z</time>
      </trkpt>
      <trkpt lat="44.20167" lon="3.17365">
        <ele>390</ele>
        <time>2019-05-22T20:28:47Z</time>
      </trkpt>
      <trkpt lat="44.2015" lon="3.17392">
        <ele>391</ele>
        <time>2019-05-22T20:28:52Z</time>
      </trkpt>
      <trkpt lat="44.20135" lon="3.17426">
        <ele>392</ele>
        <time>2019-05-22T20:28:57Z</time>
      </trkpt>
      <trkpt lat="44.20123" lon="3.17462">
        <ele>392</ele>
        <time>2019-05-22T20:29:02Z</time>
      </trkpt>
      <trkpt lat="44.20108" lon="3.17527">
        <ele>392</ele>
        <time>2019-05-22T20:29:11Z</time>
      </trkpt>
      <trkpt lat="44.20105" lon="3.17559">
        <ele>393</ele>
        <time>2019-05-22T20:29:15Z</time>
      </trkpt>
      <trkpt lat="44.20104" lon="3.17611">
        <ele>395</ele>
        <time>2019-05-22T20:29:21Z</time>
      </trkpt>
      <trkpt lat="44.20098" lon="3.1766">
        <ele>395</ele>
        <time>2019-05-22T20:29:28Z</time>
      </trkpt>
      <trkpt lat="44.20081" lon="3.17766">
        <ele>395</ele>
        <time>2019-05-22T20:29:42Z</time>
      </trkpt>
      <trkpt lat="44.20068" lon="3.17807">
        <ele>397</ele>
        <time>2019-05-22T20:29:47Z</time>
      </trkpt>
      <trkpt lat="44.20029" lon="3.17897">
        <ele>397</ele>
        <time>2019-05-22T20:30:01Z</time>
      </trkpt>
      <trkpt lat="44.19995" lon="3.17993">
        <ele>397</ele>
        <time>2019-05-22T20:30:14Z</time>
      </trkpt>
      <trkpt lat="44.19982" lon="3.18037">
        <ele>397</ele>
        <time>2019-05-22T20:30:21Z</time>
      </trkpt>
      <trkpt lat="44.19975" lon="3.18077">
        <ele>398</ele>
        <time>2019-05-22T20:30:26Z</time>
      </trkpt>
      <trkpt lat="44.19973" lon="3.18109">
        <ele>398</ele>
        <time>2019-05-22T20:30:30Z</time>
      </trkpt>
      <trkpt lat="44.19973" lon="3.18146">
        <ele>399</ele>
        <time>2019-05-22T20:30:35Z</time>
      </trkpt>
      <trkpt lat="44.19978" lon="3.1821">
        <ele>402</ele>
        <time>2019-05-22T20:30:43Z</time>
      </trkpt>
      <trkpt lat="44.19977" lon="3.18241">
        <ele>403</ele>
        <time>2019-05-22T20:30:47Z</time>
      </trkpt>
      <trkpt lat="44.19972" lon="3.18274">
        <ele>403</ele>
        <time>2019-05-22T20:30:51Z</time>
      </trkpt>
      <trkpt lat="44.19963" lon="3.18309">
        <ele>403</ele>
        <time>2019-05-22T20:30:56Z</time>
      </trkpt>
      <trkpt lat="44.19947" lon="3.18348">
        <ele>402</ele>
        <time>2019-05-22T20:31:02Z</time>
      </trkpt>
      <trkpt lat="44.1993" lon="3.18387">
        <ele>403</ele>
        <time>2019-05-22T20:31:07Z</time>
      </trkpt>
      <trkpt lat="44.19908" lon="3.18424">
        <ele>403</ele>
        <time>2019-05-22T20:31:13Z</time>
      </trkpt>
      <trkpt lat="44.19873" lon="3.18464">
        <ele>403</ele>
        <time>2019-05-22T20:31:22Z</time>
      </trkpt>
      <trkpt lat="44.19697" lon="3.18584">
        <ele>397</ele>
        <time>2019-05-22T20:31:56Z</time>
      </trkpt>
      <trkpt lat="44.19679" lon="3.18603">
        <ele>397</ele>
        <time>2019-05-22T20:32:00Z</time>
      </trkpt>
      <trkpt lat="44.19669" lon="3.18618">
        <ele>398</ele>
        <time>2019-05-22T20:32:03Z</time>
      </trkpt>
      <trkpt lat="44.1965" lon="3.18657">
        <ele>399</ele>
        <time>2019-05-22T20:32:09Z</time>
      </trkpt>
      <trkpt lat="44.19642" lon="3.18686">
        <ele>399</ele>
        <time>2019-05-22T20:32:13Z</time>
      </trkpt>
      <trkpt lat="44.19638" lon="3.18706">
        <ele>398</ele>
        <time>2019-05-22T20:32:16Z</time>
      </trkpt>
      <trkpt lat="44.19637" lon="3.18735">
        <ele>399</ele>
        <time>2019-05-22T20:32:19Z</time>
      </trkpt>
      <trkpt lat="44.19639" lon="3.18769">
        <ele>398</ele>
        <time>2019-05-22T20:32:24Z</time>
      </trkpt>
      <trkpt lat="44.19644" lon="3.18792">
        <ele>397</ele>
        <time>2019-05-22T20:32:27Z</time>
      </trkpt>
      <trkpt lat="44.19656" lon="3.18822">
        <ele>396</ele>
        <time>2019-05-22T20:32:31Z</time>
      </trkpt>
      <trkpt lat="44.1967" lon="3.18843">
        <ele>395</ele>
        <time>2019-05-22T20:32:35Z</time>
      </trkpt>
      <trkpt lat="44.19686" lon="3.18857">
        <ele>395</ele>
        <time>2019-05-22T20:32:38Z</time>
      </trkpt>
      <trkpt lat="44.1974" lon="3.18882">
        <ele>396</ele>
        <time>2019-05-22T20:32:48Z</time>
      </trkpt>
      <trkpt lat="44.19763" lon="3.18897">
        <ele>395</ele>
        <time>2019-05-22T20:32:53Z</time>
      </trkpt>
      <trkpt lat="44.19774" lon="3.18907">
        <ele>395</ele>
        <time>2019-05-22T20:32:55Z</time>
      </trkpt>
      <trkpt lat="44.19792" lon="3.18933">
        <ele>394</ele>
        <time>2019-05-22T20:33:00Z</time>
      </trkpt>
      <trkpt lat="44.19866" lon="3.19079">
        <ele>397</ele>
        <time>2019-05-22T20:33:23Z</time>
      </trkpt>
      <trkpt lat="44.19877" lon="3.19115">
        <ele>397</ele>
        <time>2019-05-22T20:33:28Z</time>
      </trkpt>
      <trkpt lat="44.19879" lon="3.19155">
        <ele>396</ele>
        <time>2019-05-22T20:33:33Z</time>
      </trkpt>
      <trkpt lat="44.19875" lon="3.19228">
        <ele>397</ele>
        <time>2019-05-22T20:33:42Z</time>
      </trkpt>
      <trkpt lat="44.1987" lon="3.19261">
        <ele>397</ele>
        <time>2019-05-22T20:33:46Z</time>
      </trkpt>
      <trkpt lat="44.19859" lon="3.19315">
        <ele>399</ele>
        <time>2019-05-22T20:33:53Z</time>
      </trkpt>
      <trkpt lat="44.19769" lon="3.19545">
        <ele>400</ele>
        <time>2019-05-22T20:34:27Z</time>
      </trkpt>
      <trkpt lat="44.19759" lon="3.19577">
        <ele>399</ele>
        <time>2019-05-22T20:34:31Z</time>
      </trkpt>
      <trkpt lat="44.1972" lon="3.19732">
        <ele>397</ele>
        <time>2019-05-22T20:34:52Z</time>
      </trkpt>
      <trkpt lat="44.19707" lon="3.19773">
        <ele>398</ele>
        <time>2019-05-22T20:34:58Z</time>
      </trkpt>
      <trkpt lat="44.1969" lon="3.19808">
        <ele>399</ele>
        <time>2019-05-22T20:35:03Z</time>
      </trkpt>
      <trkpt lat="44.19559" lon="3.20029">
        <ele>396</ele>
        <time>2019-05-22T20:35:40Z</time>
      </trkpt>
      <trkpt lat="44.19547" lon="3.20065">
        <ele>398</ele>
        <time>2019-05-22T20:35:45Z</time>
      </trkpt>
      <trkpt lat="44.19531" lon="3.20146">
        <ele>400</ele>
        <time>2019-05-22T20:35:56Z</time>
      </trkpt>
      <trkpt lat="44.19508" lon="3.20229">
        <ele>399</ele>
        <time>2019-05-22T20:36:07Z</time>
      </trkpt>
      <trkpt lat="44.19485" lon="3.20368">
        <ele>399</ele>
        <time>2019-05-22T20:36:25Z</time>
      </trkpt>
      <trkpt lat="44.19469" lon="3.20426">
        <ele>398</ele>
        <time>2019-05-22T20:36:33Z</time>
      </trkpt>
      <trkpt lat="44.19451" lon="3.20468">
        <ele>396</ele>
        <time>2019-05-22T20:36:40Z</time>
      </trkpt>
      <trkpt lat="44.19446" lon="3.2049">
        <ele>395</ele>
        <time>2019-05-22T20:36:42Z</time>
      </trkpt>
      <trkpt lat="44.19457" lon="3.20594">
        <ele>397</ele>
        <time>2019-05-22T20:36:56Z</time>
      </trkpt>
      <trkpt lat="44.19456" lon="3.20636">
        <ele>398</ele>
        <time>2019-05-22T20:37:01Z</time>
      </trkpt>
      <trkpt lat="44.19451" lon="3.20673">
        <ele>398</ele>
        <time>2019-05-22T20:37:06Z</time>
      </trkpt>
      <trkpt lat="44.19449" lon="3.20704">
        <ele>399</ele>
        <time>2019-05-22T20:37:10Z</time>
      </trkpt>
      <trkpt lat="44.19455" lon="3.20754">
        <ele>401</ele>
        <time>2019-05-22T20:37:16Z</time>
      </trkpt>
      <trkpt lat="44.19449" lon="3.20772">
        <ele>400</ele>
        <time>2019-05-22T20:37:19Z</time>
      </trkpt>
      <trkpt lat="44.19438" lon="3.20788">
        <ele>397</ele>
        <time>2019-05-22T20:37:22Z</time>
      </trkpt>
      <trkpt lat="44.19424" lon="3.20801">
        <ele>394</ele>
        <time>2019-05-22T20:37:25Z</time>
      </trkpt>
      <trkpt lat="44.19337" lon="3.20845">
        <ele>407</ele>
        <time>2019-05-22T20:37:41Z</time>
      </trkpt>
      <trkpt lat="44.19327" lon="3.20848">
        <ele>410</ele>
        <time>2019-05-22T20:37:43Z</time>
      </trkpt>
      <trkpt lat="44.1932" lon="3.20843">
        <ele>411</ele>
        <time>2019-05-22T20:37:44Z</time>
      </trkpt>
      <trkpt lat="44.19295" lon="3.20793">
        <ele>409</ele>
        <time>2019-05-22T20:37:52Z</time>
      </trkpt>
      <trkpt lat="44.19282" lon="3.20772">
        <ele>408</ele>
        <time>2019-05-22T20:37:56Z</time>
      </trkpt>
      <trkpt lat="44.19236" lon="3.20721">
        <ele>407</ele>
        <time>2019-05-22T20:38:06Z</time>
      </trkpt>
      <trkpt lat="44.19223" lon="3.20699">
        <ele>405</ele>
        <time>2019-05-22T20:38:10Z</time>
      </trkpt>
      <trkpt lat="44.19185" lon="3.20622">
        <ele>401</ele>
        <time>2019-05-22T20:38:22Z</time>
      </trkpt>
      <trkpt lat="44.19178" lon="3.20612">
        <ele>401</ele>
        <time>2019-05-22T20:38:24Z</time>
      </trkpt>
      <trkpt lat="44.19167" lon="3.20605">
        <ele>401</ele>
        <time>2019-05-22T20:38:26Z</time>
      </trkpt>
      <trkpt lat="44.19109" lon="3.20622">
        <ele>400</ele>
        <time>2019-05-22T20:38:36Z</time>
      </trkpt>
      <trkpt lat="44.19089" lon="3.20632">
        <ele>400</ele>
        <time>2019-05-22T20:38:40Z</time>
      </trkpt>
      <trkpt lat="44.1908" lon="3.20649">
        <ele>400</ele>
        <time>2019-05-22T20:38:43Z</time>
      </trkpt>
      <trkpt lat="44.19075" lon="3.20706">
        <ele>400</ele>
        <time>2019-05-22T20:38:50Z</time>
      </trkpt>
      <trkpt lat="44.19069" lon="3.20722">
        <ele>400</ele>
        <time>2019-05-22T20:38:52Z</time>
      </trkpt>
      <trkpt lat="44.19066" lon="3.20751">
        <ele>399</ele>
        <time>2019-05-22T20:38:56Z</time>
      </trkpt>
      <trkpt lat="44.19068" lon="3.2076">
        <ele>400</ele>
        <time>2019-05-22T20:38:57Z</time>
      </trkpt>
      <trkpt lat="44.19066" lon="3.20764">
        <ele>400</ele>
        <time>2019-05-22T20:38:58Z</time>
      </trkpt>
      <trkpt lat="44.19063" lon="3.20781">
        <ele>401</ele>
        <time>2019-05-22T20:39:00Z</time>
      </trkpt>
      <trkpt lat="44.19061" lon="3.20808">
        <ele>402</ele>
        <time>2019-05-22T20:39:04Z</time>
      </trkpt>
      <trkpt lat="44.19055" lon="3.20858">
        <ele>403</ele>
        <time>2019-05-22T20:39:10Z</time>
      </trkpt>
      <trkpt lat="44.19052" lon="3.20903">
        <ele>404</ele>
        <time>2019-05-22T20:39:16Z</time>
      </trkpt>
      <trkpt lat="44.19022" lon="3.21243">
        <ele>414</ele>
        <time>2019-05-22T20:40:00Z</time>
      </trkpt>
      <trkpt lat="44.19014" lon="3.21318">
        <ele>414</ele>
        <time>2019-05-22T20:40:09Z</time>
      </trkpt>
      <trkpt lat="44.19011" lon="3.21402">
        <ele>414</ele>
        <time>2019-05-22T20:40:20Z</time>
      </trkpt>
      <trkpt lat="44.19019" lon="3.21468">
        <ele>414</ele>
        <time>2019-05-22T20:40:29Z</time>
      </trkpt>
      <trkpt lat="44.19029" lon="3.21506">
        <ele>416</ele>
        <time>2019-05-22T20:40:34Z</time>
      </trkpt>
      <trkpt lat="44.19041" lon="3.21543">
        <ele>419</ele>
        <time>2019-05-22T20:40:39Z</time>
      </trkpt>
      <trkpt lat="44.19061" lon="3.21594">
        <ele>422</ele>
        <time>2019-05-22T20:40:46Z</time>
      </trkpt>
      <trkpt lat="44.19077" lon="3.21629">
        <ele>421</ele>
        <time>2019-05-22T20:40:52Z</time>
      </trkpt>
      <trkpt lat="44.19094" lon="3.21673">
        <ele>420</ele>
        <time>2019-05-22T20:40:58Z</time>
      </trkpt>
      <trkpt lat="44.19151" lon="3.21801">
        <ele>431</ele>
        <time>2019-05-22T20:41:17Z</time>
      </trkpt>
      <trkpt lat="44.19156" lon="3.21836">
        <ele>430</ele>
        <time>2019-05-22T20:41:22Z</time>
      </trkpt>
      <trkpt lat="44.19151" lon="3.21959">
        <ele>431</ele>
        <time>2019-05-22T20:41:37Z</time>
      </trkpt>
      <trkpt lat="44.19152" lon="3.22216">
        <ele>425</ele>
        <time>2019-05-22T20:42:10Z</time>
      </trkpt>
      <trkpt lat="44.19155" lon="3.22235">
        <ele>423</ele>
        <time>2019-05-22T20:42:13Z</time>
      </trkpt>
      <trkpt lat="44.19163" lon="3.22246">
        <ele>423</ele>
        <time>2019-05-22T20:42:15Z</time>
      </trkpt>
      <trkpt lat="44.19198" lon="3.22261">
        <ele>436</ele>
        <time>2019-05-22T20:42:21Z</time>
      </trkpt>
      <trkpt lat="44.19206" lon="3.22268">
        <ele>439</ele>
        <time>2019-05-22T20:42:23Z</time>
      </trkpt>
      <trkpt lat="44.19209" lon="3.22281">
        <ele>441</ele>
        <time>2019-05-22T20:42:25Z</time>
      </trkpt>
      <trkpt lat="44.19209" lon="3.22297">
        <ele>441</ele>
        <time>2019-05-22T20:42:27Z</time>
      </trkpt>
      <trkpt lat="44.19197" lon="3.22334">
        <ele>436</ele>
        <time>2019-05-22T20:42:32Z</time>
      </trkpt>
      <trkpt lat="44.19194" lon="3.22377">
        <ele>438</ele>
        <time>2019-05-22T20:42:37Z</time>
      </trkpt>
      <trkpt lat="44.19194" lon="3.22436">
        <ele>442</ele>
        <time>2019-05-22T20:42:45Z</time>
      </trkpt>
      <trkpt lat="44.19197" lon="3.22474">
        <ele>444</ele>
        <time>2019-05-22T20:42:50Z</time>
      </trkpt>
      <trkpt lat="44.19203" lon="3.225">
        <ele>448</ele>
        <time>2019-05-22T20:42:53Z</time>
      </trkpt>
      <trkpt lat="44.19222" lon="3.22546">
        <ele>457</ele>
        <time>2019-05-22T20:43:00Z</time>
      </trkpt>
      <trkpt lat="44.19224" lon="3.2256">
        <ele>457</ele>
        <time>2019-05-22T20:43:02Z</time>
      </trkpt>
      <trkpt lat="44.19224" lon="3.22571">
        <ele>457</ele>
        <time>2019-05-22T20:43:03Z</time>
      </trkpt>
      <trkpt lat="44.1922" lon="3.22582">
        <ele>455</ele>
        <time>2019-05-22T20:43:05Z</time>
      </trkpt>
      <trkpt lat="44.1919" lon="3.2262">
        <ele>451</ele>
        <time>2019-05-22T20:43:12Z</time>
      </trkpt>
      <trkpt lat="44.19172" lon="3.22646">
        <ele>450</ele>
        <time>2019-05-22T20:43:17Z</time>
      </trkpt>
      <trkpt lat="44.19155" lon="3.22685">
        <ele>452</ele>
        <time>2019-05-22T20:43:23Z</time>
      </trkpt>
      <trkpt lat="44.19126" lon="3.22774">
        <ele>454</ele>
        <time>2019-05-22T20:43:35Z</time>
      </trkpt>
      <trkpt lat="44.19116" lon="3.22822">
        <ele>454</ele>
        <time>2019-05-22T20:43:41Z</time>
      </trkpt>
      <trkpt lat="44.19115" lon="3.22842">
        <ele>455</ele>
        <time>2019-05-22T20:43:44Z</time>
      </trkpt>
      <trkpt lat="44.19122" lon="3.22883">
        <ele>464</ele>
        <time>2019-05-22T20:43:49Z</time>
      </trkpt>
      <trkpt lat="44.19123" lon="3.22901">
        <ele>466</ele>
        <time>2019-05-22T20:43:52Z</time>
      </trkpt>
      <trkpt lat="44.19122" lon="3.22922">
        <ele>467</ele>
        <time>2019-05-22T20:43:54Z</time>
      </trkpt>
      <trkpt lat="44.19111" lon="3.23045">
        <ele>472</ele>
        <time>2019-05-22T20:44:10Z</time>
      </trkpt>
      <trkpt lat="44.19107" lon="3.23139">
        <ele>474</ele>
        <time>2019-05-22T20:44:22Z</time>
      </trkpt>
      <trkpt lat="44.19107" lon="3.23162">
        <ele>475</ele>
        <time>2019-05-22T20:44:25Z</time>
      </trkpt>
      <trkpt lat="44.1912" lon="3.23215">
        <ele>482</ele>
        <time>2019-05-22T20:44:32Z</time>
      </trkpt>
      <trkpt lat="44.19122" lon="3.2324">
        <ele>483</ele>
        <time>2019-05-22T20:44:35Z</time>
      </trkpt>
      <trkpt lat="44.19119" lon="3.23355">
        <ele>485</ele>
        <time>2019-05-22T20:44:50Z</time>
      </trkpt>
      <trkpt lat="44.19122" lon="3.23395">
        <ele>488</ele>
        <time>2019-05-22T20:44:55Z</time>
      </trkpt>
      <trkpt lat="44.1914" lon="3.23551">
        <ele>492</ele>
        <time>2019-05-22T20:45:15Z</time>
      </trkpt>
      <trkpt lat="44.19144" lon="3.23571">
        <ele>493</ele>
        <time>2019-05-22T20:45:18Z</time>
      </trkpt>
      <trkpt lat="44.19152" lon="3.23592">
        <ele>496</ele>
        <time>2019-05-22T20:45:21Z</time>
      </trkpt>
      <trkpt lat="44.19157" lon="3.23614">
        <ele>498</ele>
        <time>2019-05-22T20:45:24Z</time>
      </trkpt>
      <trkpt lat="44.1916" lon="3.23633">
        <ele>498</ele>
        <time>2019-05-22T20:45:26Z</time>
      </trkpt>
      <trkpt lat="44.1916" lon="3.23654">
        <ele>497</ele>
        <time>2019-05-22T20:45:29Z</time>
      </trkpt>
      <trkpt lat="44.19162" lon="3.23673">
        <ele>497</ele>
        <time>2019-05-22T20:45:32Z</time>
      </trkpt>
      <trkpt lat="44.19166" lon="3.23691">
        <ele>499</ele>
        <time>2019-05-22T20:45:34Z</time>
      </trkpt>
      <trkpt lat="44.1917" lon="3.23703">
        <ele>502</ele>
        <time>2019-05-22T20:45:36Z</time>
      </trkpt>
      <trkpt lat="44.19181" lon="3.23753">
        <ele>507</ele>
        <time>2019-05-22T20:45:42Z</time>
      </trkpt>
      <trkpt lat="44.19195" lon="3.23799">
        <ele>507</ele>
        <time>2019-05-22T20:45:49Z</time>
      </trkpt>
      <trkpt lat="44.192" lon="3.23846">
        <ele>501</ele>
        <time>2019-05-22T20:45:55Z</time>
      </trkpt>
      <trkpt lat="44.19204" lon="3.23862">
        <ele>501</ele>
        <time>2019-05-22T20:45:57Z</time>
      </trkpt>
      <trkpt lat="44.19211" lon="3.23884">
        <ele>501</ele>
        <time>2019-05-22T20:46:00Z</time>
      </trkpt>
      <trkpt lat="44.1923" lon="3.23927">
        <ele>503</ele>
        <time>2019-05-22T20:46:07Z</time>
      </trkpt>
      <trkpt lat="44.19245" lon="3.23954">
        <ele>505</ele>
        <time>2019-05-22T20:46:11Z</time>
      </trkpt>
      <trkpt lat="44.19259" lon="3.23975">
        <ele>507</ele>
        <time>2019-05-22T20:46:15Z</time>
      </trkpt>
      <trkpt lat="44.19291" lon="3.24007">
        <ele>516</ele>
        <time>2019-05-22T20:46:22Z</time>
      </trkpt>
      <trkpt lat="44.19306" lon="3.24026">
        <ele>519</ele>
        <time>2019-05-22T20:46:25Z</time>
      </trkpt>
      <trkpt lat="44.19319" lon="3.24048">
        <ele>520</ele>
        <time>2019-05-22T20:46:29Z</time>
      </trkpt>
      <trkpt lat="44.19344" lon="3.24101">
        <ele>517</ele>
        <time>2019-05-22T20:46:37Z</time>
      </trkpt>
      <trkpt lat="44.19358" lon="3.24118">
        <ele>518</ele>
        <time>2019-05-22T20:46:40Z</time>
      </trkpt>
      <trkpt lat="44.19377" lon="3.24134">
        <ele>521</ele>
        <time>2019-05-22T20:46:44Z</time>
      </trkpt>
      <trkpt lat="44.19411" lon="3.24159">
        <ele>528</ele>
        <time>2019-05-22T20:46:51Z</time>
      </trkpt>
      <trkpt lat="44.19451" lon="3.24197">
        <ele>536</ele>
        <time>2019-05-22T20:47:00Z</time>
      </trkpt>
      <trkpt lat="44.19474" lon="3.24224">
        <ele>541</ele>
        <time>2019-05-22T20:47:05Z</time>
      </trkpt>
      <trkpt lat="44.1949" lon="3.24254">
        <ele>542</ele>
        <time>2019-05-22T20:47:10Z</time>
      </trkpt>
      <trkpt lat="44.195" lon="3.24281">
        <ele>542</ele>
        <time>2019-05-22T20:47:14Z</time>
      </trkpt>
      <trkpt lat="44.19511" lon="3.24321">
        <ele>539</ele>
        <time>2019-05-22T20:47:19Z</time>
      </trkpt>
      <trkpt lat="44.19526" lon="3.24425">
        <ele>536</ele>
        <time>2019-05-22T20:47:33Z</time>
      </trkpt>
      <trkpt lat="44.19533" lon="3.24443">
        <ele>535</ele>
        <time>2019-05-22T20:47:35Z</time>
      </trkpt>
      <trkpt lat="44.19544" lon="3.24457">
        <ele>537</ele>
        <time>2019-05-22T20:47:38Z</time>
      </trkpt>
      <trkpt lat="44.19592" lon="3.2449">
        <ele>547</ele>
        <time>2019-05-22T20:47:47Z</time>
      </trkpt>
      <trkpt lat="44.19603" lon="3.24504">
        <ele>549</ele>
        <time>2019-05-22T20:47:50Z</time>
      </trkpt>
      <trkpt lat="44.19611" lon="3.24522">
        <ele>551</ele>
        <time>2019-05-22T20:47:53Z</time>
      </trkpt>
      <trkpt lat="44.19614" lon="3.24542">
        <ele>551</ele>
        <time>2019-05-22T20:47:55Z</time>
      </trkpt>
      <trkpt lat="44.19615" lon="3.24624">
        <ele>542</ele>
        <time>2019-05-22T20:48:06Z</time>
      </trkpt>
      <trkpt lat="44.19614" lon="3.24754">
        <ele>503</ele>
        <time>2019-05-22T20:48:22Z</time>
      </trkpt>
      <trkpt lat="44.19615" lon="3.24775">
        <ele>497</ele>
        <time>2019-05-22T20:48:25Z</time>
      </trkpt>
      <trkpt lat="44.1962" lon="3.24791">
        <ele>497</ele>
        <time>2019-05-22T20:48:27Z</time>
      </trkpt>
      <trkpt lat="44.19629" lon="3.24801">
        <ele>500</ele>
        <time>2019-05-22T20:48:29Z</time>
      </trkpt>
      <trkpt lat="44.19641" lon="3.24802">
        <ele>509</ele>
        <time>2019-05-22T20:48:31Z</time>
      </trkpt>
      <trkpt lat="44.19693" lon="3.24788">
        <ele>540</ele>
        <time>2019-05-22T20:48:41Z</time>
      </trkpt>
      <trkpt lat="44.19708" lon="3.24788">
        <ele>544</ele>
        <time>2019-05-22T20:48:44Z</time>
      </trkpt>
      <trkpt lat="44.1972" lon="3.24793">
        <ele>546</ele>
        <time>2019-05-22T20:48:46Z</time>
      </trkpt>
      <trkpt lat="44.19732" lon="3.24805">
        <ele>546</ele>
        <time>2019-05-22T20:48:48Z</time>
      </trkpt>
      <trkpt lat="44.19738" lon="3.2482">
        <ele>545</ele>
        <time>2019-05-22T20:48:51Z</time>
      </trkpt>
      <trkpt lat="44.19752" lon="3.24874">
        <ele>541</ele>
        <time>2019-05-22T20:48:58Z</time>
      </trkpt>
      <trkpt lat="44.1976" lon="3.24892">
        <ele>542</ele>
        <time>2019-05-22T20:49:01Z</time>
      </trkpt>
      <trkpt lat="44.19774" lon="3.24913">
        <ele>545</ele>
        <time>2019-05-22T20:49:04Z</time>
      </trkpt>
      <trkpt lat="44.19798" lon="3.24941">
        <ele>549</ele>
        <time>2019-05-22T20:49:10Z</time>
      </trkpt>
      <trkpt lat="44.19808" lon="3.24961">
        <ele>549</ele>
        <time>2019-05-22T20:49:13Z</time>
      </trkpt>
      <trkpt lat="44.19816" lon="3.24987">
        <ele>548</ele>
        <time>2019-05-22T20:49:17Z</time>
      </trkpt>
      <trkpt lat="44.19827" lon="3.25031">
        <ele>548</ele>
        <time>2019-05-22T20:49:22Z</time>
      </trkpt>
      <trkpt lat="44.19829" lon="3.2505">
        <ele>548</ele>
        <time>2019-05-22T20:49:25Z</time>
      </trkpt>
      <trkpt lat="44.19822" lon="3.25127">
        <ele>534</ele>
        <time>2019-05-22T20:49:35Z</time>
      </trkpt>
      <trkpt lat="44.19824" lon="3.25145">
        <ele>532</ele>
        <time>2019-05-22T20:49:37Z</time>
      </trkpt>
      <trkpt lat="44.19829" lon="3.25159">
        <ele>533</ele>
        <time>2019-05-22T20:49:39Z</time>
      </trkpt>
      <trkpt lat="44.19861" lon="3.25201">
        <ele>538</ele>
        <time>2019-05-22T20:49:47Z</time>
      </trkpt>
      <trkpt lat="44.19885" lon="3.25241">
        <ele>541</ele>
        <time>2019-05-22T20:49:54Z</time>
      </trkpt>
      <trkpt lat="44.19892" lon="3.25259">
        <ele>542</ele>
        <time>2019-05-22T20:49:56Z</time>
      </trkpt>
      <trkpt lat="44.19896" lon="3.25289">
        <ele>540</ele>
        <time>2019-05-22T20:50:00Z</time>
      </trkpt>
      <trkpt lat="44.19896" lon="3.25289">
        <ele>540</ele>
        <time>2019-05-22T20:50:00Z</time>
      </trkpt>
      <trkpt lat="44.19894" lon="3.25336">
        <ele>532</ele>
        <time>2019-05-22T20:50:06Z</time>
      </trkpt>
      <trkpt lat="44.19896" lon="3.25358">
        <ele>531</ele>
        <time>2019-05-22T20:50:09Z</time>
      </trkpt>
      <trkpt lat="44.19901" lon="3.25391">
        <ele>530</ele>
        <time>2019-05-22T20:50:13Z</time>
      </trkpt>
      <trkpt lat="44.19902" lon="3.25411">
        <ele>529</ele>
        <time>2019-05-22T20:50:16Z</time>
      </trkpt>
      <trkpt lat="44.199" lon="3.25463">
        <ele>520</ele>
        <time>2019-05-22T20:50:22Z</time>
      </trkpt>
      <trkpt lat="44.19906" lon="3.25506">
        <ele>518</ele>
        <time>2019-05-22T20:50:28Z</time>
      </trkpt>
      <trkpt lat="44.19912" lon="3.25522">
        <ele>519</ele>
        <time>2019-05-22T20:50:30Z</time>
      </trkpt>
      <trkpt lat="44.19922" lon="3.25528">
        <ele>522</ele>
        <time>2019-05-22T20:50:32Z</time>
      </trkpt>
      <trkpt lat="44.19943" lon="3.25524">
        <ele>530</ele>
        <time>2019-05-22T20:50:36Z</time>
      </trkpt>
      <trkpt lat="44.19961" lon="3.25524">
        <ele>536</ele>
        <time>2019-05-22T20:50:39Z</time>
      </trkpt>
      <trkpt lat="44.19975" lon="3.25528">
        <ele>540</ele>
        <time>2019-05-22T20:50:42Z</time>
      </trkpt>
      <trkpt lat="44.19984" lon="3.25536">
        <ele>542</ele>
        <time>2019-05-22T20:50:44Z</time>
      </trkpt>
      <trkpt lat="44.19989" lon="3.25545">
        <ele>543</ele>
        <time>2019-05-22T20:50:45Z</time>
      </trkpt>
      <trkpt lat="44.1999" lon="3.25553">
        <ele>542</ele>
        <time>2019-05-22T20:50:46Z</time>
      </trkpt>
      <trkpt lat="44.19984" lon="3.25586">
        <ele>537</ele>
        <time>2019-05-22T20:50:51Z</time>
      </trkpt>
      <trkpt lat="44.19976" lon="3.25623">
        <ele>534</ele>
        <time>2019-05-22T20:50:55Z</time>
      </trkpt>
      <trkpt lat="44.19957" lon="3.25726">
        <ele>524</ele>
        <time>2019-05-22T20:51:09Z</time>
      </trkpt>
      <trkpt lat="44.19949" lon="3.25761">
        <ele>519</ele>
        <time>2019-05-22T20:51:14Z</time>
      </trkpt>
      <trkpt lat="44.19949" lon="3.25779">
        <ele>518</ele>
        <time>2019-05-22T20:51:16Z</time>
      </trkpt>
      <trkpt lat="44.19952" lon="3.25798">
        <ele>519</ele>
        <time>2019-05-22T20:51:19Z</time>
      </trkpt>
      <trkpt lat="44.19957" lon="3.25812">
        <ele>522</ele>
        <time>2019-05-22T20:51:21Z</time>
      </trkpt>
      <trkpt lat="44.19958" lon="3.25825">
        <ele>522</ele>
        <time>2019-05-22T20:51:22Z</time>
      </trkpt>
      <trkpt lat="44.19959" lon="3.25848">
        <ele>519</ele>
        <time>2019-05-22T20:51:25Z</time>
      </trkpt>
      <trkpt lat="44.19962" lon="3.25863">
        <ele>517</ele>
        <time>2019-05-22T20:51:27Z</time>
      </trkpt>
      <trkpt lat="44.19966" lon="3.25882">
        <ele>515</ele>
        <time>2019-05-22T20:51:30Z</time>
      </trkpt>
      <trkpt lat="44.19976" lon="3.25901">
        <ele>516</ele>
        <time>2019-05-22T20:51:33Z</time>
      </trkpt>
      <trkpt lat="44.20012" lon="3.25937">
        <ele>525</ele>
        <time>2019-05-22T20:51:41Z</time>
      </trkpt>
      <trkpt lat="44.20025" lon="3.25957">
        <ele>527</ele>
        <time>2019-05-22T20:51:44Z</time>
      </trkpt>
      <trkpt lat="44.20034" lon="3.25978">
        <ele>526</ele>
        <time>2019-05-22T20:51:47Z</time>
      </trkpt>
      <trkpt lat="44.20039" lon="3.26001">
        <ele>523</ele>
        <time>2019-05-22T20:51:50Z</time>
      </trkpt>
      <trkpt lat="44.20047" lon="3.26081">
        <ele>511</ele>
        <time>2019-05-22T20:52:00Z</time>
      </trkpt>
      <trkpt lat="44.20053" lon="3.26096">
        <ele>512</ele>
        <time>2019-05-22T20:52:03Z</time>
      </trkpt>
      <trkpt lat="44.20082" lon="3.26132">
        <ele>522</ele>
        <time>2019-05-22T20:52:10Z</time>
      </trkpt>
      <trkpt lat="44.20089" lon="3.26145">
        <ele>524</ele>
        <time>2019-05-22T20:52:12Z</time>
      </trkpt>
      <trkpt lat="44.20092" lon="3.26154">
        <ele>525</ele>
        <time>2019-05-22T20:52:13Z</time>
      </trkpt>
      <trkpt lat="44.20092" lon="3.26165">
        <ele>523</ele>
        <time>2019-05-22T20:52:14Z</time>
      </trkpt>
      <trkpt lat="44.20091" lon="3.26182">
        <ele>522</ele>
        <time>2019-05-22T20:52:16Z</time>
      </trkpt>
      <trkpt lat="44.20078" lon="3.26244">
        <ele>515</ele>
        <time>2019-05-22T20:52:25Z</time>
      </trkpt>
      <trkpt lat="44.20077" lon="3.26262">
        <ele>513</ele>
        <time>2019-05-22T20:52:27Z</time>
      </trkpt>
      <trkpt lat="44.20077" lon="3.26282">
        <ele>511</ele>
        <time>2019-05-22T20:52:30Z</time>
      </trkpt>
      <trkpt lat="44.20081" lon="3.26301">
        <ele>511</ele>
        <time>2019-05-22T20:52:32Z</time>
      </trkpt>
      <trkpt lat="44.20126" lon="3.26395">
        <ele>519</ele>
        <time>2019-05-22T20:52:47Z</time>
      </trkpt>
      <trkpt lat="44.20137" lon="3.26422">
        <ele>520</ele>
        <time>2019-05-22T20:52:50Z</time>
      </trkpt>
      <trkpt lat="44.20142" lon="3.26441">
        <ele>519</ele>
        <time>2019-05-22T20:52:53Z</time>
      </trkpt>
      <trkpt lat="44.20142" lon="3.26461">
        <ele>514</ele>
        <time>2019-05-22T20:52:56Z</time>
      </trkpt>
      <trkpt lat="44.20135" lon="3.26511">
        <ele>498</ele>
        <time>2019-05-22T20:53:02Z</time>
      </trkpt>
      <trkpt lat="44.20134" lon="3.26532">
        <ele>492</ele>
        <time>2019-05-22T20:53:05Z</time>
      </trkpt>
      <trkpt lat="44.2014" lon="3.26544">
        <ele>492</ele>
        <time>2019-05-22T20:53:07Z</time>
      </trkpt>
      <trkpt lat="44.20149" lon="3.26552">
        <ele>493</ele>
        <time>2019-05-22T20:53:09Z</time>
      </trkpt>
      <trkpt lat="44.20165" lon="3.26552">
        <ele>498</ele>
        <time>2019-05-22T20:53:11Z</time>
      </trkpt>
      <trkpt lat="44.20208" lon="3.26542">
        <ele>513</ele>
        <time>2019-05-22T20:53:19Z</time>
      </trkpt>
      <trkpt lat="44.20227" lon="3.26544">
        <ele>516</ele>
        <time>2019-05-22T20:53:23Z</time>
      </trkpt>
      <trkpt lat="44.20243" lon="3.2655">
        <ele>517</ele>
        <time>2019-05-22T20:53:25Z</time>
      </trkpt>
      <trkpt lat="44.20257" lon="3.26561">
        <ele>516</ele>
        <time>2019-05-22T20:53:28Z</time>
      </trkpt>
      <trkpt lat="44.20293" lon="3.26604">
        <ele>514</ele>
        <time>2019-05-22T20:53:37Z</time>
      </trkpt>
      <trkpt lat="44.20298" lon="3.26616">
        <ele>515</ele>
        <time>2019-05-22T20:53:39Z</time>
      </trkpt>
      <trkpt lat="44.20301" lon="3.26624">
        <ele>515</ele>
        <time>2019-05-22T20:53:40Z</time>
      </trkpt>
      <trkpt lat="44.20299" lon="3.26637">
        <ele>512</ele>
        <time>2019-05-22T20:53:41Z</time>
      </trkpt>
      <trkpt lat="44.20292" lon="3.26646">
        <ele>509</ele>
        <time>2019-05-22T20:53:43Z</time>
      </trkpt>
      <trkpt lat="44.20269" lon="3.26656">
        <ele>501</ele>
        <time>2019-05-22T20:53:47Z</time>
      </trkpt>
      <trkpt lat="44.20253" lon="3.26671">
        <ele>495</ele>
        <time>2019-05-22T20:53:51Z</time>
      </trkpt>
      <trkpt lat="44.20243" lon="3.26676">
        <ele>493</ele>
        <time>2019-05-22T20:53:53Z</time>
      </trkpt>
      <trkpt lat="44.20239" lon="3.26685">
        <ele>492</ele>
        <time>2019-05-22T20:53:54Z</time>
      </trkpt>
      <trkpt lat="44.20237" lon="3.267">
        <ele>493</ele>
        <time>2019-05-22T20:53:56Z</time>
      </trkpt>
      <trkpt lat="44.20234" lon="3.26769">
        <ele>500</ele>
        <time>2019-05-22T20:54:05Z</time>
      </trkpt>
      <trkpt lat="44.20222" lon="3.26842">
        <ele>501</ele>
        <time>2019-05-22T20:54:14Z</time>
      </trkpt>
      <trkpt lat="44.20214" lon="3.26874">
        <ele>499</ele>
        <time>2019-05-22T20:54:19Z</time>
      </trkpt>
      <trkpt lat="44.20204" lon="3.26903">
        <ele>495</ele>
        <time>2019-05-22T20:54:23Z</time>
      </trkpt>
      <trkpt lat="44.20182" lon="3.27017">
        <ele>490</ele>
        <time>2019-05-22T20:54:38Z</time>
      </trkpt>
      <trkpt lat="44.20176" lon="3.27098">
        <ele>490</ele>
        <time>2019-05-22T20:54:48Z</time>
      </trkpt>
      <trkpt lat="44.20166" lon="3.27146">
        <ele>485</ele>
        <time>2019-05-22T20:54:55Z</time>
      </trkpt>
      <trkpt lat="44.20164" lon="3.27198">
        <ele>489</ele>
        <time>2019-05-22T20:55:01Z</time>
      </trkpt>
      <trkpt lat="44.20156" lon="3.27226">
        <ele>491</ele>
        <time>2019-05-22T20:55:05Z</time>
      </trkpt>
      <trkpt lat="44.20142" lon="3.27253">
        <ele>490</ele>
        <time>2019-05-22T20:55:09Z</time>
      </trkpt>
      <trkpt lat="44.20123" lon="3.27288">
        <ele>488</ele>
        <time>2019-05-22T20:55:15Z</time>
      </trkpt>
      <trkpt lat="44.20115" lon="3.27304">
        <ele>487</ele>
        <time>2019-05-22T20:55:17Z</time>
      </trkpt>
      <trkpt lat="44.20094" lon="3.27362">
        <ele>487</ele>
        <time>2019-05-22T20:55:26Z</time>
      </trkpt>
      <trkpt lat="44.20085" lon="3.27379">
        <ele>486</ele>
        <time>2019-05-22T20:55:28Z</time>
      </trkpt>
      <trkpt lat="44.20064" lon="3.274">
        <ele>486</ele>
        <time>2019-05-22T20:55:33Z</time>
      </trkpt>
      <trkpt lat="44.20056" lon="3.27414">
        <ele>486</ele>
        <time>2019-05-22T20:55:35Z</time>
      </trkpt>
      <trkpt lat="44.20052" lon="3.2743">
        <ele>486</ele>
        <time>2019-05-22T20:55:37Z</time>
      </trkpt>
      <trkpt lat="44.20054" lon="3.27547">
        <ele>492</ele>
        <time>2019-05-22T20:55:52Z</time>
      </trkpt>
      <trkpt lat="44.20066" lon="3.2759">
        <ele>494</ele>
        <time>2019-05-22T20:55:58Z</time>
      </trkpt>
      <trkpt lat="44.20068" lon="3.27611">
        <ele>494</ele>
        <time>2019-05-22T20:56:01Z</time>
      </trkpt>
      <trkpt lat="44.20064" lon="3.27628">
        <ele>492</ele>
        <time>2019-05-22T20:56:03Z</time>
      </trkpt>
      <trkpt lat="44.20061" lon="3.27658">
        <ele>490</ele>
        <time>2019-05-22T20:56:07Z</time>
      </trkpt>
      <trkpt lat="44.20063" lon="3.27682">
        <ele>489</ele>
        <time>2019-05-22T20:56:10Z</time>
      </trkpt>
      <trkpt lat="44.2007" lon="3.27704">
        <ele>487</ele>
        <time>2019-05-22T20:56:13Z</time>
      </trkpt>
      <trkpt lat="44.20079" lon="3.27719">
        <ele>485</ele>
        <time>2019-05-22T20:56:16Z</time>
      </trkpt>
      <trkpt lat="44.20096" lon="3.27737">
        <ele>490</ele>
        <time>2019-05-22T20:56:20Z</time>
      </trkpt>
      <trkpt lat="44.20115" lon="3.27752">
        <ele>499</ele>
        <time>2019-05-22T20:56:23Z</time>
      </trkpt>
      <trkpt lat="44.20145" lon="3.27786">
        <ele>508</ele>
        <time>2019-05-22T20:56:30Z</time>
      </trkpt>
      <trkpt lat="44.20163" lon="3.2782">
        <ele>503</ele>
        <time>2019-05-22T20:56:36Z</time>
      </trkpt>
      <trkpt lat="44.20171" lon="3.27839">
        <ele>500</ele>
        <time>2019-05-22T20:56:39Z</time>
      </trkpt>
      <trkpt lat="44.20179" lon="3.27875">
        <ele>498</ele>
        <time>2019-05-22T20:56:43Z</time>
      </trkpt>
      <trkpt lat="44.20184" lon="3.27886">
        <ele>499</ele>
        <time>2019-05-22T20:56:45Z</time>
      </trkpt>
      <trkpt lat="44.2019" lon="3.27894">
        <ele>501</ele>
        <time>2019-05-22T20:56:46Z</time>
      </trkpt>
      <trkpt lat="44.20192" lon="3.27907">
        <ele>499</ele>
        <time>2019-05-22T20:56:48Z</time>
      </trkpt>
      <trkpt lat="44.2019" lon="3.2792">
        <ele>497</ele>
        <time>2019-05-22T20:56:50Z</time>
      </trkpt>
      <trkpt lat="44.20182" lon="3.27938">
        <ele>496</ele>
        <time>2019-05-22T20:56:53Z</time>
      </trkpt>
      <trkpt lat="44.20154" lon="3.27991">
        <ele>497</ele>
        <time>2019-05-22T20:57:01Z</time>
      </trkpt>
      <trkpt lat="44.20126" lon="3.28064">
        <ele>500</ele>
        <time>2019-05-22T20:57:12Z</time>
      </trkpt>
      <trkpt lat="44.20121" lon="3.28082">
        <ele>500</ele>
        <time>2019-05-22T20:57:14Z</time>
      </trkpt>
      <trkpt lat="44.20119" lon="3.28107">
        <ele>500</ele>
        <time>2019-05-22T20:57:17Z</time>
      </trkpt>
      <trkpt lat="44.2012" lon="3.28135">
        <ele>503</ele>
        <time>2019-05-22T20:57:21Z</time>
      </trkpt>
      <trkpt lat="44.20118" lon="3.28158">
        <ele>503</ele>
        <time>2019-05-22T20:57:24Z</time>
      </trkpt>
      <trkpt lat="44.20098" lon="3.28239">
        <ele>498</ele>
        <time>2019-05-22T20:57:35Z</time>
      </trkpt>
      <trkpt lat="44.20094" lon="3.2826">
        <ele>498</ele>
        <time>2019-05-22T20:57:37Z</time>
      </trkpt>
      <trkpt lat="44.20088" lon="3.28281">
        <ele>498</ele>
        <time>2019-05-22T20:57:40Z</time>
      </trkpt>
      <trkpt lat="44.2008" lon="3.28301">
        <ele>498</ele>
        <time>2019-05-22T20:57:43Z</time>
      </trkpt>
      <trkpt lat="44.20031" lon="3.28392">
        <ele>500</ele>
        <time>2019-05-22T20:57:58Z</time>
      </trkpt>
      <trkpt lat="44.20005" lon="3.28429">
        <ele>493</ele>
        <time>2019-05-22T20:58:04Z</time>
      </trkpt>
      <trkpt lat="44.19997" lon="3.28446">
        <ele>492</ele>
        <time>2019-05-22T20:58:07Z</time>
      </trkpt>
      <trkpt lat="44.19993" lon="3.2847">
        <ele>495</ele>
        <time>2019-05-22T20:58:10Z</time>
      </trkpt>
      <trkpt lat="44.19995" lon="3.28492">
        <ele>498</ele>
        <time>2019-05-22T20:58:13Z</time>
      </trkpt>
      <trkpt lat="44.2" lon="3.28514">
        <ele>498</ele>
        <time>2019-05-22T20:58:16Z</time>
      </trkpt>
      <trkpt lat="44.20018" lon="3.28566">
        <ele>504</ele>
        <time>2019-05-22T20:58:23Z</time>
      </trkpt>
      <trkpt lat="44.20024" lon="3.28597">
        <ele>506</ele>
        <time>2019-05-22T20:58:27Z</time>
      </trkpt>
      <trkpt lat="44.2003" lon="3.28649">
        <ele>507</ele>
        <time>2019-05-22T20:58:34Z</time>
      </trkpt>
      <trkpt lat="44.20032" lon="3.28695">
        <ele>508</ele>
        <time>2019-05-22T20:58:40Z</time>
      </trkpt>
      <trkpt lat="44.2003" lon="3.28741">
        <ele>508</ele>
        <time>2019-05-22T20:58:46Z</time>
      </trkpt>
      <trkpt lat="44.20026" lon="3.28783">
        <ele>503</ele>
        <time>2019-05-22T20:58:51Z</time>
      </trkpt>
      <trkpt lat="44.20025" lon="3.28823">
        <ele>500</ele>
        <time>2019-05-22T20:58:56Z</time>
      </trkpt>
      <trkpt lat="44.20029" lon="3.28847">
        <ele>499</ele>
        <time>2019-05-22T20:58:59Z</time>
      </trkpt>
      <trkpt lat="44.20041" lon="3.28866">
        <ele>500</ele>
        <time>2019-05-22T20:59:03Z</time>
      </trkpt>
      <trkpt lat="44.20065" lon="3.2889">
        <ele>503</ele>
        <time>2019-05-22T20:59:08Z</time>
      </trkpt>
      <trkpt lat="44.20136" lon="3.28948">
        <ele>499</ele>
        <time>2019-05-22T20:59:23Z</time>
      </trkpt>
      <trkpt lat="44.20146" lon="3.28952">
        <ele>498</ele>
        <time>2019-05-22T20:59:24Z</time>
      </trkpt>
      <trkpt lat="44.20156" lon="3.28951">
        <ele>500</ele>
        <time>2019-05-22T20:59:26Z</time>
      </trkpt>
      <trkpt lat="44.20167" lon="3.28946">
        <ele>502</ele>
        <time>2019-05-22T20:59:28Z</time>
      </trkpt>
      <trkpt lat="44.20176" lon="3.28939">
        <ele>505</ele>
        <time>2019-05-22T20:59:30Z</time>
      </trkpt>
      <trkpt lat="44.20185" lon="3.28936">
        <ele>506</ele>
        <time>2019-05-22T20:59:32Z</time>
      </trkpt>
      <trkpt lat="44.20195" lon="3.28935">
        <ele>507</ele>
        <time>2019-05-22T20:59:34Z</time>
      </trkpt>
      <trkpt lat="44.20205" lon="3.28937">
        <ele>507</ele>
        <time>2019-05-22T20:59:35Z</time>
      </trkpt>
      <trkpt lat="44.20219" lon="3.28936">
        <ele>508</ele>
        <time>2019-05-22T20:59:38Z</time>
      </trkpt>
      <trkpt lat="44.2024" lon="3.28931">
        <ele>510</ele>
        <time>2019-05-22T20:59:42Z</time>
      </trkpt>
      <trkpt lat="44.20259" lon="3.28932">
        <ele>512</ele>
        <time>2019-05-22T20:59:45Z</time>
      </trkpt>
      <trkpt lat="44.20277" lon="3.28938">
        <ele>512</ele>
        <time>2019-05-22T20:59:48Z</time>
      </trkpt>
      <trkpt lat="44.20373" lon="3.28997">
        <ele>501</ele>
        <time>2019-05-22T21:00:07Z</time>
      </trkpt>
      <trkpt lat="44.20394" lon="3.29008">
        <ele>502</ele>
        <time>2019-05-22T21:00:11Z</time>
      </trkpt>
      <trkpt lat="44.20419" lon="3.29015">
        <ele>505</ele>
        <time>2019-05-22T21:00:16Z</time>
      </trkpt>
      <trkpt lat="44.20481" lon="3.29016">
        <ele>508</ele>
        <time>2019-05-22T21:00:27Z</time>
      </trkpt>
      <trkpt lat="44.20521" lon="3.29009">
        <ele>511</ele>
        <time>2019-05-22T21:00:34Z</time>
      </trkpt>
      <trkpt lat="44.20539" lon="3.29003">
        <ele>513</ele>
        <time>2019-05-22T21:00:37Z</time>
      </trkpt>
      <trkpt lat="44.20555" lon="3.29001">
        <ele>513</ele>
        <time>2019-05-22T21:00:40Z</time>
      </trkpt>
      <trkpt lat="44.2057" lon="3.29004">
        <ele>512</ele>
        <time>2019-05-22T21:00:43Z</time>
      </trkpt>
      <trkpt lat="44.20582" lon="3.29012">
        <ele>510</ele>
        <time>2019-05-22T21:00:45Z</time>
      </trkpt>
      <trkpt lat="44.20622" lon="3.29061">
        <ele>505</ele>
        <time>2019-05-22T21:00:54Z</time>
      </trkpt>
      <trkpt lat="44.2063" lon="3.29075">
        <ele>503</ele>
        <time>2019-05-22T21:00:57Z</time>
      </trkpt>
      <trkpt lat="44.20637" lon="3.29091">
        <ele>503</ele>
        <time>2019-05-22T21:00:59Z</time>
      </trkpt>
      <trkpt lat="44.20641" lon="3.29109">
        <ele>505</ele>
        <time>2019-05-22T21:01:01Z</time>
      </trkpt>
      <trkpt lat="44.20641" lon="3.29154">
        <ele>508</ele>
        <time>2019-05-22T21:01:07Z</time>
      </trkpt>
      <trkpt lat="44.20645" lon="3.29185">
        <ele>508</ele>
        <time>2019-05-22T21:01:11Z</time>
      </trkpt>
      <trkpt lat="44.20657" lon="3.29237">
        <ele>505</ele>
        <time>2019-05-22T21:01:18Z</time>
      </trkpt>
      <trkpt lat="44.20666" lon="3.29261">
        <ele>503</ele>
        <time>2019-05-22T21:01:22Z</time>
      </trkpt>
      <trkpt lat="44.20679" lon="3.29281">
        <ele>507</ele>
        <time>2019-05-22T21:01:25Z</time>
      </trkpt>
      <trkpt lat="44.20708" lon="3.29311">
        <ele>514</ele>
        <time>2019-05-22T21:01:32Z</time>
      </trkpt>
      <trkpt lat="44.20723" lon="3.29329">
        <ele>513</ele>
        <time>2019-05-22T21:01:35Z</time>
      </trkpt>
      <trkpt lat="44.20735" lon="3.2935">
        <ele>513</ele>
        <time>2019-05-22T21:01:38Z</time>
      </trkpt>
      <trkpt lat="44.20744" lon="3.29373">
        <ele>511</ele>
        <time>2019-05-22T21:01:42Z</time>
      </trkpt>
      <trkpt lat="44.20753" lon="3.2943">
        <ele>504</ele>
        <time>2019-05-22T21:01:49Z</time>
      </trkpt>
      <trkpt lat="44.20753" lon="3.29451">
        <ele>506</ele>
        <time>2019-05-22T21:01:52Z</time>
      </trkpt>
      <trkpt lat="44.20732" lon="3.29559">
        <ele>514</ele>
        <time>2019-05-22T21:02:06Z</time>
      </trkpt>
      <trkpt lat="44.20727" lon="3.29588">
        <ele>516</ele>
        <time>2019-05-22T21:02:10Z</time>
      </trkpt>
      <trkpt lat="44.20721" lon="3.2965">
        <ele>519</ele>
        <time>2019-05-22T21:02:18Z</time>
      </trkpt>
      <trkpt lat="44.20703" lon="3.29759">
        <ele>518</ele>
        <time>2019-05-22T21:02:32Z</time>
      </trkpt>
      <trkpt lat="44.20701" lon="3.29785">
        <ele>517</ele>
        <time>2019-05-22T21:02:36Z</time>
      </trkpt>
      <trkpt lat="44.20694" lon="3.29933">
        <ele>519</ele>
        <time>2019-05-22T21:02:55Z</time>
      </trkpt>
      <trkpt lat="44.20695" lon="3.2996">
        <ele>520</ele>
        <time>2019-05-22T21:02:58Z</time>
      </trkpt>
      <trkpt lat="44.20714" lon="3.30037">
        <ele>532</ele>
        <time>2019-05-22T21:03:08Z</time>
      </trkpt>
      <trkpt lat="44.20713" lon="3.30061">
        <ele>533</ele>
        <time>2019-05-22T21:03:11Z</time>
      </trkpt>
      <trkpt lat="44.20717" lon="3.30087">
        <ele>536</ele>
        <time>2019-05-22T21:03:15Z</time>
      </trkpt>
      <trkpt lat="44.20713" lon="3.30118">
        <ele>535</ele>
        <time>2019-05-22T21:03:19Z</time>
      </trkpt>
      <trkpt lat="44.20695" lon="3.30169">
        <ele>526</ele>
        <time>2019-05-22T21:03:26Z</time>
      </trkpt>
      <trkpt lat="44.20689" lon="3.30196">
        <ele>525</ele>
        <time>2019-05-22T21:03:30Z</time>
      </trkpt>
      <trkpt lat="44.20688" lon="3.30221">
        <ele>527</ele>
        <time>2019-05-22T21:03:33Z</time>
      </trkpt>
      <trkpt lat="44.20689" lon="3.30284">
        <ele>530</ele>
        <time>2019-05-22T21:03:41Z</time>
      </trkpt>
      <trkpt lat="44.20684" lon="3.30315">
        <ele>528</ele>
        <time>2019-05-22T21:03:45Z</time>
      </trkpt>
      <trkpt lat="44.20675" lon="3.30351">
        <ele>526</ele>
        <time>2019-05-22T21:03:50Z</time>
      </trkpt>
      <trkpt lat="44.20669" lon="3.30381">
        <ele>527</ele>
        <time>2019-05-22T21:03:54Z</time>
      </trkpt>
      <trkpt lat="44.20659" lon="3.30477">
        <ele>536</ele>
        <time>2019-05-22T21:04:06Z</time>
      </trkpt>
      <trkpt lat="44.20647" lon="3.30549">
        <ele>542</ele>
        <time>2019-05-22T21:04:16Z</time>
      </trkpt>
      <trkpt lat="44.2064" lon="3.30587">
        <ele>544</ele>
        <time>2019-05-22T21:04:21Z</time>
      </trkpt>
      <trkpt lat="44.20613" lon="3.3069">
        <ele>538</ele>
        <time>2019-05-22T21:04:35Z</time>
      </trkpt>
      <trkpt lat="44.20608" lon="3.30718">
        <ele>538</ele>
        <time>2019-05-22T21:04:38Z</time>
      </trkpt>
      <trkpt lat="44.206" lon="3.3081">
        <ele>549</ele>
        <time>2019-05-22T21:04:50Z</time>
      </trkpt>
      <trkpt lat="44.20593" lon="3.30838">
        <ele>551</ele>
        <time>2019-05-22T21:04:54Z</time>
      </trkpt>
      <trkpt lat="44.2058" lon="3.30865">
        <ele>551</ele>
        <time>2019-05-22T21:04:58Z</time>
      </trkpt>
      <trkpt lat="44.20562" lon="3.30893">
        <ele>553</ele>
        <time>2019-05-22T21:05:03Z</time>
      </trkpt>
      <trkpt lat="44.20546" lon="3.30925">
        <ele>552</ele>
        <time>2019-05-22T21:05:08Z</time>
      </trkpt>
      <trkpt lat="44.20531" lon="3.30968">
        <ele>550</ele>
        <time>2019-05-22T21:05:14Z</time>
      </trkpt>
      <trkpt lat="44.20518" lon="3.31014">
        <ele>549</ele>
        <time>2019-05-22T21:05:20Z</time>
      </trkpt>
      <trkpt lat="44.20482" lon="3.31188">
        <ele>567</ele>
        <time>2019-05-22T21:05:43Z</time>
      </trkpt>
      <trkpt lat="44.20472" lon="3.31221">
        <ele>568</ele>
        <time>2019-05-22T21:05:48Z</time>
      </trkpt>
      <trkpt lat="44.20459" lon="3.31253">
        <ele>567</ele>
        <time>2019-05-22T21:05:53Z</time>
      </trkpt>
      <trkpt lat="44.20398" lon="3.31355">
        <ele>568</ele>
        <time>2019-05-22T21:06:09Z</time>
      </trkpt>
      <trkpt lat="44.20376" lon="3.31384">
        <ele>571</ele>
        <time>2019-05-22T21:06:15Z</time>
      </trkpt>
      <trkpt lat="44.20358" lon="3.31405">
        <ele>571</ele>
        <time>2019-05-22T21:06:19Z</time>
      </trkpt>
      <trkpt lat="44.20277" lon="3.31478">
        <ele>564</ele>
        <time>2019-05-22T21:06:36Z</time>
      </trkpt>
      <trkpt lat="44.20265" lon="3.31492">
        <ele>561</ele>
        <time>2019-05-22T21:06:39Z</time>
      </trkpt>
      <trkpt lat="44.20253" lon="3.31511">
        <ele>562</ele>
        <time>2019-05-22T21:06:42Z</time>
      </trkpt>
      <trkpt lat="44.20239" lon="3.31537">
        <ele>571</ele>
        <time>2019-05-22T21:06:46Z</time>
      </trkpt>
      <trkpt lat="44.2021" lon="3.31583">
        <ele>577</ele>
        <time>2019-05-22T21:06:54Z</time>
      </trkpt>
      <trkpt lat="44.20181" lon="3.31648">
        <ele>584</ele>
        <time>2019-05-22T21:07:04Z</time>
      </trkpt>
      <trkpt lat="44.20131" lon="3.3173">
        <ele>584</ele>
        <time>2019-05-22T21:07:18Z</time>
      </trkpt>
      <trkpt lat="44.20123" lon="3.31749">
        <ele>584</ele>
        <time>2019-05-22T21:07:20Z</time>
      </trkpt>
      <trkpt lat="44.20118" lon="3.31772">
        <ele>584</ele>
        <time>2019-05-22T21:07:24Z</time>
      </trkpt>
      <trkpt lat="44.20117" lon="3.31797">
        <ele>586</ele>
        <time>2019-05-22T21:07:27Z</time>
      </trkpt>
      <trkpt lat="44.20122" lon="3.31838">
        <ele>593</ele>
        <time>2019-05-22T21:07:32Z</time>
      </trkpt>
      <trkpt lat="44.20123" lon="3.31867">
        <ele>594</ele>
        <time>2019-05-22T21:07:36Z</time>
      </trkpt>
      <trkpt lat="44.20121" lon="3.31931">
        <ele>592</ele>
        <time>2019-05-22T21:07:44Z</time>
      </trkpt>
      <trkpt lat="44.20128" lon="3.32014">
        <ele>592</ele>
        <time>2019-05-22T21:07:55Z</time>
      </trkpt>
      <trkpt lat="44.20141" lon="3.32079">
        <ele>595</ele>
        <time>2019-05-22T21:08:03Z</time>
      </trkpt>
      <trkpt lat="44.20149" lon="3.32111">
        <ele>596</ele>
        <time>2019-05-22T21:08:08Z</time>
      </trkpt>
      <trkpt lat="44.20158" lon="3.32177">
        <ele>595</ele>
        <time>2019-05-22T21:08:16Z</time>
      </trkpt>
      <trkpt lat="44.20167" lon="3.32219">
        <ele>594</ele>
        <time>2019-05-22T21:08:22Z</time>
      </trkpt>
      <trkpt lat="44.20179" lon="3.32254">
        <ele>599</ele>
        <time>2019-05-22T21:08:27Z</time>
      </trkpt>
      <trkpt lat="44.20191" lon="3.3228">
        <ele>602</ele>
        <time>2019-05-22T21:08:31Z</time>
      </trkpt>
      <trkpt lat="44.20205" lon="3.32301">
        <ele>607</ele>
        <time>2019-05-22T21:08:34Z</time>
      </trkpt>
      <trkpt lat="44.20216" lon="3.32325">
        <ele>610</ele>
        <time>2019-05-22T21:08:38Z</time>
      </trkpt>
      <trkpt lat="44.2024" lon="3.32394">
        <ele>602</ele>
        <time>2019-05-22T21:08:48Z</time>
      </trkpt>
      <trkpt lat="44.20253" lon="3.32425">
        <ele>599</ele>
        <time>2019-05-22T21:08:52Z</time>
      </trkpt>
      <trkpt lat="44.20321" lon="3.32572">
        <ele>614</ele>
        <time>2019-05-22T21:09:15Z</time>
      </trkpt>
      <trkpt lat="44.20331" lon="3.32601">
        <ele>609</ele>
        <time>2019-05-22T21:09:19Z</time>
      </trkpt>
      <trkpt lat="44.20366" lon="3.32779">
        <ele>615</ele>
        <time>2019-05-22T21:09:42Z</time>
      </trkpt>
      <trkpt lat="44.2037" lon="3.32812">
        <ele>618</ele>
        <time>2019-05-22T21:09:46Z</time>
      </trkpt>
      <trkpt lat="44.20372" lon="3.32844">
        <ele>619</ele>
        <time>2019-05-22T21:09:51Z</time>
      </trkpt>
      <trkpt lat="44.20371" lon="3.32888">
        <ele>615</ele>
        <time>2019-05-22T21:09:56Z</time>
      </trkpt>
      <trkpt lat="44.20373" lon="3.32918">
        <ele>614</ele>
        <time>2019-05-22T21:10:00Z</time>
      </trkpt>
      <trkpt lat="44.20381" lon="3.32951">
        <ele>613</ele>
        <time>2019-05-22T21:10:04Z</time>
      </trkpt>
      <trkpt lat="44.20413" lon="3.33039">
        <ele>610</ele>
        <time>2019-05-22T21:10:17Z</time>
      </trkpt>
      <trkpt lat="44.20421" lon="3.33068">
        <ele>610</ele>
        <time>2019-05-22T21:10:21Z</time>
      </trkpt>
      <trkpt lat="44.20427" lon="3.331">
        <ele>612</ele>
        <time>2019-05-22T21:10:25Z</time>
      </trkpt>
      <trkpt lat="44.20448" lon="3.33273">
        <ele>618</ele>
        <time>2019-05-22T21:10:48Z</time>
      </trkpt>
      <trkpt lat="44.20454" lon="3.33309">
        <ele>619</ele>
        <time>2019-05-22T21:10:52Z</time>
      </trkpt>
      <trkpt lat="44.2047" lon="3.3337">
        <ele>625</ele>
        <time>2019-05-22T21:11:01Z</time>
      </trkpt>
      <trkpt lat="44.20475" lon="3.33399">
        <ele>627</ele>
        <time>2019-05-22T21:11:04Z</time>
      </trkpt>
      <trkpt lat="44.20487" lon="3.33517">
        <ele>626</ele>
        <time>2019-05-22T21:11:20Z</time>
      </trkpt>
      <trkpt lat="44.20486" lon="3.33554">
        <ele>628</ele>
        <time>2019-05-22T21:11:24Z</time>
      </trkpt>
      <trkpt lat="44.20479" lon="3.33589">
        <ele>627</ele>
        <time>2019-05-22T21:11:29Z</time>
      </trkpt>
      <trkpt lat="44.20463" lon="3.33623">
        <ele>624</ele>
        <time>2019-05-22T21:11:34Z</time>
      </trkpt>
      <trkpt lat="44.20432" lon="3.33679">
        <ele>613</ele>
        <time>2019-05-22T21:11:43Z</time>
      </trkpt>
      <trkpt lat="44.20398" lon="3.33745">
        <ele>618</ele>
        <time>2019-05-22T21:11:54Z</time>
      </trkpt>
      <trkpt lat="44.20381" lon="3.33784">
        <ele>618</ele>
        <time>2019-05-22T21:11:59Z</time>
      </trkpt>
      <trkpt lat="44.20369" lon="3.33824">
        <ele>617</ele>
        <time>2019-05-22T21:12:05Z</time>
      </trkpt>
      <trkpt lat="44.20363" lon="3.33861">
        <ele>617</ele>
        <time>2019-05-22T21:12:10Z</time>
      </trkpt>
      <trkpt lat="44.20355" lon="3.33902">
        <ele>615</ele>
        <time>2019-05-22T21:12:15Z</time>
      </trkpt>
      <trkpt lat="44.20344" lon="3.33941">
        <ele>616</ele>
        <time>2019-05-22T21:12:21Z</time>
      </trkpt>
      <trkpt lat="44.20329" lon="3.33977">
        <ele>618</ele>
        <time>2019-05-22T21:12:26Z</time>
      </trkpt>
      <trkpt lat="44.20313" lon="3.34004">
        <ele>619</ele>
        <time>2019-05-22T21:12:30Z</time>
      </trkpt>
      <trkpt lat="44.20267" lon="3.34064">
        <ele>614</ele>
        <time>2019-05-22T21:12:41Z</time>
      </trkpt>
      <trkpt lat="44.20248" lon="3.34093">
        <ele>611</ele>
        <time>2019-05-22T21:12:47Z</time>
      </trkpt>
      <trkpt lat="44.20232" lon="3.34124">
        <ele>616</ele>
        <time>2019-05-22T21:12:51Z</time>
      </trkpt>
      <trkpt lat="44.20222" lon="3.34158">
        <ele>620</ele>
        <time>2019-05-22T21:12:56Z</time>
      </trkpt>
      <trkpt lat="44.20213" lon="3.34197">
        <ele>624</ele>
        <time>2019-05-22T21:13:01Z</time>
      </trkpt>
      <trkpt lat="44.20202" lon="3.34252">
        <ele>627</ele>
        <time>2019-05-22T21:13:09Z</time>
      </trkpt>
      <trkpt lat="44.20195" lon="3.34334">
        <ele>625</ele>
        <time>2019-05-22T21:13:19Z</time>
      </trkpt>
      <trkpt lat="44.20189" lon="3.34366">
        <ele>623</ele>
        <time>2019-05-22T21:13:23Z</time>
      </trkpt>
      <trkpt lat="44.20182" lon="3.34395">
        <ele>621</ele>
        <time>2019-05-22T21:13:27Z</time>
      </trkpt>
      <trkpt lat="44.20159" lon="3.34475">
        <ele>624</ele>
        <time>2019-05-22T21:13:38Z</time>
      </trkpt>
      <trkpt lat="44.20149" lon="3.34522">
        <ele>630</ele>
        <time>2019-05-22T21:13:44Z</time>
      </trkpt>
      <trkpt lat="44.20144" lon="3.34562">
        <ele>634</ele>
        <time>2019-05-22T21:13:50Z</time>
      </trkpt>
      <trkpt lat="44.20142" lon="3.34594">
        <ele>635</ele>
        <time>2019-05-22T21:13:54Z</time>
      </trkpt>
      <trkpt lat="44.20144" lon="3.34643">
        <ele>634</ele>
        <time>2019-05-22T21:14:00Z</time>
      </trkpt>
      <trkpt lat="44.20149" lon="3.34695">
        <ele>632</ele>
        <time>2019-05-22T21:14:07Z</time>
      </trkpt>
      <trkpt lat="44.20157" lon="3.34751">
        <ele>629</ele>
        <time>2019-05-22T21:14:14Z</time>
      </trkpt>
      <trkpt lat="44.20165" lon="3.34788">
        <ele>626</ele>
        <time>2019-05-22T21:14:19Z</time>
      </trkpt>
      <trkpt lat="44.20176" lon="3.34821">
        <ele>627</ele>
        <time>2019-05-22T21:14:24Z</time>
      </trkpt>
      <trkpt lat="44.20187" lon="3.34837">
        <ele>631</ele>
        <time>2019-05-22T21:14:26Z</time>
      </trkpt>
      <trkpt lat="44.20215" lon="3.34868">
        <ele>639</ele>
        <time>2019-05-22T21:14:33Z</time>
      </trkpt>
      <trkpt lat="44.20228" lon="3.34887">
        <ele>641</ele>
        <time>2019-05-22T21:14:36Z</time>
      </trkpt>
      <trkpt lat="44.20236" lon="3.34907">
        <ele>640</ele>
        <time>2019-05-22T21:14:39Z</time>
      </trkpt>
      <trkpt lat="44.20242" lon="3.34927">
        <ele>639</ele>
        <time>2019-05-22T21:14:42Z</time>
      </trkpt>
      <trkpt lat="44.20242" lon="3.34951">
        <ele>636</ele>
        <time>2019-05-22T21:14:45Z</time>
      </trkpt>
      <trkpt lat="44.20238" lon="3.3498">
        <ele>631</ele>
        <time>2019-05-22T21:14:49Z</time>
      </trkpt>
      <trkpt lat="44.2023" lon="3.35007">
        <ele>627</ele>
        <time>2019-05-22T21:14:52Z</time>
      </trkpt>
      <trkpt lat="44.20217" lon="3.35038">
        <ele>626</ele>
        <time>2019-05-22T21:14:57Z</time>
      </trkpt>
      <trkpt lat="44.20204" lon="3.35063">
        <ele>623</ele>
        <time>2019-05-22T21:15:01Z</time>
      </trkpt>
      <trkpt lat="44.20195" lon="3.35089">
        <ele>620</ele>
        <time>2019-05-22T21:15:05Z</time>
      </trkpt>
      <trkpt lat="44.20182" lon="3.35139">
        <ele>617</ele>
        <time>2019-05-22T21:15:11Z</time>
      </trkpt>
      <trkpt lat="44.20178" lon="3.35163">
        <ele>617</ele>
        <time>2019-05-22T21:15:14Z</time>
      </trkpt>
      <trkpt lat="44.20178" lon="3.35185">
        <ele>616</ele>
        <time>2019-05-22T21:15:17Z</time>
      </trkpt>
      <trkpt lat="44.20181" lon="3.35208">
        <ele>617</ele>
        <time>2019-05-22T21:15:20Z</time>
      </trkpt>
      <trkpt lat="44.20205" lon="3.35263">
        <ele>624</ele>
        <time>2019-05-22T21:15:28Z</time>
      </trkpt>
      <trkpt lat="44.20228" lon="3.35309">
        <ele>626</ele>
        <time>2019-05-22T21:15:36Z</time>
      </trkpt>
      <trkpt lat="44.20235" lon="3.35333">
        <ele>624</ele>
        <time>2019-05-22T21:15:39Z</time>
      </trkpt>
      <trkpt lat="44.20236" lon="3.35358">
        <ele>624</ele>
        <time>2019-05-22T21:15:42Z</time>
      </trkpt>
      <trkpt lat="44.20232" lon="3.35398">
        <ele>624</ele>
        <time>2019-05-22T21:15:47Z</time>
      </trkpt>
      <trkpt lat="44.20224" lon="3.35437">
        <ele>626</ele>
        <time>2019-05-22T21:15:52Z</time>
      </trkpt>
      <trkpt lat="44.20213" lon="3.35476">
        <ele>629</ele>
        <time>2019-05-22T21:15:58Z</time>
      </trkpt>
      <trkpt lat="44.20195" lon="3.35516">
        <ele>627</ele>
        <time>2019-05-22T21:16:04Z</time>
      </trkpt>
      <trkpt lat="44.20161" lon="3.35577">
        <ele>623</ele>
        <time>2019-05-22T21:16:14Z</time>
      </trkpt>
      <trkpt lat="44.20152" lon="3.35601">
        <ele>625</ele>
        <time>2019-05-22T21:16:17Z</time>
      </trkpt>
      <trkpt lat="44.20147" lon="3.35634">
        <ele>626</ele>
        <time>2019-05-22T21:16:21Z</time>
      </trkpt>
      <trkpt lat="44.20144" lon="3.35687">
        <ele>627</ele>
        <time>2019-05-22T21:16:28Z</time>
      </trkpt>
      <trkpt lat="44.20153" lon="3.35801">
        <ele>630</ele>
        <time>2019-05-22T21:16:43Z</time>
      </trkpt>
      <trkpt lat="44.2016" lon="3.3585">
        <ele>630</ele>
        <time>2019-05-22T21:16:49Z</time>
      </trkpt>
      <trkpt lat="44.20186" lon="3.35969">
        <ele>637</ele>
        <time>2019-05-22T21:17:05Z</time>
      </trkpt>
      <trkpt lat="44.20192" lon="3.36015">
        <ele>640</ele>
        <time>2019-05-22T21:17:11Z</time>
      </trkpt>
      <trkpt lat="44.20192" lon="3.36037">
        <ele>640</ele>
        <time>2019-05-22T21:17:14Z</time>
      </trkpt>
      <trkpt lat="44.20183" lon="3.361">
        <ele>636</ele>
        <time>2019-05-22T21:17:22Z</time>
      </trkpt>
      <trkpt lat="44.20186" lon="3.36128">
        <ele>639</ele>
        <time>2019-05-22T21:17:26Z</time>
      </trkpt>
      <trkpt lat="44.20203" lon="3.36204">
        <ele>646</ele>
        <time>2019-05-22T21:17:36Z</time>
      </trkpt>
      <trkpt lat="44.20204" lon="3.36239">
        <ele>645</ele>
        <time>2019-05-22T21:17:40Z</time>
      </trkpt>
      <trkpt lat="44.20202" lon="3.36278">
        <ele>645</ele>
        <time>2019-05-22T21:17:45Z</time>
      </trkpt>
      <trkpt lat="44.20195" lon="3.36323">
        <ele>643</ele>
        <time>2019-05-22T21:17:51Z</time>
      </trkpt>
      <trkpt lat="44.20195" lon="3.36363">
        <ele>643</ele>
        <time>2019-05-22T21:17:56Z</time>
      </trkpt>
      <trkpt lat="44.20202" lon="3.36464">
        <ele>645</ele>
        <time>2019-05-22T21:18:09Z</time>
      </trkpt>
      <trkpt lat="44.20201" lon="3.36579">
        <ele>649</ele>
        <time>2019-05-22T21:18:24Z</time>
      </trkpt>
      <trkpt lat="44.2018" lon="3.36801">
        <ele>652</ele>
        <time>2019-05-22T21:18:52Z</time>
      </trkpt>
      <trkpt lat="44.20161" lon="3.36873">
        <ele>653</ele>
        <time>2019-05-22T21:19:02Z</time>
      </trkpt>
      <trkpt lat="44.20131" lon="3.3695">
        <ele>654</ele>
        <time>2019-05-22T21:19:13Z</time>
      </trkpt>
      <trkpt lat="44.20126" lon="3.36975">
        <ele>654</ele>
        <time>2019-05-22T21:19:17Z</time>
      </trkpt>
      <trkpt lat="44.20117" lon="3.37047">
        <ele>658</ele>
        <time>2019-05-22T21:19:26Z</time>
      </trkpt>
      <trkpt lat="44.20107" lon="3.37082">
        <ele>657</ele>
        <time>2019-05-22T21:19:31Z</time>
      </trkpt>
      <trkpt lat="44.20097" lon="3.3711">
        <ele>653</ele>
        <time>2019-05-22T21:19:35Z</time>
      </trkpt>
      <trkpt lat="44.20088" lon="3.37144">
        <ele>651</ele>
        <time>2019-05-22T21:19:39Z</time>
      </trkpt>
      <trkpt lat="44.20083" lon="3.37177">
        <ele>651</ele>
        <time>2019-05-22T21:19:44Z</time>
      </trkpt>
      <trkpt lat="44.20082" lon="3.3721">
        <ele>655</ele>
        <time>2019-05-22T21:19:48Z</time>
      </trkpt>
      <trkpt lat="44.20078" lon="3.37243">
        <ele>658</ele>
        <time>2019-05-22T21:19:52Z</time>
      </trkpt>
      <trkpt lat="44.20072" lon="3.37277">
        <ele>663</ele>
        <time>2019-05-22T21:19:57Z</time>
      </trkpt>
      <trkpt lat="44.20062" lon="3.37308">
        <ele>665</ele>
        <time>2019-05-22T21:20:01Z</time>
      </trkpt>
      <trkpt lat="44.20047" lon="3.37338">
        <ele>663</ele>
        <time>2019-05-22T21:20:06Z</time>
      </trkpt>
      <trkpt lat="44.20035" lon="3.37367">
        <ele>662</ele>
        <time>2019-05-22T21:20:10Z</time>
      </trkpt>
      <trkpt lat="44.20021" lon="3.37405">
        <ele>661</ele>
        <time>2019-05-22T21:20:15Z</time>
      </trkpt>
      <trkpt lat="44.20008" lon="3.37474">
        <ele>660</ele>
        <time>2019-05-22T21:20:25Z</time>
      </trkpt>
      <trkpt lat="44.20006" lon="3.37502">
        <ele>661</ele>
        <time>2019-05-22T21:20:28Z</time>
      </trkpt>
      <trkpt lat="44.20008" lon="3.37617">
        <ele>664</ele>
        <time>2019-05-22T21:20:43Z</time>
      </trkpt>
      <trkpt lat="44.20005" lon="3.37713">
        <ele>663</ele>
        <time>2019-05-22T21:20:55Z</time>
      </trkpt>
      <trkpt lat="44.20008" lon="3.37811">
        <ele>666</ele>
        <time>2019-05-22T21:21:08Z</time>
      </trkpt>
      <trkpt lat="44.20005" lon="3.37858">
        <ele>666</ele>
        <time>2019-05-22T21:21:14Z</time>
      </trkpt>
      <trkpt lat="44.19992" lon="3.37954">
        <ele>668</ele>
        <time>2019-05-22T21:21:26Z</time>
      </trkpt>
      <trkpt lat="44.19988" lon="3.38006">
        <ele>669</ele>
        <time>2019-05-22T21:21:33Z</time>
      </trkpt>
      <trkpt lat="44.19988" lon="3.38056">
        <ele>670</ele>
        <time>2019-05-22T21:21:39Z</time>
      </trkpt>
      <trkpt lat="44.20004" lon="3.38241">
        <ele>671</ele>
        <time>2019-05-22T21:22:03Z</time>
      </trkpt>
      <trkpt lat="44.2001" lon="3.38347">
        <ele>671</ele>
        <time>2019-05-22T21:22:16Z</time>
      </trkpt>
      <trkpt lat="44.20008" lon="3.38398">
        <ele>670</ele>
        <time>2019-05-22T21:22:23Z</time>
      </trkpt>
      <trkpt lat="44.20002" lon="3.38448">
        <ele>671</ele>
        <time>2019-05-22T21:22:29Z</time>
      </trkpt>
      <trkpt lat="44.19994" lon="3.38497">
        <ele>675</ele>
        <time>2019-05-22T21:22:36Z</time>
      </trkpt>
      <trkpt lat="44.19981" lon="3.38543">
        <ele>679</ele>
        <time>2019-05-22T21:22:42Z</time>
      </trkpt>
      <trkpt lat="44.19965" lon="3.38589">
        <ele>680</ele>
        <time>2019-05-22T21:22:49Z</time>
      </trkpt>
      <trkpt lat="44.19931" lon="3.38672">
        <ele>677</ele>
        <time>2019-05-22T21:23:01Z</time>
      </trkpt>
      <trkpt lat="44.19892" lon="3.38804">
        <ele>686</ele>
        <time>2019-05-22T21:23:19Z</time>
      </trkpt>
      <trkpt lat="44.19879" lon="3.38838">
        <ele>688</ele>
        <time>2019-05-22T21:23:24Z</time>
      </trkpt>
      <trkpt lat="44.19862" lon="3.3887">
        <ele>687</ele>
        <time>2019-05-22T21:23:29Z</time>
      </trkpt>
      <trkpt lat="44.19814" lon="3.38934">
        <ele>679</ele>
        <time>2019-05-22T21:23:41Z</time>
      </trkpt>
      <trkpt lat="44.1978" lon="3.39005">
        <ele>684</ele>
        <time>2019-05-22T21:23:52Z</time>
      </trkpt>
      <trkpt lat="44.19751" lon="3.3905">
        <ele>680</ele>
        <time>2019-05-22T21:23:59Z</time>
      </trkpt>
      <trkpt lat="44.19728" lon="3.39077">
        <ele>680</ele>
        <time>2019-05-22T21:24:05Z</time>
      </trkpt>
      <trkpt lat="44.19701" lon="3.39104">
        <ele>679</ele>
        <time>2019-05-22T21:24:11Z</time>
      </trkpt>
      <trkpt lat="44.19657" lon="3.39151">
        <ele>677</ele>
        <time>2019-05-22T21:24:21Z</time>
      </trkpt>
      <trkpt lat="44.19627" lon="3.39189">
        <ele>679</ele>
        <time>2019-05-22T21:24:28Z</time>
      </trkpt>
      <trkpt lat="44.19604" lon="3.39228">
        <ele>680</ele>
        <time>2019-05-22T21:24:34Z</time>
      </trkpt>
      <trkpt lat="44.19594" lon="3.39252">
        <ele>679</ele>
        <time>2019-05-22T21:24:38Z</time>
      </trkpt>
      <trkpt lat="44.19587" lon="3.39279">
        <ele>679</ele>
        <time>2019-05-22T21:24:41Z</time>
      </trkpt>
      <trkpt lat="44.19583" lon="3.39317">
        <ele>681</ele>
        <time>2019-05-22T21:24:46Z</time>
      </trkpt>
      <trkpt lat="44.19585" lon="3.39404">
        <ele>683</ele>
        <time>2019-05-22T21:24:57Z</time>
      </trkpt>
      <trkpt lat="44.19597" lon="3.39512">
        <ele>688</ele>
        <time>2019-05-22T21:25:11Z</time>
      </trkpt>
      <trkpt lat="44.19596" lon="3.39544">
        <ele>688</ele>
        <time>2019-05-22T21:25:15Z</time>
      </trkpt>
      <trkpt lat="44.19589" lon="3.39579">
        <ele>685</ele>
        <time>2019-05-22T21:25:20Z</time>
      </trkpt>
      <trkpt lat="44.19575" lon="3.39622">
        <ele>686</ele>
        <time>2019-05-22T21:25:26Z</time>
      </trkpt>
      <trkpt lat="44.1956" lon="3.39649">
        <ele>687</ele>
        <time>2019-05-22T21:25:30Z</time>
      </trkpt>
      <trkpt lat="44.19472" lon="3.39774">
        <ele>685</ele>
        <time>2019-05-22T21:25:53Z</time>
      </trkpt>
      <trkpt lat="44.19461" lon="3.39798">
        <ele>687</ele>
        <time>2019-05-22T21:25:56Z</time>
      </trkpt>
      <trkpt lat="44.19457" lon="3.39822">
        <ele>690</ele>
        <time>2019-05-22T21:26:00Z</time>
      </trkpt>
      <trkpt lat="44.19457" lon="3.39852">
        <ele>692</ele>
        <time>2019-05-22T21:26:03Z</time>
      </trkpt>
      <trkpt lat="44.19468" lon="3.40031">
        <ele>697</ele>
        <time>2019-05-22T21:26:26Z</time>
      </trkpt>
      <trkpt lat="44.19468" lon="3.40056">
        <ele>700</ele>
        <time>2019-05-22T21:26:30Z</time>
      </trkpt>
      <trkpt lat="44.19463" lon="3.40076">
        <ele>700</ele>
        <time>2019-05-22T21:26:32Z</time>
      </trkpt>
      <trkpt lat="44.19455" lon="3.40093">
        <ele>698</ele>
        <time>2019-05-22T21:26:35Z</time>
      </trkpt>
      <trkpt lat="44.19397" lon="3.40174">
        <ele>687</ele>
        <time>2019-05-22T21:26:49Z</time>
      </trkpt>
      <trkpt lat="44.19375" lon="3.40211">
        <ele>690</ele>
        <time>2019-05-22T21:26:56Z</time>
      </trkpt>
      <trkpt lat="44.19364" lon="3.40238">
        <ele>690</ele>
        <time>2019-05-22T21:27:00Z</time>
      </trkpt>
      <trkpt lat="44.19356" lon="3.40271">
        <ele>691</ele>
        <time>2019-05-22T21:27:04Z</time>
      </trkpt>
      <trkpt lat="44.19352" lon="3.40305">
        <ele>693</ele>
        <time>2019-05-22T21:27:08Z</time>
      </trkpt>
      <trkpt lat="44.19351" lon="3.40365">
        <ele>696</ele>
        <time>2019-05-22T21:27:16Z</time>
      </trkpt>
      <trkpt lat="44.19357" lon="3.40444">
        <ele>700</ele>
        <time>2019-05-22T21:27:26Z</time>
      </trkpt>
      <trkpt lat="44.19356" lon="3.4049">
        <ele>699</ele>
        <time>2019-05-22T21:27:32Z</time>
      </trkpt>
      <trkpt lat="44.19359" lon="3.40528">
        <ele>701</ele>
        <time>2019-05-22T21:27:37Z</time>
      </trkpt>
      <trkpt lat="44.19363" lon="3.40562">
        <ele>703</ele>
        <time>2019-05-22T21:27:41Z</time>
      </trkpt>
      <trkpt lat="44.19365" lon="3.40627">
        <ele>703</ele>
        <time>2019-05-22T21:27:50Z</time>
      </trkpt>
      <trkpt lat="44.19363" lon="3.40653">
        <ele>701</ele>
        <time>2019-05-22T21:27:53Z</time>
      </trkpt>
      <trkpt lat="44.19354" lon="3.40701">
        <ele>698</ele>
        <time>2019-05-22T21:27:59Z</time>
      </trkpt>
      <trkpt lat="44.19344" lon="3.40717">
        <ele>693</ele>
        <time>2019-05-22T21:28:02Z</time>
      </trkpt>
      <trkpt lat="44.19304" lon="3.40768">
        <ele>693</ele>
        <time>2019-05-22T21:28:12Z</time>
      </trkpt>
      <trkpt lat="44.19276" lon="3.408">
        <ele>695</ele>
        <time>2019-05-22T21:28:18Z</time>
      </trkpt>
      <trkpt lat="44.19224" lon="3.40852">
        <ele>695</ele>
        <time>2019-05-22T21:28:29Z</time>
      </trkpt>
      <trkpt lat="44.19196" lon="3.40897">
        <ele>699</ele>
        <time>2019-05-22T21:28:37Z</time>
      </trkpt>
      <trkpt lat="44.19178" lon="3.40933">
        <ele>697</ele>
        <time>2019-05-22T21:28:43Z</time>
      </trkpt>
      <trkpt lat="44.19097" lon="3.41118">
        <ele>697</ele>
        <time>2019-05-22T21:29:10Z</time>
      </trkpt>
      <trkpt lat="44.19087" lon="3.41154">
        <ele>695</ele>
        <time>2019-05-22T21:29:15Z</time>
      </trkpt>
      <trkpt lat="44.19083" lon="3.4119">
        <ele>697</ele>
        <time>2019-05-22T21:29:20Z</time>
      </trkpt>
      <trkpt lat="44.1905" lon="3.41324">
        <ele>702</ele>
        <time>2019-05-22T21:29:38Z</time>
      </trkpt>
      <trkpt lat="44.19033" lon="3.41372">
        <ele>701</ele>
        <time>2019-05-22T21:29:45Z</time>
      </trkpt>
      <trkpt lat="44.1899" lon="3.41468">
        <ele>698</ele>
        <time>2019-05-22T21:29:59Z</time>
      </trkpt>
      <trkpt lat="44.1897" lon="3.41524">
        <ele>703</ele>
        <time>2019-05-22T21:30:07Z</time>
      </trkpt>
      <trkpt lat="44.18958" lon="3.41551">
        <ele>704</ele>
        <time>2019-05-22T21:30:11Z</time>
      </trkpt>
      <trkpt lat="44.18917" lon="3.41589">
        <ele>697</ele>
        <time>2019-05-22T21:30:20Z</time>
      </trkpt>
      <trkpt lat="44.18901" lon="3.41595">
        <ele>700</ele>
        <time>2019-05-22T21:30:23Z</time>
      </trkpt>
      <trkpt lat="44.18746" lon="3.41599">
        <ele>702</ele>
        <time>2019-05-22T21:30:51Z</time>
      </trkpt>
      <trkpt lat="44.18727" lon="3.41605">
        <ele>703</ele>
        <time>2019-05-22T21:30:54Z</time>
      </trkpt>
      <trkpt lat="44.18719" lon="3.4161">
        <ele>703</ele>
        <time>2019-05-22T21:30:56Z</time>
      </trkpt>
      <trkpt lat="44.18713" lon="3.41619">
        <ele>705</ele>
        <time>2019-05-22T21:30:57Z</time>
      </trkpt>
      <trkpt lat="44.18695" lon="3.41667">
        <ele>708</ele>
        <time>2019-05-22T21:31:04Z</time>
      </trkpt>
      <trkpt lat="44.18679" lon="3.417">
        <ele>708</ele>
        <time>2019-05-22T21:31:09Z</time>
      </trkpt>
      <trkpt lat="44.18667" lon="3.4173">
        <ele>707</ele>
        <time>2019-05-22T21:31:14Z</time>
      </trkpt>
      <trkpt lat="44.18564" lon="3.42102">
        <ele>715</ele>
        <time>2019-05-22T21:32:04Z</time>
      </trkpt>
      <trkpt lat="44.18552" lon="3.42135">
        <ele>717</ele>
        <time>2019-05-22T21:32:09Z</time>
      </trkpt>
      <trkpt lat="44.18529" lon="3.4219">
        <ele>718</ele>
        <time>2019-05-22T21:32:17Z</time>
      </trkpt>
      <trkpt lat="44.18517" lon="3.42213">
        <ele>717</ele>
        <time>2019-05-22T21:32:21Z</time>
      </trkpt>
      <trkpt lat="44.18505" lon="3.4223">
        <ele>715</ele>
        <time>2019-05-22T21:32:24Z</time>
      </trkpt>
      <trkpt lat="44.18445" lon="3.42298">
        <ele>716</ele>
        <time>2019-05-22T21:32:38Z</time>
      </trkpt>
      <trkpt lat="44.18307" lon="3.42401">
        <ele>707</ele>
        <time>2019-05-22T21:33:06Z</time>
      </trkpt>
      <trkpt lat="44.18262" lon="3.42444">
        <ele>706</ele>
        <time>2019-05-22T21:33:15Z</time>
      </trkpt>
      <trkpt lat="44.18244" lon="3.42464">
        <ele>706</ele>
        <time>2019-05-22T21:33:19Z</time>
      </trkpt>
      <trkpt lat="44.18186" lon="3.42537">
        <ele>705</ele>
        <time>2019-05-22T21:33:33Z</time>
      </trkpt>
      <trkpt lat="44.18165" lon="3.42559">
        <ele>701</ele>
        <time>2019-05-22T21:33:38Z</time>
      </trkpt>
      <trkpt lat="44.18165" lon="3.42559">
        <ele>701</ele>
        <time>2019-05-22T21:33:38Z</time>
      </trkpt>
      <trkpt lat="44.18144" lon="3.42582">
        <ele>703</ele>
        <time>2019-05-22T21:33:43Z</time>
      </trkpt>
      <trkpt lat="44.18129" lon="3.42604">
        <ele>707</ele>
        <time>2019-05-22T21:33:47Z</time>
      </trkpt>
      <trkpt lat="44.18086" lon="3.42686">
        <ele>703</ele>
        <time>2019-05-22T21:33:59Z</time>
      </trkpt>
      <trkpt lat="44.18059" lon="3.42751">
        <ele>705</ele>
        <time>2019-05-22T21:34:09Z</time>
      </trkpt>
      <trkpt lat="44.18038" lon="3.4282">
        <ele>706</ele>
        <time>2019-05-22T21:34:19Z</time>
      </trkpt>
      <trkpt lat="44.18033" lon="3.42826">
        <ele>705</ele>
        <time>2019-05-22T21:34:20Z</time>
      </trkpt>
      <trkpt lat="44.17996" lon="3.42824">
        <ele>705</ele>
        <time>2019-05-22T21:34:26Z</time>
      </trkpt>
      <trkpt lat="44.17989" lon="3.42829">
        <ele>706</ele>
        <time>2019-05-22T21:34:28Z</time>
      </trkpt>
      <trkpt lat="44.17972" lon="3.42847">
        <ele>707</ele>
        <time>2019-05-22T21:34:32Z</time>
      </trkpt>
      <trkpt lat="44.17967" lon="3.42856">
        <ele>706</ele>
        <time>2019-05-22T21:34:33Z</time>
      </trkpt>
      <trkpt lat="44.17959" lon="3.42859">
        <ele>707</ele>
        <time>2019-05-22T21:34:35Z</time>
      </trkpt>
      <trkpt lat="44.17931" lon="3.42882">
        <ele>708</ele>
        <time>2019-05-22T21:34:40Z</time>
      </trkpt>
      <trkpt lat="44.17914" lon="3.42886">
        <ele>709</ele>
        <time>2019-05-22T21:34:43Z</time>
      </trkpt>
      <trkpt lat="44.17897" lon="3.42888">
        <ele>708</ele>
        <time>2019-05-22T21:34:46Z</time>
      </trkpt>
      <trkpt lat="44.17886" lon="3.42887">
        <ele>708</ele>
        <time>2019-05-22T21:34:48Z</time>
      </trkpt>
      <trkpt lat="44.17856" lon="3.42867">
        <ele>710</ele>
        <time>2019-05-22T21:34:54Z</time>
      </trkpt>
      <trkpt lat="44.17855" lon="3.42857">
        <ele>711</ele>
        <time>2019-05-22T21:34:56Z</time>
      </trkpt>
      <trkpt lat="44.17832" lon="3.42841">
        <ele>711</ele>
        <time>2019-05-22T21:35:00Z</time>
      </trkpt>
      <trkpt lat="44.17813" lon="3.42839">
        <ele>711</ele>
        <time>2019-05-22T21:35:04Z</time>
      </trkpt>
      <trkpt lat="44.1779" lon="3.42826">
        <ele>712</ele>
        <time>2019-05-22T21:35:08Z</time>
      </trkpt>
      <trkpt lat="44.17779" lon="3.42832">
        <ele>710</ele>
        <time>2019-05-22T21:35:10Z</time>
      </trkpt>
      <trkpt lat="44.17776" lon="3.42837">
        <ele>710</ele>
        <time>2019-05-22T21:35:11Z</time>
      </trkpt>
      <trkpt lat="44.17769" lon="3.42836">
        <ele>710</ele>
        <time>2019-05-22T21:35:12Z</time>
      </trkpt>
      <trkpt lat="44.17745" lon="3.42838">
        <ele>709</ele>
        <time>2019-05-22T21:35:16Z</time>
      </trkpt>
      <trkpt lat="44.17725" lon="3.42843">
        <ele>709</ele>
        <time>2019-05-22T21:35:20Z</time>
      </trkpt>
      <trkpt lat="44.17702" lon="3.42854">
        <ele>709</ele>
        <time>2019-05-22T21:35:24Z</time>
      </trkpt>
      <trkpt lat="44.17661" lon="3.42884">
        <ele>709</ele>
        <time>2019-05-22T21:35:33Z</time>
      </trkpt>
      <trkpt lat="44.1762" lon="3.42905">
        <ele>711</ele>
        <time>2019-05-22T21:35:40Z</time>
      </trkpt>
      <trkpt lat="44.17417" lon="3.42955">
        <ele>718</ele>
        <time>2019-05-22T21:36:17Z</time>
      </trkpt>
      <trkpt lat="44.17401" lon="3.42964">
        <ele>718</ele>
        <time>2019-05-22T21:36:20Z</time>
      </trkpt>
      <trkpt lat="44.174" lon="3.42959">
        <ele>719</ele>
        <time>2019-05-22T21:36:21Z</time>
      </trkpt>
      <trkpt lat="44.17394" lon="3.42952">
        <ele>720</ele>
        <time>2019-05-22T21:36:22Z</time>
      </trkpt>
      <trkpt lat="44.17389" lon="3.42951">
        <ele>721</ele>
        <time>2019-05-22T21:36:23Z</time>
      </trkpt>
      <trkpt lat="44.1739" lon="3.42938">
        <ele>723</ele>
        <time>2019-05-22T21:36:25Z</time>
      </trkpt>
      <trkpt lat="44.17396" lon="3.42934">
        <ele>723</ele>
        <time>2019-05-22T21:36:26Z</time>
      </trkpt>
      <trkpt lat="44.17419" lon="3.42934">
        <ele>721</ele>
        <time>2019-05-22T21:36:30Z</time>
      </trkpt>
      <trkpt lat="44.17461" lon="3.42916">
        <ele>724</ele>
        <time>2019-05-22T21:36:38Z</time>
      </trkpt>
      <trkpt lat="44.17537" lon="3.4289">
        <ele>724</ele>
        <time>2019-05-22T21:36:52Z</time>
      </trkpt>
      <trkpt lat="44.17556" lon="3.42878">
        <ele>723</ele>
        <time>2019-05-22T21:36:55Z</time>
      </trkpt>
      <trkpt lat="44.17568" lon="3.42866">
        <ele>723</ele>
        <time>2019-05-22T21:36:58Z</time>
      </trkpt>
      <trkpt lat="44.17573" lon="3.4285">
        <ele>725</ele>
        <time>2019-05-22T21:37:00Z</time>
      </trkpt>
      <trkpt lat="44.17571" lon="3.42809">
        <ele>732</ele>
        <time>2019-05-22T21:37:06Z</time>
      </trkpt>
      <trkpt lat="44.17581" lon="3.42768">
        <ele>735</ele>
        <time>2019-05-22T21:37:11Z</time>
      </trkpt>
      <trkpt lat="44.17594" lon="3.42753">
        <ele>736</ele>
        <time>2019-05-22T21:37:14Z</time>
      </trkpt>
      <trkpt lat="44.17641" lon="3.42734">
        <ele>740</ele>
        <time>2019-05-22T21:37:23Z</time>
      </trkpt>
      <trkpt lat="44.17675" lon="3.42724">
        <ele>742</ele>
        <time>2019-05-22T21:37:29Z</time>
      </trkpt>
      <trkpt lat="44.17743" lon="3.4272">
        <ele>740</ele>
        <time>2019-05-22T21:37:41Z</time>
      </trkpt>
      <trkpt lat="44.17753" lon="3.42717">
        <ele>741</ele>
        <time>2019-05-22T21:37:43Z</time>
      </trkpt>
      <trkpt lat="44.17774" lon="3.42697">
        <ele>745</ele>
        <time>2019-05-22T21:37:47Z</time>
      </trkpt>
      <trkpt lat="44.17807" lon="3.42631">
        <ele>758</ele>
        <time>2019-05-22T21:37:58Z</time>
      </trkpt>
      <trkpt lat="44.17817" lon="3.42626">
        <ele>758</ele>
        <time>2019-05-22T21:38:00Z</time>
      </trkpt>
      <trkpt lat="44.17848" lon="3.42636">
        <ele>755</ele>
        <time>2019-05-22T21:38:05Z</time>
      </trkpt>
      <trkpt lat="44.17859" lon="3.42644">
        <ele>755</ele>
        <time>2019-05-22T21:38:07Z</time>
      </trkpt>
      <trkpt lat="44.17867" lon="3.42661">
        <ele>753</ele>
        <time>2019-05-22T21:38:10Z</time>
      </trkpt>
      <trkpt lat="44.17875" lon="3.42691">
        <ele>749</ele>
        <time>2019-05-22T21:38:14Z</time>
      </trkpt>
      <trkpt lat="44.17888" lon="3.42702">
        <ele>750</ele>
        <time>2019-05-22T21:38:17Z</time>
      </trkpt>
      <trkpt lat="44.17909" lon="3.42694">
        <ele>754</ele>
        <time>2019-05-22T21:38:21Z</time>
      </trkpt>
      <trkpt lat="44.17921" lon="3.42687">
        <ele>754</ele>
        <time>2019-05-22T21:38:23Z</time>
      </trkpt>
      <trkpt lat="44.17927" lon="3.42681">
        <ele>753</ele>
        <time>2019-05-22T21:38:24Z</time>
      </trkpt>
      <trkpt lat="44.17935" lon="3.42663">
        <ele>754</ele>
        <time>2019-05-22T21:38:27Z</time>
      </trkpt>
      <trkpt lat="44.1794" lon="3.42643">
        <ele>756</ele>
        <time>2019-05-22T21:38:30Z</time>
      </trkpt>
      <trkpt lat="44.1794" lon="3.42628">
        <ele>758</ele>
        <time>2019-05-22T21:38:32Z</time>
      </trkpt>
      <trkpt lat="44.17935" lon="3.42614">
        <ele>761</ele>
        <time>2019-05-22T21:38:34Z</time>
      </trkpt>
      <trkpt lat="44.17926" lon="3.42607">
        <ele>764</ele>
        <time>2019-05-22T21:38:36Z</time>
      </trkpt>
      <trkpt lat="44.17919" lon="3.42606">
        <ele>766</ele>
        <time>2019-05-22T21:38:37Z</time>
      </trkpt>
      <trkpt lat="44.17899" lon="3.42609">
        <ele>764</ele>
        <time>2019-05-22T21:38:40Z</time>
      </trkpt>
      <trkpt lat="44.17887" lon="3.42607">
        <ele>764</ele>
        <time>2019-05-22T21:38:42Z</time>
      </trkpt>
      <trkpt lat="44.17856" lon="3.42592">
        <ele>765</ele>
        <time>2019-05-22T21:38:48Z</time>
      </trkpt>
      <trkpt lat="44.17831" lon="3.42567">
        <ele>771</ele>
        <time>2019-05-22T21:38:54Z</time>
      </trkpt>
      <trkpt lat="44.17822" lon="3.42561">
        <ele>774</ele>
        <time>2019-05-22T21:38:56Z</time>
      </trkpt>
      <trkpt lat="44.17815" lon="3.42559">
        <ele>775</ele>
        <time>2019-05-22T21:38:57Z</time>
      </trkpt>
      <trkpt lat="44.17805" lon="3.42563">
        <ele>776</ele>
        <time>2019-05-22T21:38:59Z</time>
      </trkpt>
      <trkpt lat="44.17788" lon="3.42582">
        <ele>773</ele>
        <time>2019-05-22T21:39:03Z</time>
      </trkpt>
      <trkpt lat="44.1771" lon="3.42611">
        <ele>776</ele>
        <time>2019-05-22T21:39:17Z</time>
      </trkpt>
      <trkpt lat="44.17668" lon="3.42615">
        <ele>779</ele>
        <time>2019-05-22T21:39:24Z</time>
      </trkpt>
      <trkpt lat="44.17662" lon="3.42611">
        <ele>781</ele>
        <time>2019-05-22T21:39:26Z</time>
      </trkpt>
      <trkpt lat="44.17662" lon="3.42605">
        <ele>783</ele>
        <time>2019-05-22T21:39:26Z</time>
      </trkpt>
      <trkpt lat="44.17665" lon="3.42602">
        <ele>784</ele>
        <time>2019-05-22T21:39:27Z</time>
      </trkpt>
      <trkpt lat="44.1768" lon="3.42601">
        <ele>783</ele>
        <time>2019-05-22T21:39:30Z</time>
      </trkpt>
      <trkpt lat="44.17698" lon="3.42595">
        <ele>783</ele>
        <time>2019-05-22T21:39:33Z</time>
      </trkpt>
      <trkpt lat="44.17745" lon="3.42546">
        <ele>792</ele>
        <time>2019-05-22T21:39:43Z</time>
      </trkpt>
      <trkpt lat="44.17819" lon="3.42443">
        <ele>807</ele>
        <time>2019-05-22T21:40:02Z</time>
      </trkpt>
      <trkpt lat="44.17832" lon="3.42428">
        <ele>808</ele>
        <time>2019-05-22T21:40:05Z</time>
      </trkpt>
      <trkpt lat="44.17839" lon="3.42427">
        <ele>808</ele>
        <time>2019-05-22T21:40:06Z</time>
      </trkpt>
      <trkpt lat="44.17878" lon="3.42463">
        <ele>799</ele>
        <time>2019-05-22T21:40:15Z</time>
      </trkpt>
      <trkpt lat="44.17891" lon="3.42468">
        <ele>798</ele>
        <time>2019-05-22T21:40:17Z</time>
      </trkpt>
      <trkpt lat="44.1791" lon="3.42466">
        <ele>799</ele>
        <time>2019-05-22T21:40:20Z</time>
      </trkpt>
      <trkpt lat="44.17923" lon="3.42457">
        <ele>800</ele>
        <time>2019-05-22T21:40:23Z</time>
      </trkpt>
      <trkpt lat="44.17934" lon="3.42447">
        <ele>799</ele>
        <time>2019-05-22T21:40:25Z</time>
      </trkpt>
      <trkpt lat="44.17943" lon="3.42429">
        <ele>801</ele>
        <time>2019-05-22T21:40:28Z</time>
      </trkpt>
      <trkpt lat="44.17978" lon="3.42301">
        <ele>827</ele>
        <time>2019-05-22T21:40:46Z</time>
      </trkpt>
      <trkpt lat="44.18006" lon="3.42239">
        <ele>837</ele>
        <time>2019-05-22T21:40:55Z</time>
      </trkpt>
      <trkpt lat="44.18023" lon="3.42241">
        <ele>835</ele>
        <time>2019-05-22T21:40:58Z</time>
      </trkpt>
      <trkpt lat="44.18053" lon="3.42276">
        <ele>822</ele>
        <time>2019-05-22T21:41:05Z</time>
      </trkpt>
      <trkpt lat="44.18067" lon="3.4228">
        <ele>819</ele>
        <time>2019-05-22T21:41:08Z</time>
      </trkpt>
      <trkpt lat="44.1808" lon="3.42271">
        <ele>821</ele>
        <time>2019-05-22T21:41:10Z</time>
      </trkpt>
      <trkpt lat="44.18112" lon="3.42233">
        <ele>827</ele>
        <time>2019-05-22T21:41:18Z</time>
      </trkpt>
      <trkpt lat="44.18182" lon="3.42198">
        <ele>823</ele>
        <time>2019-05-22T21:41:31Z</time>
      </trkpt>
      <trkpt lat="44.18195" lon="3.42174">
        <ele>827</ele>
        <time>2019-05-22T21:41:35Z</time>
      </trkpt>
      <trkpt lat="44.18243" lon="3.4199">
        <ele>849</ele>
        <time>2019-05-22T21:42:00Z</time>
      </trkpt>
      <trkpt lat="44.18292" lon="3.41925">
        <ele>847</ele>
        <time>2019-05-22T21:42:12Z</time>
      </trkpt>
      <trkpt lat="44.18304" lon="3.41867">
        <ele>851</ele>
        <time>2019-05-22T21:42:19Z</time>
      </trkpt>
      <trkpt lat="44.18307" lon="3.41762">
        <ele>861</ele>
        <time>2019-05-22T21:42:33Z</time>
      </trkpt>
      <trkpt lat="44.18339" lon="3.41654">
        <ele>865</ele>
        <time>2019-05-22T21:42:48Z</time>
      </trkpt>
      <trkpt lat="44.18362" lon="3.4161">
        <ele>866</ele>
        <time>2019-05-22T21:42:55Z</time>
      </trkpt>
      <trkpt lat="44.18386" lon="3.41531">
        <ele>867</ele>
        <time>2019-05-22T21:43:06Z</time>
      </trkpt>
      <trkpt lat="44.1838" lon="3.4135">
        <ele>879</ele>
        <time>2019-05-22T21:43:29Z</time>
      </trkpt>
      <trkpt lat="44.18362" lon="3.41288">
        <ele>883</ele>
        <time>2019-05-22T21:43:37Z</time>
      </trkpt>
      <trkpt lat="44.18286" lon="3.41207">
        <ele>891</ele>
        <time>2019-05-22T21:43:54Z</time>
      </trkpt>
      <trkpt lat="44.18265" lon="3.41196">
        <ele>893</ele>
        <time>2019-05-22T21:43:58Z</time>
      </trkpt>
      <trkpt lat="44.18241" lon="3.41195">
        <ele>897</ele>
        <time>2019-05-22T21:44:03Z</time>
      </trkpt>
      <trkpt lat="44.18187" lon="3.41217">
        <ele>908</ele>
        <time>2019-05-22T21:44:13Z</time>
      </trkpt>
      <trkpt lat="44.18168" lon="3.41211">
        <ele>910</ele>
        <time>2019-05-22T21:44:16Z</time>
      </trkpt>
      <trkpt lat="44.18158" lon="3.41186">
        <ele>910</ele>
        <time>2019-05-22T21:44:20Z</time>
      </trkpt>
      <trkpt lat="44.18142" lon="3.41154">
        <ele>913</ele>
        <time>2019-05-22T21:44:25Z</time>
      </trkpt>
      <trkpt lat="44.18142" lon="3.41106">
        <ele>913</ele>
        <time>2019-05-22T21:44:31Z</time>
      </trkpt>
      <trkpt lat="44.18119" lon="3.4106">
        <ele>921</ele>
        <time>2019-05-22T21:44:38Z</time>
      </trkpt>
      <trkpt lat="44.1812" lon="3.41036">
        <ele>922</ele>
        <time>2019-05-22T21:44:41Z</time>
      </trkpt>
      <trkpt lat="44.18135" lon="3.41011">
        <ele>921</ele>
        <time>2019-05-22T21:44:45Z</time>
      </trkpt>
      <trkpt lat="44.18168" lon="3.40991">
        <ele>919</ele>
        <time>2019-05-22T21:44:52Z</time>
      </trkpt>
      <trkpt lat="44.18185" lon="3.4099">
        <ele>916</ele>
        <time>2019-05-22T21:44:55Z</time>
      </trkpt>
      <trkpt lat="44.18193" lon="3.40965">
        <ele>916</ele>
        <time>2019-05-22T21:44:58Z</time>
      </trkpt>
      <trkpt lat="44.18181" lon="3.40899">
        <ele>922</ele>
        <time>2019-05-22T21:45:07Z</time>
      </trkpt>
      <trkpt lat="44.18158" lon="3.40872">
        <ele>925</ele>
        <time>2019-05-22T21:45:12Z</time>
      </trkpt>
      <trkpt lat="44.18114" lon="3.40862">
        <ele>927</ele>
        <time>2019-05-22T21:45:20Z</time>
      </trkpt>
      <trkpt lat="44.18068" lon="3.40838">
        <ele>929</ele>
        <time>2019-05-22T21:45:29Z</time>
      </trkpt>
      <trkpt lat="44.17982" lon="3.40828">
        <ele>931</ele>
        <time>2019-05-22T21:45:44Z</time>
      </trkpt>
      <trkpt lat="44.17939" lon="3.40787">
        <ele>930</ele>
        <time>2019-05-22T21:45:53Z</time>
      </trkpt>
      <trkpt lat="44.17869" lon="3.4065">
        <ele>927</ele>
        <time>2019-05-22T21:46:15Z</time>
      </trkpt>
      <trkpt lat="44.17835" lon="3.40577">
        <ele>930</ele>
        <time>2019-05-22T21:46:26Z</time>
      </trkpt>
      <trkpt lat="44.17795" lon="3.405">
        <ele>931</ele>
        <time>2019-05-22T21:46:38Z</time>
      </trkpt>
      <trkpt lat="44.17773" lon="3.40452">
        <ele>932</ele>
        <time>2019-05-22T21:46:45Z</time>
      </trkpt>
      <trkpt lat="44.1777" lon="3.40422">
        <ele>932</ele>
        <time>2019-05-22T21:46:49Z</time>
      </trkpt>
      <trkpt lat="44.17786" lon="3.40279">
        <ele>940</ele>
        <time>2019-05-22T21:47:08Z</time>
      </trkpt>
      <trkpt lat="44.17785" lon="3.40239">
        <ele>943</ele>
        <time>2019-05-22T21:47:13Z</time>
      </trkpt>
      <trkpt lat="44.17776" lon="3.40203">
        <ele>944</ele>
        <time>2019-05-22T21:47:18Z</time>
      </trkpt>
      <trkpt lat="44.17756" lon="3.40158">
        <ele>943</ele>
        <time>2019-05-22T21:47:24Z</time>
      </trkpt>
      <trkpt lat="44.17738" lon="3.40094">
        <ele>944</ele>
        <time>2019-05-22T21:47:33Z</time>
      </trkpt>
      <trkpt lat="44.17726" lon="3.40035">
        <ele>944</ele>
        <time>2019-05-22T21:47:41Z</time>
      </trkpt>
      <trkpt lat="44.17725" lon="3.40006">
        <ele>945</ele>
        <time>2019-05-22T21:47:45Z</time>
      </trkpt>
      <trkpt lat="44.1773" lon="3.39982">
        <ele>946</ele>
        <time>2019-05-22T21:47:48Z</time>
      </trkpt>
      <trkpt lat="44.17741" lon="3.39956">
        <ele>949</ele>
        <time>2019-05-22T21:47:52Z</time>
      </trkpt>
      <trkpt lat="44.1775" lon="3.3993">
        <ele>951</ele>
        <time>2019-05-22T21:47:55Z</time>
      </trkpt>
      <trkpt lat="44.17754" lon="3.39869">
        <ele>951</ele>
        <time>2019-05-22T21:48:03Z</time>
      </trkpt>
      <trkpt lat="44.1777" lon="3.39817">
        <ele>952</ele>
        <time>2019-05-22T21:48:10Z</time>
      </trkpt>
      <trkpt lat="44.17791" lon="3.3976">
        <ele>954</ele>
        <time>2019-05-22T21:48:19Z</time>
      </trkpt>
      <trkpt lat="44.17804" lon="3.39714">
        <ele>955</ele>
        <time>2019-05-22T21:48:25Z</time>
      </trkpt>
      <trkpt lat="44.17807" lon="3.39678">
        <ele>956</ele>
        <time>2019-05-22T21:48:30Z</time>
      </trkpt>
      <trkpt lat="44.17809" lon="3.39631">
        <ele>957</ele>
        <time>2019-05-22T21:48:36Z</time>
      </trkpt>
      <trkpt lat="44.17827" lon="3.39571">
        <ele>959</ele>
        <time>2019-05-22T21:48:44Z</time>
      </trkpt>
      <trkpt lat="44.17834" lon="3.39535">
        <ele>959</ele>
        <time>2019-05-22T21:48:49Z</time>
      </trkpt>
      <trkpt lat="44.17839" lon="3.39474">
        <ele>960</ele>
        <time>2019-05-22T21:48:56Z</time>
      </trkpt>
      <trkpt lat="44.17837" lon="3.39438">
        <ele>961</ele>
        <time>2019-05-22T21:49:01Z</time>
      </trkpt>
      <trkpt lat="44.1783" lon="3.39405">
        <ele>962</ele>
        <time>2019-05-22T21:49:05Z</time>
      </trkpt>
      <trkpt lat="44.17824" lon="3.39355">
        <ele>964</ele>
        <time>2019-05-22T21:49:12Z</time>
      </trkpt>
      <trkpt lat="44.17827" lon="3.39307">
        <ele>964</ele>
        <time>2019-05-22T21:49:18Z</time>
      </trkpt>
      <trkpt lat="44.17841" lon="3.39194">
        <ele>965</ele>
        <time>2019-05-22T21:49:33Z</time>
      </trkpt>
      <trkpt lat="44.17851" lon="3.39162">
        <ele>965</ele>
        <time>2019-05-22T21:49:37Z</time>
      </trkpt>
      <trkpt lat="44.1787" lon="3.39126">
        <ele>965</ele>
        <time>2019-05-22T21:49:43Z</time>
      </trkpt>
      <trkpt lat="44.17892" lon="3.39069">
        <ele>965</ele>
        <time>2019-05-22T21:49:51Z</time>
      </trkpt>
      <trkpt lat="44.17895" lon="3.3904">
        <ele>965</ele>
        <time>2019-05-22T21:49:55Z</time>
      </trkpt>
      <trkpt lat="44.17893" lon="3.38965">
        <ele>966</ele>
        <time>2019-05-22T21:50:04Z</time>
      </trkpt>
      <trkpt lat="44.179" lon="3.38926">
        <ele>966</ele>
        <time>2019-05-22T21:50:10Z</time>
      </trkpt>
      <trkpt lat="44.1792" lon="3.38876">
        <ele>964</ele>
        <time>2019-05-22T21:50:17Z</time>
      </trkpt>
      <trkpt lat="44.18032" lon="3.38698">
        <ele>965</ele>
        <time>2019-05-22T21:50:47Z</time>
      </trkpt>
      <trkpt lat="44.18062" lon="3.38664">
        <ele>964</ele>
        <time>2019-05-22T21:50:54Z</time>
      </trkpt>
      <trkpt lat="44.18097" lon="3.3865">
        <ele>966</ele>
        <time>2019-05-22T21:51:00Z</time>
      </trkpt>
      <trkpt lat="44.18131" lon="3.38651">
        <ele>967</ele>
        <time>2019-05-22T21:51:07Z</time>
      </trkpt>
      <trkpt lat="44.18153" lon="3.38643">
        <ele>967</ele>
        <time>2019-05-22T21:51:11Z</time>
      </trkpt>
      <trkpt lat="44.18199" lon="3.38604">
        <ele>966</ele>
        <time>2019-05-22T21:51:20Z</time>
      </trkpt>
      <trkpt lat="44.18214" lon="3.38588">
        <ele>965</ele>
        <time>2019-05-22T21:51:24Z</time>
      </trkpt>
      <trkpt lat="44.18224" lon="3.38566">
        <ele>965</ele>
        <time>2019-05-22T21:51:27Z</time>
      </trkpt>
      <trkpt lat="44.18233" lon="3.38521">
        <ele>965</ele>
        <time>2019-05-22T21:51:33Z</time>
      </trkpt>
      <trkpt lat="44.18245" lon="3.3842">
        <ele>964</ele>
        <time>2019-05-22T21:51:46Z</time>
      </trkpt>
      <trkpt lat="44.18255" lon="3.38376">
        <ele>965</ele>
        <time>2019-05-22T21:51:52Z</time>
      </trkpt>
      <trkpt lat="44.18275" lon="3.38334">
        <ele>963</ele>
        <time>2019-05-22T21:51:58Z</time>
      </trkpt>
      <trkpt lat="44.1828" lon="3.38309">
        <ele>963</ele>
        <time>2019-05-22T21:52:01Z</time>
      </trkpt>
      <trkpt lat="44.18279" lon="3.38282">
        <ele>963</ele>
        <time>2019-05-22T21:52:05Z</time>
      </trkpt>
      <trkpt lat="44.18275" lon="3.38248">
        <ele>964</ele>
        <time>2019-05-22T21:52:09Z</time>
      </trkpt>
      <trkpt lat="44.18279" lon="3.38214">
        <ele>963</ele>
        <time>2019-05-22T21:52:14Z</time>
      </trkpt>
      <trkpt lat="44.18287" lon="3.38176">
        <ele>961</ele>
        <time>2019-05-22T21:52:19Z</time>
      </trkpt>
      <trkpt lat="44.18289" lon="3.38145">
        <ele>959</ele>
        <time>2019-05-22T21:52:23Z</time>
      </trkpt>
      <trkpt lat="44.18287" lon="3.38117">
        <ele>958</ele>
        <time>2019-05-22T21:52:26Z</time>
      </trkpt>
      <trkpt lat="44.18287" lon="3.38091">
        <ele>957</ele>
        <time>2019-05-22T21:52:30Z</time>
      </trkpt>
      <trkpt lat="44.18295" lon="3.3804">
        <ele>955</ele>
        <time>2019-05-22T21:52:36Z</time>
      </trkpt>
      <trkpt lat="44.18303" lon="3.38013">
        <ele>954</ele>
        <time>2019-05-22T21:52:40Z</time>
      </trkpt>
      <trkpt lat="44.1832" lon="3.37985">
        <ele>950</ele>
        <time>2019-05-22T21:52:45Z</time>
      </trkpt>
      <trkpt lat="44.18325" lon="3.37969">
        <ele>949</ele>
        <time>2019-05-22T21:52:47Z</time>
      </trkpt>
      <trkpt lat="44.18326" lon="3.37953">
        <ele>949</ele>
        <time>2019-05-22T21:52:49Z</time>
      </trkpt>
      <trkpt lat="44.1832" lon="3.3789">
        <ele>949</ele>
        <time>2019-05-22T21:52:57Z</time>
      </trkpt>
      <trkpt lat="44.1832" lon="3.37864">
        <ele>948</ele>
        <time>2019-05-22T21:53:00Z</time>
      </trkpt>
      <trkpt lat="44.18329" lon="3.37819">
        <ele>945</ele>
        <time>2019-05-22T21:53:06Z</time>
      </trkpt>
      <trkpt lat="44.18331" lon="3.37802">
        <ele>945</ele>
        <time>2019-05-22T21:53:09Z</time>
      </trkpt>
      <trkpt lat="44.18327" lon="3.37784">
        <ele>945</ele>
        <time>2019-05-22T21:53:11Z</time>
      </trkpt>
      <trkpt lat="44.18317" lon="3.37758">
        <ele>945</ele>
        <time>2019-05-22T21:53:15Z</time>
      </trkpt>
      <trkpt lat="44.18314" lon="3.3774">
        <ele>945</ele>
        <time>2019-05-22T21:53:17Z</time>
      </trkpt>
      <trkpt lat="44.18316" lon="3.37716">
        <ele>943</ele>
        <time>2019-05-22T21:53:20Z</time>
      </trkpt>
      <trkpt lat="44.18308" lon="3.37672">
        <ele>942</ele>
        <time>2019-05-22T21:53:26Z</time>
      </trkpt>
      <trkpt lat="44.18304" lon="3.37637">
        <ele>942</ele>
        <time>2019-05-22T21:53:31Z</time>
      </trkpt>
      <trkpt lat="44.18299" lon="3.37615">
        <ele>942</ele>
        <time>2019-05-22T21:53:33Z</time>
      </trkpt>
      <trkpt lat="44.18291" lon="3.37595">
        <ele>942</ele>
        <time>2019-05-22T21:53:36Z</time>
      </trkpt>
      <trkpt lat="44.18275" lon="3.37581">
        <ele>943</ele>
        <time>2019-05-22T21:53:40Z</time>
      </trkpt>
      <trkpt lat="44.18227" lon="3.37551">
        <ele>944</ele>
        <time>2019-05-22T21:53:49Z</time>
      </trkpt>
      <trkpt lat="44.18209" lon="3.37528">
        <ele>943</ele>
        <time>2019-05-22T21:53:53Z</time>
      </trkpt>
      <trkpt lat="44.18199" lon="3.37502">
        <ele>942</ele>
        <time>2019-05-22T21:53:57Z</time>
      </trkpt>
      <trkpt lat="44.18192" lon="3.3747">
        <ele>942</ele>
        <time>2019-05-22T21:54:01Z</time>
      </trkpt>
      <trkpt lat="44.18189" lon="3.37434">
        <ele>941</ele>
        <time>2019-05-22T21:54:06Z</time>
      </trkpt>
      <trkpt lat="44.18189" lon="3.37273">
        <ele>937</ele>
        <time>2019-05-22T21:54:27Z</time>
      </trkpt>
      <trkpt lat="44.18185" lon="3.37248">
        <ele>937</ele>
        <time>2019-05-22T21:54:30Z</time>
      </trkpt>
      <trkpt lat="44.18177" lon="3.37226">
        <ele>936</ele>
        <time>2019-05-22T21:54:33Z</time>
      </trkpt>
      <trkpt lat="44.1816" lon="3.37197">
        <ele>934</ele>
        <time>2019-05-22T21:54:38Z</time>
      </trkpt>
      <trkpt lat="44.18147" lon="3.37165">
        <ele>933</ele>
        <time>2019-05-22T21:54:43Z</time>
      </trkpt>
      <trkpt lat="44.18141" lon="3.37133">
        <ele>933</ele>
        <time>2019-05-22T21:54:47Z</time>
      </trkpt>
      <trkpt lat="44.18135" lon="3.37079">
        <ele>933</ele>
        <time>2019-05-22T21:54:54Z</time>
      </trkpt>
      <trkpt lat="44.18114" lon="3.37004">
        <ele>931</ele>
        <time>2019-05-22T21:55:04Z</time>
      </trkpt>
      <trkpt lat="44.18077" lon="3.3682">
        <ele>930</ele>
        <time>2019-05-22T21:55:28Z</time>
      </trkpt>
      <trkpt lat="44.18058" lon="3.36687">
        <ele>930</ele>
        <time>2019-05-22T21:55:46Z</time>
      </trkpt>
      <trkpt lat="44.18055" lon="3.36638">
        <ele>929</ele>
        <time>2019-05-22T21:55:52Z</time>
      </trkpt>
      <trkpt lat="44.1806" lon="3.36534">
        <ele>928</ele>
        <time>2019-05-22T21:56:05Z</time>
      </trkpt>
      <trkpt lat="44.18056" lon="3.365">
        <ele>928</ele>
        <time>2019-05-22T21:56:10Z</time>
      </trkpt>
      <trkpt lat="44.18042" lon="3.36455">
        <ele>928</ele>
        <time>2019-05-22T21:56:16Z</time>
      </trkpt>
      <trkpt lat="44.18007" lon="3.3637">
        <ele>925</ele>
        <time>2019-05-22T21:56:28Z</time>
      </trkpt>
      <trkpt lat="44.18002" lon="3.36342">
        <ele>925</ele>
        <time>2019-05-22T21:56:32Z</time>
      </trkpt>
      <trkpt lat="44.17997" lon="3.36301">
        <ele>925</ele>
        <time>2019-05-22T21:56:37Z</time>
      </trkpt>
      <trkpt lat="44.17998" lon="3.3628">
        <ele>926</ele>
        <time>2019-05-22T21:56:40Z</time>
      </trkpt>
      <trkpt lat="44.18011" lon="3.36251">
        <ele>927</ele>
        <time>2019-05-22T21:56:44Z</time>
      </trkpt>
      <trkpt lat="44.18077" lon="3.36133">
        <ele>925</ele>
        <time>2019-05-22T21:57:04Z</time>
      </trkpt>
      <trkpt lat="44.18121" lon="3.3608">
        <ele>924</ele>
        <time>2019-05-22T21:57:14Z</time>
      </trkpt>
      <trkpt lat="44.18254" lon="3.35921">
        <ele>917</ele>
        <time>2019-05-22T21:57:45Z</time>
      </trkpt>
      <trkpt lat="44.1839" lon="3.35774">
        <ele>912</ele>
        <time>2019-05-22T21:58:16Z</time>
      </trkpt>
      <trkpt lat="44.18557" lon="3.35597">
        <ele>909</ele>
        <time>2019-05-22T21:58:53Z</time>
      </trkpt>
      <trkpt lat="44.186" lon="3.35548">
        <ele>909</ele>
        <time>2019-05-22T21:59:03Z</time>
      </trkpt>
      <trkpt lat="44.1861" lon="3.3553">
        <ele>910</ele>
        <time>2019-05-22T21:59:06Z</time>
      </trkpt>
      <trkpt lat="44.18623" lon="3.35496">
        <ele>910</ele>
        <time>2019-05-22T21:59:11Z</time>
      </trkpt>
      <trkpt lat="44.18657" lon="3.35372">
        <ele>908</ele>
        <time>2019-05-22T21:59:28Z</time>
      </trkpt>
      <trkpt lat="44.18663" lon="3.35356">
        <ele>908</ele>
        <time>2019-05-22T21:59:30Z</time>
      </trkpt>
      <trkpt lat="44.18683" lon="3.35326">
        <ele>908</ele>
        <time>2019-05-22T21:59:35Z</time>
      </trkpt>
      <trkpt lat="44.18701" lon="3.35304">
        <ele>908</ele>
        <time>2019-05-22T21:59:39Z</time>
      </trkpt>
      <trkpt lat="44.1872" lon="3.35291">
        <ele>908</ele>
        <time>2019-05-22T21:59:43Z</time>
      </trkpt>
      <trkpt lat="44.18758" lon="3.35271">
        <ele>909</ele>
        <time>2019-05-22T21:59:50Z</time>
      </trkpt>
      <trkpt lat="44.18788" lon="3.35245">
        <ele>910</ele>
        <time>2019-05-22T21:59:57Z</time>
      </trkpt>
      <trkpt lat="44.18821" lon="3.35208">
        <ele>911</ele>
        <time>2019-05-22T22:00:04Z</time>
      </trkpt>
      <trkpt lat="44.18826" lon="3.3519">
        <ele>911</ele>
        <time>2019-05-22T22:00:07Z</time>
      </trkpt>
      <trkpt lat="44.18843" lon="3.35097">
        <ele>907</ele>
        <time>2019-05-22T22:00:19Z</time>
      </trkpt>
      <trkpt lat="44.18865" lon="3.34833">
        <ele>904</ele>
        <time>2019-05-22T22:00:53Z</time>
      </trkpt>
      <trkpt lat="44.18874" lon="3.34739">
        <ele>904</ele>
        <time>2019-05-22T22:01:05Z</time>
      </trkpt>
      <trkpt lat="44.18873" lon="3.3472">
        <ele>904</ele>
        <time>2019-05-22T22:01:07Z</time>
      </trkpt>
      <trkpt lat="44.18817" lon="3.34402">
        <ele>898</ele>
        <time>2019-05-22T22:01:49Z</time>
      </trkpt>
      <trkpt lat="44.18808" lon="3.34359">
        <ele>896</ele>
        <time>2019-05-22T22:01:55Z</time>
      </trkpt>
      <trkpt lat="44.18744" lon="3.34153">
        <ele>890</ele>
        <time>2019-05-22T22:02:24Z</time>
      </trkpt>
      <trkpt lat="44.1874" lon="3.34135">
        <ele>889</ele>
        <time>2019-05-22T22:02:26Z</time>
      </trkpt>
      <trkpt lat="44.18739" lon="3.34116">
        <ele>889</ele>
        <time>2019-05-22T22:02:28Z</time>
      </trkpt>
      <trkpt lat="44.18737" lon="3.34041">
        <ele>887</ele>
        <time>2019-05-22T22:02:38Z</time>
      </trkpt>
      <trkpt lat="44.18737" lon="3.34041">
        <ele>887</ele>
        <time>2019-05-22T22:02:38Z</time>
      </trkpt>
      <trkpt lat="44.18738" lon="3.34012">
        <ele>887</ele>
        <time>2019-05-22T22:02:42Z</time>
      </trkpt>
      <trkpt lat="44.18735" lon="3.33981">
        <ele>887</ele>
        <time>2019-05-22T22:02:46Z</time>
      </trkpt>
      <trkpt lat="44.18726" lon="3.33916">
        <ele>887</ele>
        <time>2019-05-22T22:02:54Z</time>
      </trkpt>
      <trkpt lat="44.18725" lon="3.33895">
        <ele>887</ele>
        <time>2019-05-22T22:02:57Z</time>
      </trkpt>
      <trkpt lat="44.18729" lon="3.33873">
        <ele>886</ele>
        <time>2019-05-22T22:03:00Z</time>
      </trkpt>
      <trkpt lat="44.18749" lon="3.33818">
        <ele>885</ele>
        <time>2019-05-22T22:03:08Z</time>
      </trkpt>
      <trkpt lat="44.18787" lon="3.33697">
        <ele>887</ele>
        <time>2019-05-22T22:03:24Z</time>
      </trkpt>
      <trkpt lat="44.18792" lon="3.33674">
        <ele>887</ele>
        <time>2019-05-22T22:03:27Z</time>
      </trkpt>
      <trkpt lat="44.18792" lon="3.33636">
        <ele>887</ele>
        <time>2019-05-22T22:03:32Z</time>
      </trkpt>
      <trkpt lat="44.18789" lon="3.33575">
        <ele>886</ele>
        <time>2019-05-22T22:03:40Z</time>
      </trkpt>
      <trkpt lat="44.18778" lon="3.33521">
        <ele>886</ele>
        <time>2019-05-22T22:03:47Z</time>
      </trkpt>
      <trkpt lat="44.18781" lon="3.33496">
        <ele>886</ele>
        <time>2019-05-22T22:03:51Z</time>
      </trkpt>
      <trkpt lat="44.18787" lon="3.33472">
        <ele>885</ele>
        <time>2019-05-22T22:03:54Z</time>
      </trkpt>
      <trkpt lat="44.18796" lon="3.33456">
        <ele>885</ele>
        <time>2019-05-22T22:03:56Z</time>
      </trkpt>
      <trkpt lat="44.18817" lon="3.33433">
        <ele>885</ele>
        <time>2019-05-22T22:04:01Z</time>
      </trkpt>
      <trkpt lat="44.18823" lon="3.33421">
        <ele>884</ele>
        <time>2019-05-22T22:04:03Z</time>
      </trkpt>
      <trkpt lat="44.18823" lon="3.33401">
        <ele>884</ele>
        <time>2019-05-22T22:04:06Z</time>
      </trkpt>
      <trkpt lat="44.18821" lon="3.33328">
        <ele>883</ele>
        <time>2019-05-22T22:04:15Z</time>
      </trkpt>
      <trkpt lat="44.18823" lon="3.33296">
        <ele>882</ele>
        <time>2019-05-22T22:04:19Z</time>
      </trkpt>
      <trkpt lat="44.18829" lon="3.33261">
        <ele>880</ele>
        <time>2019-05-22T22:04:24Z</time>
      </trkpt>
      <trkpt lat="44.18829" lon="3.33214">
        <ele>878</ele>
        <time>2019-05-22T22:04:30Z</time>
      </trkpt>
      <trkpt lat="44.18826" lon="3.33187">
        <ele>878</ele>
        <time>2019-05-22T22:04:33Z</time>
      </trkpt>
      <trkpt lat="44.18803" lon="3.33099">
        <ele>875</ele>
        <time>2019-05-22T22:04:45Z</time>
      </trkpt>
      <trkpt lat="44.18795" lon="3.33062">
        <ele>874</ele>
        <time>2019-05-22T22:04:50Z</time>
      </trkpt>
      <trkpt lat="44.1879" lon="3.33051">
        <ele>874</ele>
        <time>2019-05-22T22:04:52Z</time>
      </trkpt>
      <trkpt lat="44.18768" lon="3.33021">
        <ele>872</ele>
        <time>2019-05-22T22:04:57Z</time>
      </trkpt>
      <trkpt lat="44.18763" lon="3.33005">
        <ele>871</ele>
        <time>2019-05-22T22:04:59Z</time>
      </trkpt>
      <trkpt lat="44.1876" lon="3.32986">
        <ele>871</ele>
        <time>2019-05-22T22:05:02Z</time>
      </trkpt>
      <trkpt lat="44.18756" lon="3.3291">
        <ele>869</ele>
        <time>2019-05-22T22:05:11Z</time>
      </trkpt>
      <trkpt lat="44.18751" lon="3.32898">
        <ele>868</ele>
        <time>2019-05-22T22:05:13Z</time>
      </trkpt>
      <trkpt lat="44.18719" lon="3.3286">
        <ele>872</ele>
        <time>2019-05-22T22:05:21Z</time>
      </trkpt>
      <trkpt lat="44.18709" lon="3.32839">
        <ele>872</ele>
        <time>2019-05-22T22:05:24Z</time>
      </trkpt>
      <trkpt lat="44.187" lon="3.3281">
        <ele>872</ele>
        <time>2019-05-22T22:05:28Z</time>
      </trkpt>
      <trkpt lat="44.18695" lon="3.32773">
        <ele>871</ele>
        <time>2019-05-22T22:05:33Z</time>
      </trkpt>
      <trkpt lat="44.18696" lon="3.32756">
        <ele>870</ele>
        <time>2019-05-22T22:05:35Z</time>
      </trkpt>
      <trkpt lat="44.187" lon="3.32718">
        <ele>869</ele>
        <time>2019-05-22T22:05:40Z</time>
      </trkpt>
      <trkpt lat="44.18699" lon="3.32699">
        <ele>869</ele>
        <time>2019-05-22T22:05:42Z</time>
      </trkpt>
      <trkpt lat="44.18665" lon="3.32546">
        <ele>868</ele>
        <time>2019-05-22T22:06:03Z</time>
      </trkpt>
      <trkpt lat="44.18659" lon="3.32508">
        <ele>870</ele>
        <time>2019-05-22T22:06:08Z</time>
      </trkpt>
      <trkpt lat="44.18649" lon="3.32471">
        <ele>872</ele>
        <time>2019-05-22T22:06:13Z</time>
      </trkpt>
      <trkpt lat="44.18648" lon="3.32452">
        <ele>873</ele>
        <time>2019-05-22T22:06:15Z</time>
      </trkpt>
      <trkpt lat="44.1865" lon="3.32431">
        <ele>873</ele>
        <time>2019-05-22T22:06:18Z</time>
      </trkpt>
      <trkpt lat="44.18667" lon="3.32357">
        <ele>872</ele>
        <time>2019-05-22T22:06:28Z</time>
      </trkpt>
      <trkpt lat="44.18692" lon="3.32235">
        <ele>873</ele>
        <time>2019-05-22T22:06:44Z</time>
      </trkpt>
      <trkpt lat="44.18699" lon="3.32207">
        <ele>873</ele>
        <time>2019-05-22T22:06:48Z</time>
      </trkpt>
      <trkpt lat="44.1871" lon="3.32176">
        <ele>874</ele>
        <time>2019-05-22T22:06:52Z</time>
      </trkpt>
      <trkpt lat="44.18714" lon="3.32156">
        <ele>874</ele>
        <time>2019-05-22T22:06:55Z</time>
      </trkpt>
      <trkpt lat="44.18718" lon="3.32115">
        <ele>874</ele>
        <time>2019-05-22T22:07:00Z</time>
      </trkpt>
      <trkpt lat="44.18722" lon="3.32027">
        <ele>873</ele>
        <time>2019-05-22T22:07:11Z</time>
      </trkpt>
      <trkpt lat="44.18718" lon="3.31953">
        <ele>876</ele>
        <time>2019-05-22T22:07:21Z</time>
      </trkpt>
      <trkpt lat="44.1872" lon="3.3193">
        <ele>877</ele>
        <time>2019-05-22T22:07:24Z</time>
      </trkpt>
      <trkpt lat="44.18726" lon="3.31904">
        <ele>878</ele>
        <time>2019-05-22T22:07:27Z</time>
      </trkpt>
      <trkpt lat="44.18738" lon="3.3188">
        <ele>878</ele>
        <time>2019-05-22T22:07:31Z</time>
      </trkpt>
      <trkpt lat="44.18756" lon="3.31851">
        <ele>879</ele>
        <time>2019-05-22T22:07:36Z</time>
      </trkpt>
      <trkpt lat="44.18763" lon="3.31831">
        <ele>880</ele>
        <time>2019-05-22T22:07:39Z</time>
      </trkpt>
      <trkpt lat="44.18766" lon="3.31813">
        <ele>881</ele>
        <time>2019-05-22T22:07:41Z</time>
      </trkpt>
      <trkpt lat="44.18766" lon="3.31753">
        <ele>885</ele>
        <time>2019-05-22T22:07:49Z</time>
      </trkpt>
      <trkpt lat="44.1877" lon="3.31728">
        <ele>886</ele>
        <time>2019-05-22T22:07:52Z</time>
      </trkpt>
      <trkpt lat="44.18778" lon="3.31692">
        <ele>886</ele>
        <time>2019-05-22T22:07:57Z</time>
      </trkpt>
      <trkpt lat="44.18779" lon="3.31675">
        <ele>887</ele>
        <time>2019-05-22T22:07:59Z</time>
      </trkpt>
      <trkpt lat="44.18766" lon="3.31621">
        <ele>886</ele>
        <time>2019-05-22T22:08:06Z</time>
      </trkpt>
      <trkpt lat="44.18765" lon="3.31602">
        <ele>885</ele>
        <time>2019-05-22T22:08:09Z</time>
      </trkpt>
      <trkpt lat="44.18769" lon="3.31582">
        <ele>885</ele>
        <time>2019-05-22T22:08:11Z</time>
      </trkpt>
      <trkpt lat="44.1878" lon="3.31547">
        <ele>885</ele>
        <time>2019-05-22T22:08:16Z</time>
      </trkpt>
      <trkpt lat="44.18782" lon="3.31531">
        <ele>885</ele>
        <time>2019-05-22T22:08:18Z</time>
      </trkpt>
      <trkpt lat="44.18781" lon="3.31519">
        <ele>885</ele>
        <time>2019-05-22T22:08:20Z</time>
      </trkpt>
      <trkpt lat="44.18766" lon="3.31482">
        <ele>885</ele>
        <time>2019-05-22T22:08:25Z</time>
      </trkpt>
      <trkpt lat="44.18765" lon="3.31464">
        <ele>885</ele>
        <time>2019-05-22T22:08:28Z</time>
      </trkpt>
      <trkpt lat="44.18766" lon="3.3145">
        <ele>885</ele>
        <time>2019-05-22T22:08:29Z</time>
      </trkpt>
      <trkpt lat="44.18773" lon="3.31415">
        <ele>883</ele>
        <time>2019-05-22T22:08:34Z</time>
      </trkpt>
      <trkpt lat="44.18782" lon="3.31387">
        <ele>882</ele>
        <time>2019-05-22T22:08:38Z</time>
      </trkpt>
      <trkpt lat="44.188" lon="3.31348">
        <ele>879</ele>
        <time>2019-05-22T22:08:44Z</time>
      </trkpt>
      <trkpt lat="44.18817" lon="3.31291">
        <ele>875</ele>
        <time>2019-05-22T22:08:52Z</time>
      </trkpt>
      <trkpt lat="44.1882" lon="3.31261">
        <ele>874</ele>
        <time>2019-05-22T22:08:56Z</time>
      </trkpt>
      <trkpt lat="44.1882" lon="3.31221">
        <ele>874</ele>
        <time>2019-05-22T22:09:01Z</time>
      </trkpt>
      <trkpt lat="44.18842" lon="3.31083">
        <ele>874</ele>
        <time>2019-05-22T22:09:19Z</time>
      </trkpt>
      <trkpt lat="44.18844" lon="3.3106">
        <ele>873</ele>
        <time>2019-05-22T22:09:22Z</time>
      </trkpt>
      <trkpt lat="44.18843" lon="3.31026">
        <ele>872</ele>
        <time>2019-05-22T22:09:26Z</time>
      </trkpt>
      <trkpt lat="44.18836" lon="3.31001">
        <ele>872</ele>
        <time>2019-05-22T22:09:29Z</time>
      </trkpt>
      <trkpt lat="44.18822" lon="3.30972">
        <ele>871</ele>
        <time>2019-05-22T22:09:34Z</time>
      </trkpt>
      <trkpt lat="44.18798" lon="3.30925">
        <ele>868</ele>
        <time>2019-05-22T22:09:41Z</time>
      </trkpt>
      <trkpt lat="44.18788" lon="3.30902">
        <ele>868</ele>
        <time>2019-05-22T22:09:45Z</time>
      </trkpt>
      <trkpt lat="44.18783" lon="3.30873">
        <ele>869</ele>
        <time>2019-05-22T22:09:48Z</time>
      </trkpt>
      <trkpt lat="44.18781" lon="3.30852">
        <ele>869</ele>
        <time>2019-05-22T22:09:51Z</time>
      </trkpt>
      <trkpt lat="44.18782" lon="3.30824">
        <ele>869</ele>
        <time>2019-05-22T22:09:55Z</time>
      </trkpt>
      <trkpt lat="44.18792" lon="3.30763">
        <ele>870</ele>
        <time>2019-05-22T22:10:03Z</time>
      </trkpt>
      <trkpt lat="44.18796" lon="3.30751">
        <ele>870</ele>
        <time>2019-05-22T22:10:04Z</time>
      </trkpt>
      <trkpt lat="44.18821" lon="3.30716">
        <ele>868</ele>
        <time>2019-05-22T22:10:11Z</time>
      </trkpt>
      <trkpt lat="44.18827" lon="3.30699">
        <ele>868</ele>
        <time>2019-05-22T22:10:13Z</time>
      </trkpt>
      <trkpt lat="44.18827" lon="3.30686">
        <ele>868</ele>
        <time>2019-05-22T22:10:15Z</time>
      </trkpt>
      <trkpt lat="44.18823" lon="3.30672">
        <ele>869</ele>
        <time>2019-05-22T22:10:17Z</time>
      </trkpt>
      <trkpt lat="44.18817" lon="3.30659">
        <ele>869</ele>
        <time>2019-05-22T22:10:19Z</time>
      </trkpt>
      <trkpt lat="44.18804" lon="3.3065">
        <ele>869</ele>
        <time>2019-05-22T22:10:21Z</time>
      </trkpt>
      <trkpt lat="44.18773" lon="3.3064">
        <ele>870</ele>
        <time>2019-05-22T22:10:27Z</time>
      </trkpt>
      <trkpt lat="44.18733" lon="3.30632">
        <ele>872</ele>
        <time>2019-05-22T22:10:34Z</time>
      </trkpt>
      <trkpt lat="44.18571" lon="3.3061">
        <ele>876</ele>
        <time>2019-05-22T22:11:03Z</time>
      </trkpt>
      <trkpt lat="44.18518" lon="3.30586">
        <ele>878</ele>
        <time>2019-05-22T22:11:13Z</time>
      </trkpt>
      <trkpt lat="44.18493" lon="3.30557">
        <ele>876</ele>
        <time>2019-05-22T22:11:19Z</time>
      </trkpt>
      <trkpt lat="44.18446" lon="3.30481">
        <ele>873</ele>
        <time>2019-05-22T22:11:32Z</time>
      </trkpt>
      <trkpt lat="44.18435" lon="3.30455">
        <ele>872</ele>
        <time>2019-05-22T22:11:35Z</time>
      </trkpt>
      <trkpt lat="44.18434" lon="3.30436">
        <ele>871</ele>
        <time>2019-05-22T22:11:38Z</time>
      </trkpt>
      <trkpt lat="44.18438" lon="3.30424">
        <ele>869</ele>
        <time>2019-05-22T22:11:40Z</time>
      </trkpt>
      <trkpt lat="44.18449" lon="3.30404">
        <ele>868</ele>
        <time>2019-05-22T22:11:43Z</time>
      </trkpt>
      <trkpt lat="44.18475" lon="3.30375">
        <ele>868</ele>
        <time>2019-05-22T22:11:49Z</time>
      </trkpt>
      <trkpt lat="44.1849" lon="3.30351">
        <ele>868</ele>
        <time>2019-05-22T22:11:53Z</time>
      </trkpt>
      <trkpt lat="44.18512" lon="3.30311">
        <ele>869</ele>
        <time>2019-05-22T22:11:59Z</time>
      </trkpt>
      <trkpt lat="44.18525" lon="3.30278">
        <ele>869</ele>
        <time>2019-05-22T22:12:04Z</time>
      </trkpt>
      <trkpt lat="44.18548" lon="3.30186">
        <ele>872</ele>
        <time>2019-05-22T22:12:16Z</time>
      </trkpt>
      <trkpt lat="44.1857" lon="3.3015">
        <ele>873</ele>
        <time>2019-05-22T22:12:22Z</time>
      </trkpt>
      <trkpt lat="44.18575" lon="3.30138">
        <ele>874</ele>
        <time>2019-05-22T22:12:24Z</time>
      </trkpt>
      <trkpt lat="44.18577" lon="3.30123">
        <ele>874</ele>
        <time>2019-05-22T22:12:26Z</time>
      </trkpt>
      <trkpt lat="44.18574" lon="3.3011">
        <ele>875</ele>
        <time>2019-05-22T22:12:28Z</time>
      </trkpt>
      <trkpt lat="44.18557" lon="3.30071">
        <ele>876</ele>
        <time>2019-05-22T22:12:34Z</time>
      </trkpt>
      <trkpt lat="44.18545" lon="3.30019">
        <ele>877</ele>
        <time>2019-05-22T22:12:41Z</time>
      </trkpt>
      <trkpt lat="44.18543" lon="3.29962">
        <ele>876</ele>
        <time>2019-05-22T22:12:48Z</time>
      </trkpt>
      <trkpt lat="44.1854" lon="3.29953">
        <ele>876</ele>
        <time>2019-05-22T22:12:49Z</time>
      </trkpt>
      <trkpt lat="44.18529" lon="3.29935">
        <ele>876</ele>
        <time>2019-05-22T22:12:52Z</time>
      </trkpt>
      <trkpt lat="44.18519" lon="3.29907">
        <ele>876</ele>
        <time>2019-05-22T22:12:56Z</time>
      </trkpt>
      <trkpt lat="44.18518" lon="3.29899">
        <ele>877</ele>
        <time>2019-05-22T22:12:57Z</time>
      </trkpt>
      <trkpt lat="44.18521" lon="3.29876">
        <ele>877</ele>
        <time>2019-05-22T22:13:00Z</time>
      </trkpt>
      <trkpt lat="44.18521" lon="3.29855">
        <ele>877</ele>
        <time>2019-05-22T22:13:03Z</time>
      </trkpt>
      <trkpt lat="44.18515" lon="3.29843">
        <ele>877</ele>
        <time>2019-05-22T22:13:05Z</time>
      </trkpt>
      <trkpt lat="44.18509" lon="3.29835">
        <ele>877</ele>
        <time>2019-05-22T22:13:06Z</time>
      </trkpt>
      <trkpt lat="44.18504" lon="3.29823">
        <ele>877</ele>
        <time>2019-05-22T22:13:08Z</time>
      </trkpt>
      <trkpt lat="44.18484" lon="3.29785">
        <ele>875</ele>
        <time>2019-05-22T22:13:14Z</time>
      </trkpt>
      <trkpt lat="44.18443" lon="3.29718">
        <ele>870</ele>
        <time>2019-05-22T22:13:25Z</time>
      </trkpt>
      <trkpt lat="44.18425" lon="3.29711">
        <ele>868</ele>
        <time>2019-05-22T22:13:29Z</time>
      </trkpt>
      <trkpt lat="44.18409" lon="3.29715">
        <ele>868</ele>
        <time>2019-05-22T22:13:32Z</time>
      </trkpt>
      <trkpt lat="44.18379" lon="3.29729">
        <ele>867</ele>
        <time>2019-05-22T22:13:37Z</time>
      </trkpt>
      <trkpt lat="44.18368" lon="3.29732">
        <ele>867</ele>
        <time>2019-05-22T22:13:39Z</time>
      </trkpt>
      <trkpt lat="44.18341" lon="3.2973">
        <ele>866</ele>
        <time>2019-05-22T22:13:44Z</time>
      </trkpt>
      <trkpt lat="44.18248" lon="3.29712">
        <ele>862</ele>
        <time>2019-05-22T22:14:01Z</time>
      </trkpt>
      <trkpt lat="44.18229" lon="3.29711">
        <ele>862</ele>
        <time>2019-05-22T22:14:04Z</time>
      </trkpt>
      <trkpt lat="44.18201" lon="3.29715">
        <ele>861</ele>
        <time>2019-05-22T22:14:09Z</time>
      </trkpt>
      <trkpt lat="44.18088" lon="3.29742">
        <ele>858</ele>
        <time>2019-05-22T22:14:29Z</time>
      </trkpt>
      <trkpt lat="44.18077" lon="3.29742">
        <ele>857</ele>
        <time>2019-05-22T22:14:31Z</time>
      </trkpt>
      <trkpt lat="44.18066" lon="3.2974">
        <ele>857</ele>
        <time>2019-05-22T22:14:33Z</time>
      </trkpt>
      <trkpt lat="44.17802" lon="3.29679">
        <ele>848</ele>
        <time>2019-05-22T22:15:21Z</time>
      </trkpt>
      <trkpt lat="44.17788" lon="3.29671">
        <ele>847</ele>
        <time>2019-05-22T22:15:24Z</time>
      </trkpt>
      <trkpt lat="44.1777" lon="3.29656">
        <ele>847</ele>
        <time>2019-05-22T22:15:27Z</time>
      </trkpt>
      <trkpt lat="44.17743" lon="3.29629">
        <ele>846</ele>
        <time>2019-05-22T22:15:33Z</time>
      </trkpt>
      <trkpt lat="44.17735" lon="3.29611">
        <ele>846</ele>
        <time>2019-05-22T22:15:36Z</time>
      </trkpt>
      <trkpt lat="44.17714" lon="3.29539">
        <ele>845</ele>
        <time>2019-05-22T22:15:46Z</time>
      </trkpt>
      <trkpt lat="44.17705" lon="3.2952">
        <ele>845</ele>
        <time>2019-05-22T22:15:49Z</time>
      </trkpt>
      <trkpt lat="44.17626" lon="3.2943">
        <ele>845</ele>
        <time>2019-05-22T22:16:07Z</time>
      </trkpt>
      <trkpt lat="44.17594" lon="3.294">
        <ele>844</ele>
        <time>2019-05-22T22:16:14Z</time>
      </trkpt>
      <trkpt lat="44.1754" lon="3.29356">
        <ele>841</ele>
        <time>2019-05-22T22:16:25Z</time>
      </trkpt>
      <trkpt lat="44.17507" lon="3.29333">
        <ele>839</ele>
        <time>2019-05-22T22:16:32Z</time>
      </trkpt>
      <trkpt lat="44.17491" lon="3.29325">
        <ele>838</ele>
        <time>2019-05-22T22:16:35Z</time>
      </trkpt>
      <trkpt lat="44.17477" lon="3.29323">
        <ele>839</ele>
        <time>2019-05-22T22:16:37Z</time>
      </trkpt>
      <trkpt lat="44.17371" lon="3.29319">
        <ele>841</ele>
        <time>2019-05-22T22:16:56Z</time>
      </trkpt>
      <trkpt lat="44.17267" lon="3.2929">
        <ele>847</ele>
        <time>2019-05-22T22:17:15Z</time>
      </trkpt>
      <trkpt lat="44.17249" lon="3.29288">
        <ele>848</ele>
        <time>2019-05-22T22:17:18Z</time>
      </trkpt>
      <trkpt lat="44.17158" lon="3.29286">
        <ele>850</ele>
        <time>2019-05-22T22:17:34Z</time>
      </trkpt>
      <trkpt lat="44.17134" lon="3.2928">
        <ele>851</ele>
        <time>2019-05-22T22:17:39Z</time>
      </trkpt>
      <trkpt lat="44.1711" lon="3.2927">
        <ele>852</ele>
        <time>2019-05-22T22:17:43Z</time>
      </trkpt>
      <trkpt lat="44.17058" lon="3.29242">
        <ele>856</ele>
        <time>2019-05-22T22:17:53Z</time>
      </trkpt>
      <trkpt lat="44.17033" lon="3.29233">
        <ele>858</ele>
        <time>2019-05-22T22:17:58Z</time>
      </trkpt>
      <trkpt lat="44.17005" lon="3.2923">
        <ele>859</ele>
        <time>2019-05-22T22:18:03Z</time>
      </trkpt>
      <trkpt lat="44.16977" lon="3.29233">
        <ele>859</ele>
        <time>2019-05-22T22:18:08Z</time>
      </trkpt>
      <trkpt lat="44.1693" lon="3.2925">
        <ele>858</ele>
        <time>2019-05-22T22:18:16Z</time>
      </trkpt>
      <trkpt lat="44.16889" lon="3.29254">
        <ele>858</ele>
        <time>2019-05-22T22:18:24Z</time>
      </trkpt>
      <trkpt lat="44.1676" lon="3.29233">
        <ele>858</ele>
        <time>2019-05-22T22:18:47Z</time>
      </trkpt>
      <trkpt lat="44.16697" lon="3.2925">
        <ele>860</ele>
        <time>2019-05-22T22:18:58Z</time>
      </trkpt>
      <trkpt lat="44.16641" lon="3.29262">
        <ele>861</ele>
        <time>2019-05-22T22:19:08Z</time>
      </trkpt>
      <trkpt lat="44.16599" lon="3.29267">
        <ele>863</ele>
        <time>2019-05-22T22:19:16Z</time>
      </trkpt>
      <trkpt lat="44.16558" lon="3.29264">
        <ele>863</ele>
        <time>2019-05-22T22:19:23Z</time>
      </trkpt>
      <trkpt lat="44.16505" lon="3.29248">
        <ele>864</ele>
        <time>2019-05-22T22:19:33Z</time>
      </trkpt>
      <trkpt lat="44.16487" lon="3.29259">
        <ele>863</ele>
        <time>2019-05-22T22:19:36Z</time>
      </trkpt>
      <trkpt lat="44.16442" lon="3.29249">
        <ele>863</ele>
        <time>2019-05-22T22:19:44Z</time>
      </trkpt>
      <trkpt lat="44.16429" lon="3.29239">
        <ele>862</ele>
        <time>2019-05-22T22:19:47Z</time>
      </trkpt>
      <trkpt lat="44.16411" lon="3.29232">
        <ele>861</ele>
        <time>2019-05-22T22:19:50Z</time>
      </trkpt>
      <trkpt lat="44.16376" lon="3.29232">
        <ele>858</ele>
        <time>2019-05-22T22:19:56Z</time>
      </trkpt>
      <trkpt lat="44.16233" lon="3.28977">
        <ele>848</ele>
        <time>2019-05-22T22:20:38Z</time>
      </trkpt>
      <trkpt lat="44.16233" lon="3.28977">
        <ele>848</ele>
        <time>2019-05-22T22:20:38Z</time>
      </trkpt>
      <trkpt lat="44.16196" lon="3.28911">
        <ele>845</ele>
        <time>2019-05-22T22:20:48Z</time>
      </trkpt>
      <trkpt lat="44.16152" lon="3.28853">
        <ele>842</ele>
        <time>2019-05-22T22:20:59Z</time>
      </trkpt>
      <trkpt lat="44.16118" lon="3.28813">
        <ele>841</ele>
        <time>2019-05-22T22:21:07Z</time>
      </trkpt>
      <trkpt lat="44.16172" lon="3.28644">
        <ele>840</ele>
        <time>2019-05-22T22:21:31Z</time>
      </trkpt>
      <trkpt lat="44.16273" lon="3.28314">
        <ele>844</ele>
        <time>2019-05-22T22:22:16Z</time>
      </trkpt>
      <trkpt lat="44.16333" lon="3.28169">
        <ele>843</ele>
        <time>2019-05-22T22:22:38Z</time>
      </trkpt>
      <trkpt lat="44.16364" lon="3.28088">
        <ele>841</ele>
        <time>2019-05-22T22:22:50Z</time>
      </trkpt>
      <trkpt lat="44.16389" lon="3.28032">
        <ele>841</ele>
        <time>2019-05-22T22:22:58Z</time>
      </trkpt>
      <trkpt lat="44.16394" lon="3.27995">
        <ele>841</ele>
        <time>2019-05-22T22:23:03Z</time>
      </trkpt>
      <trkpt lat="44.16389" lon="3.27882">
        <ele>842</ele>
        <time>2019-05-22T22:23:17Z</time>
      </trkpt>
      <trkpt lat="44.16395" lon="3.27834">
        <ele>841</ele>
        <time>2019-05-22T22:23:23Z</time>
      </trkpt>
      <trkpt lat="44.16421" lon="3.27503">
        <ele>842</ele>
        <time>2019-05-22T22:24:06Z</time>
      </trkpt>
      <trkpt lat="44.16434" lon="3.27375">
        <ele>843</ele>
        <time>2019-05-22T22:24:22Z</time>
      </trkpt>
      <trkpt lat="44.16446" lon="3.2724">
        <ele>844</ele>
        <time>2019-05-22T22:24:40Z</time>
      </trkpt>
      <trkpt lat="44.16454" lon="3.27098">
        <ele>847</ele>
        <time>2019-05-22T22:24:58Z</time>
      </trkpt>
      <trkpt lat="44.16479" lon="3.26814">
        <ele>852</ele>
        <time>2019-05-22T22:25:35Z</time>
      </trkpt>
      <trkpt lat="44.16484" lon="3.26782">
        <ele>852</ele>
        <time>2019-05-22T22:25:39Z</time>
      </trkpt>
      <trkpt lat="44.16529" lon="3.26627">
        <ele>852</ele>
        <time>2019-05-22T22:26:00Z</time>
      </trkpt>
      <trkpt lat="44.16621" lon="3.263">
        <ele>862</ele>
        <time>2019-05-22T22:26:45Z</time>
      </trkpt>
      <trkpt lat="44.16634" lon="3.26265">
        <ele>864</ele>
        <time>2019-05-22T22:26:50Z</time>
      </trkpt>
      <trkpt lat="44.16655" lon="3.26244">
        <ele>866</ele>
        <time>2019-05-22T22:26:55Z</time>
      </trkpt>
      <trkpt lat="44.16705" lon="3.26161">
        <ele>871</ele>
        <time>2019-05-22T22:27:08Z</time>
      </trkpt>
      <trkpt lat="44.16707" lon="3.26145">
        <ele>872</ele>
        <time>2019-05-22T22:27:10Z</time>
      </trkpt>
      <trkpt lat="44.16704" lon="3.26109">
        <ele>873</ele>
        <time>2019-05-22T22:27:15Z</time>
      </trkpt>
      <trkpt lat="44.16704" lon="3.26094">
        <ele>874</ele>
        <time>2019-05-22T22:27:17Z</time>
      </trkpt>
      <trkpt lat="44.16712" lon="3.26063">
        <ele>876</ele>
        <time>2019-05-22T22:27:21Z</time>
      </trkpt>
      <trkpt lat="44.16713" lon="3.26054">
        <ele>876</ele>
        <time>2019-05-22T22:27:22Z</time>
      </trkpt>
      <trkpt lat="44.16713" lon="3.26054">
        <ele>876</ele>
        <time>2019-05-22T22:27:22Z</time>
      </trkpt>
      <trkpt lat="44.16713" lon="3.2605">
        <ele>877</ele>
        <time>2019-05-22T22:27:23Z</time>
      </trkpt>
      <trkpt lat="44.16702" lon="3.2602">
        <ele>879</ele>
        <time>2019-05-22T22:27:27Z</time>
      </trkpt>
      <trkpt lat="44.16701" lon="3.26006">
        <ele>880</ele>
        <time>2019-05-22T22:27:29Z</time>
      </trkpt>
      <trkpt lat="44.16704" lon="3.25991">
        <ele>881</ele>
        <time>2019-05-22T22:27:31Z</time>
      </trkpt>
      <trkpt lat="44.1671" lon="3.25979">
        <ele>882</ele>
        <time>2019-05-22T22:27:33Z</time>
      </trkpt>
      <trkpt lat="44.16742" lon="3.25935">
        <ele>883</ele>
        <time>2019-05-22T22:27:41Z</time>
      </trkpt>
      <trkpt lat="44.16751" lon="3.25914">
        <ele>884</ele>
        <time>2019-05-22T22:27:44Z</time>
      </trkpt>
      <trkpt lat="44.16753" lon="3.25903">
        <ele>885</ele>
        <time>2019-05-22T22:27:45Z</time>
      </trkpt>
      <trkpt lat="44.16755" lon="3.25885">
        <ele>885</ele>
        <time>2019-05-22T22:27:48Z</time>
      </trkpt>
      <trkpt lat="44.16756" lon="3.25844">
        <ele>886</ele>
        <time>2019-05-22T22:27:53Z</time>
      </trkpt>
      <trkpt lat="44.16761" lon="3.25795">
        <ele>887</ele>
        <time>2019-05-22T22:27:59Z</time>
      </trkpt>
      <trkpt lat="44.16773" lon="3.25745">
        <ele>888</ele>
        <time>2019-05-22T22:28:06Z</time>
      </trkpt>
      <trkpt lat="44.16805" lon="3.25641">
        <ele>892</ele>
        <time>2019-05-22T22:28:20Z</time>
      </trkpt>
      <trkpt lat="44.16808" lon="3.25619">
        <ele>893</ele>
        <time>2019-05-22T22:28:23Z</time>
      </trkpt>
      <trkpt lat="44.16805" lon="3.25604">
        <ele>894</ele>
        <time>2019-05-22T22:28:25Z</time>
      </trkpt>
      <trkpt lat="44.16791" lon="3.2559">
        <ele>894</ele>
        <time>2019-05-22T22:28:28Z</time>
      </trkpt>
      <trkpt lat="44.16778" lon="3.25568">
        <ele>894</ele>
        <time>2019-05-22T22:28:32Z</time>
      </trkpt>
      <trkpt lat="44.16774" lon="3.25553">
        <ele>895</ele>
        <time>2019-05-22T22:28:34Z</time>
      </trkpt>
      <trkpt lat="44.16781" lon="3.25512">
        <ele>897</ele>
        <time>2019-05-22T22:28:39Z</time>
      </trkpt>
      <trkpt lat="44.1678" lon="3.25491">
        <ele>898</ele>
        <time>2019-05-22T22:28:42Z</time>
      </trkpt>
      <trkpt lat="44.16776" lon="3.25475">
        <ele>898</ele>
        <time>2019-05-22T22:28:44Z</time>
      </trkpt>
      <trkpt lat="44.16766" lon="3.25457">
        <ele>897</ele>
        <time>2019-05-22T22:28:47Z</time>
      </trkpt>
      <trkpt lat="44.16749" lon="3.2543">
        <ele>897</ele>
        <time>2019-05-22T22:28:52Z</time>
      </trkpt>
      <trkpt lat="44.16741" lon="3.25407">
        <ele>897</ele>
        <time>2019-05-22T22:28:55Z</time>
      </trkpt>
      <trkpt lat="44.16736" lon="3.25377">
        <ele>897</ele>
        <time>2019-05-22T22:28:59Z</time>
      </trkpt>
      <trkpt lat="44.16737" lon="3.25248">
        <ele>893</ele>
        <time>2019-05-22T22:29:15Z</time>
      </trkpt>
      <trkpt lat="44.16749" lon="3.25179">
        <ele>890</ele>
        <time>2019-05-22T22:29:24Z</time>
      </trkpt>
      <trkpt lat="44.16769" lon="3.25121">
        <ele>888</ele>
        <time>2019-05-22T22:29:33Z</time>
      </trkpt>
      <trkpt lat="44.16771" lon="3.25093">
        <ele>887</ele>
        <time>2019-05-22T22:29:36Z</time>
      </trkpt>
      <trkpt lat="44.16777" lon="3.25063">
        <ele>885</ele>
        <time>2019-05-22T22:29:40Z</time>
      </trkpt>
      <trkpt lat="44.16789" lon="3.25043">
        <ele>883</ele>
        <time>2019-05-22T22:29:44Z</time>
      </trkpt>
      <trkpt lat="44.16807" lon="3.25029">
        <ele>881</ele>
        <time>2019-05-22T22:29:47Z</time>
      </trkpt>
      <trkpt lat="44.16826" lon="3.25025">
        <ele>879</ele>
        <time>2019-05-22T22:29:51Z</time>
      </trkpt>
      <trkpt lat="44.16838" lon="3.25013">
        <ele>878</ele>
        <time>2019-05-22T22:29:53Z</time>
      </trkpt>
      <trkpt lat="44.16841" lon="3.24993">
        <ele>876</ele>
        <time>2019-05-22T22:29:56Z</time>
      </trkpt>
      <trkpt lat="44.16844" lon="3.24953">
        <ele>874</ele>
        <time>2019-05-22T22:30:01Z</time>
      </trkpt>
      <trkpt lat="44.16851" lon="3.24927">
        <ele>872</ele>
        <time>2019-05-22T22:30:05Z</time>
      </trkpt>
      <trkpt lat="44.16904" lon="3.24851">
        <ele>867</ele>
        <time>2019-05-22T22:30:18Z</time>
      </trkpt>
      <trkpt lat="44.16934" lon="3.24801">
        <ele>865</ele>
        <time>2019-05-22T22:30:26Z</time>
      </trkpt>
      <trkpt lat="44.16966" lon="3.24742">
        <ele>861</ele>
        <time>2019-05-22T22:30:36Z</time>
      </trkpt>
      <trkpt lat="44.16993" lon="3.24717">
        <ele>859</ele>
        <time>2019-05-22T22:30:42Z</time>
      </trkpt>
      <trkpt lat="44.1704" lon="3.24667">
        <ele>855</ele>
        <time>2019-05-22T22:30:52Z</time>
      </trkpt>
      <trkpt lat="44.17072" lon="3.24653">
        <ele>853</ele>
        <time>2019-05-22T22:30:58Z</time>
      </trkpt>
      <trkpt lat="44.17146" lon="3.24607">
        <ele>850</ele>
        <time>2019-05-22T22:31:12Z</time>
      </trkpt>
      <trkpt lat="44.17172" lon="3.24601">
        <ele>850</ele>
        <time>2019-05-22T22:31:17Z</time>
      </trkpt>
      <trkpt lat="44.17181" lon="3.24595">
        <ele>851</ele>
        <time>2019-05-22T22:31:19Z</time>
      </trkpt>
      <trkpt lat="44.17189" lon="3.24582">
        <ele>851</ele>
        <time>2019-05-22T22:31:21Z</time>
      </trkpt>
      <trkpt lat="44.17191" lon="3.24575">
        <ele>852</ele>
        <time>2019-05-22T22:31:22Z</time>
      </trkpt>
      <trkpt lat="44.1719" lon="3.24557">
        <ele>853</ele>
        <time>2019-05-22T22:31:24Z</time>
      </trkpt>
      <trkpt lat="44.17187" lon="3.24549">
        <ele>853</ele>
        <time>2019-05-22T22:31:26Z</time>
      </trkpt>
      <trkpt lat="44.17175" lon="3.2454">
        <ele>852</ele>
        <time>2019-05-22T22:31:28Z</time>
      </trkpt>
      <trkpt lat="44.17154" lon="3.24545">
        <ele>851</ele>
        <time>2019-05-22T22:31:32Z</time>
      </trkpt>
      <trkpt lat="44.17141" lon="3.24545">
        <ele>851</ele>
        <time>2019-05-22T22:31:34Z</time>
      </trkpt>
      <trkpt lat="44.1711" lon="3.24541">
        <ele>850</ele>
        <time>2019-05-22T22:31:40Z</time>
      </trkpt>
      <trkpt lat="44.17101" lon="3.24539">
        <ele>850</ele>
        <time>2019-05-22T22:31:41Z</time>
      </trkpt>
      <trkpt lat="44.17093" lon="3.24531">
        <ele>850</ele>
        <time>2019-05-22T22:31:43Z</time>
      </trkpt>
      <trkpt lat="44.17086" lon="3.24521">
        <ele>850</ele>
        <time>2019-05-22T22:31:45Z</time>
      </trkpt>
      <trkpt lat="44.17075" lon="3.2449">
        <ele>852</ele>
        <time>2019-05-22T22:31:49Z</time>
      </trkpt>
      <trkpt lat="44.17069" lon="3.24477">
        <ele>853</ele>
        <time>2019-05-22T22:31:51Z</time>
      </trkpt>
      <trkpt lat="44.17033" lon="3.24439">
        <ele>852</ele>
        <time>2019-05-22T22:31:59Z</time>
      </trkpt>
      <trkpt lat="44.17023" lon="3.24426">
        <ele>851</ele>
        <time>2019-05-22T22:32:02Z</time>
      </trkpt>
      <trkpt lat="44.17018" lon="3.2436">
        <ele>850</ele>
        <time>2019-05-22T22:32:10Z</time>
      </trkpt>
      <trkpt lat="44.1701" lon="3.24326">
        <ele>848</ele>
        <time>2019-05-22T22:32:15Z</time>
      </trkpt>
      <trkpt lat="44.17001" lon="3.24303">
        <ele>848</ele>
        <time>2019-05-22T22:32:18Z</time>
      </trkpt>
      <trkpt lat="44.16931" lon="3.24182">
        <ele>841</ele>
        <time>2019-05-22T22:32:38Z</time>
      </trkpt>
      <trkpt lat="44.16924" lon="3.2416">
        <ele>841</ele>
        <time>2019-05-22T22:32:41Z</time>
      </trkpt>
      <trkpt lat="44.16924" lon="3.2414">
        <ele>841</ele>
        <time>2019-05-22T22:32:43Z</time>
      </trkpt>
      <trkpt lat="44.16929" lon="3.24108">
        <ele>843</ele>
        <time>2019-05-22T22:32:48Z</time>
      </trkpt>
      <trkpt lat="44.16933" lon="3.24067">
        <ele>844</ele>
        <time>2019-05-22T22:32:53Z</time>
      </trkpt>
      <trkpt lat="44.16932" lon="3.24046">
        <ele>844</ele>
        <time>2019-05-22T22:32:56Z</time>
      </trkpt>
      <trkpt lat="44.1692" lon="3.24001">
        <ele>843</ele>
        <time>2019-05-22T22:33:02Z</time>
      </trkpt>
      <trkpt lat="44.16922" lon="3.23986">
        <ele>842</ele>
        <time>2019-05-22T22:33:04Z</time>
      </trkpt>
      <trkpt lat="44.16929" lon="3.23971">
        <ele>843</ele>
        <time>2019-05-22T22:33:06Z</time>
      </trkpt>
      <trkpt lat="44.17015" lon="3.23838">
        <ele>850</ele>
        <time>2019-05-22T22:33:29Z</time>
      </trkpt>
      <trkpt lat="44.17035" lon="3.23803">
        <ele>853</ele>
        <time>2019-05-22T22:33:35Z</time>
      </trkpt>
      <trkpt lat="44.17039" lon="3.23782">
        <ele>854</ele>
        <time>2019-05-22T22:33:37Z</time>
      </trkpt>
      <trkpt lat="44.17037" lon="3.23762">
        <ele>854</ele>
        <time>2019-05-22T22:33:40Z</time>
      </trkpt>
      <trkpt lat="44.17028" lon="3.2375">
        <ele>852</ele>
        <time>2019-05-22T22:33:42Z</time>
      </trkpt>
      <trkpt lat="44.17005" lon="3.23734">
        <ele>849</ele>
        <time>2019-05-22T22:33:47Z</time>
      </trkpt>
      <trkpt lat="44.16993" lon="3.23716">
        <ele>849</ele>
        <time>2019-05-22T22:33:50Z</time>
      </trkpt>
      <trkpt lat="44.1699" lon="3.23701">
        <ele>849</ele>
        <time>2019-05-22T22:33:52Z</time>
      </trkpt>
      <trkpt lat="44.1699" lon="3.2365">
        <ele>854</ele>
        <time>2019-05-22T22:33:58Z</time>
      </trkpt>
      <trkpt lat="44.16988" lon="3.23636">
        <ele>855</ele>
        <time>2019-05-22T22:34:00Z</time>
      </trkpt>
      <trkpt lat="44.16968" lon="3.23602">
        <ele>854</ele>
        <time>2019-05-22T22:34:06Z</time>
      </trkpt>
      <trkpt lat="44.16966" lon="3.23564">
        <ele>858</ele>
        <time>2019-05-22T22:34:11Z</time>
      </trkpt>
      <trkpt lat="44.16962" lon="3.23547">
        <ele>859</ele>
        <time>2019-05-22T22:34:13Z</time>
      </trkpt>
      <trkpt lat="44.16949" lon="3.23526">
        <ele>858</ele>
        <time>2019-05-22T22:34:16Z</time>
      </trkpt>
      <trkpt lat="44.16933" lon="3.23506">
        <ele>857</ele>
        <time>2019-05-22T22:34:20Z</time>
      </trkpt>
      <trkpt lat="44.1692" lon="3.23477">
        <ele>858</ele>
        <time>2019-05-22T22:34:25Z</time>
      </trkpt>
      <trkpt lat="44.169" lon="3.23451">
        <ele>857</ele>
        <time>2019-05-22T22:34:29Z</time>
      </trkpt>
      <trkpt lat="44.16881" lon="3.23423">
        <ele>857</ele>
        <time>2019-05-22T22:34:34Z</time>
      </trkpt>
      <trkpt lat="44.16848" lon="3.23396">
        <ele>855</ele>
        <time>2019-05-22T22:34:41Z</time>
      </trkpt>
      <trkpt lat="44.168" lon="3.23342">
        <ele>857</ele>
        <time>2019-05-22T22:34:52Z</time>
      </trkpt>
      <trkpt lat="44.16792" lon="3.23323">
        <ele>858</ele>
        <time>2019-05-22T22:34:55Z</time>
      </trkpt>
      <trkpt lat="44.16785" lon="3.23296">
        <ele>861</ele>
        <time>2019-05-22T22:34:59Z</time>
      </trkpt>
      <trkpt lat="44.16777" lon="3.23285">
        <ele>861</ele>
        <time>2019-05-22T22:35:01Z</time>
      </trkpt>
      <trkpt lat="44.16733" lon="3.23251">
        <ele>859</ele>
        <time>2019-05-22T22:35:10Z</time>
      </trkpt>
      <trkpt lat="44.16717" lon="3.23231">
        <ele>858</ele>
        <time>2019-05-22T22:35:13Z</time>
      </trkpt>
      <trkpt lat="44.16709" lon="3.2321">
        <ele>859</ele>
        <time>2019-05-22T22:35:16Z</time>
      </trkpt>
      <trkpt lat="44.16705" lon="3.23193">
        <ele>860</ele>
        <time>2019-05-22T22:35:19Z</time>
      </trkpt>
      <trkpt lat="44.16705" lon="3.23163">
        <ele>862</ele>
        <time>2019-05-22T22:35:23Z</time>
      </trkpt>
      <trkpt lat="44.16713" lon="3.23073">
        <ele>864</ele>
        <time>2019-05-22T22:35:34Z</time>
      </trkpt>
      <trkpt lat="44.16714" lon="3.23052">
        <ele>864</ele>
        <time>2019-05-22T22:35:37Z</time>
      </trkpt>
      <trkpt lat="44.16709" lon="3.23032">
        <ele>864</ele>
        <time>2019-05-22T22:35:40Z</time>
      </trkpt>
      <trkpt lat="44.16702" lon="3.23012">
        <ele>864</ele>
        <time>2019-05-22T22:35:42Z</time>
      </trkpt>
      <trkpt lat="44.16702" lon="3.22996">
        <ele>864</ele>
        <time>2019-05-22T22:35:44Z</time>
      </trkpt>
      <trkpt lat="44.16709" lon="3.22979">
        <ele>863</ele>
        <time>2019-05-22T22:35:47Z</time>
      </trkpt>
      <trkpt lat="44.16767" lon="3.22889">
        <ele>869</ele>
        <time>2019-05-22T22:36:02Z</time>
      </trkpt>
      <trkpt lat="44.16769" lon="3.22878">
        <ele>870</ele>
        <time>2019-05-22T22:36:04Z</time>
      </trkpt>
      <trkpt lat="44.16769" lon="3.22866">
        <ele>870</ele>
        <time>2019-05-22T22:36:05Z</time>
      </trkpt>
      <trkpt lat="44.16761" lon="3.22853">
        <ele>869</ele>
        <time>2019-05-22T22:36:08Z</time>
      </trkpt>
      <trkpt lat="44.16715" lon="3.22828">
        <ele>861</ele>
        <time>2019-05-22T22:36:16Z</time>
      </trkpt>
      <trkpt lat="44.16703" lon="3.22812">
        <ele>859</ele>
        <time>2019-05-22T22:36:19Z</time>
      </trkpt>
      <trkpt lat="44.16696" lon="3.22793">
        <ele>858</ele>
        <time>2019-05-22T22:36:22Z</time>
      </trkpt>
      <trkpt lat="44.16694" lon="3.22767">
        <ele>858</ele>
        <time>2019-05-22T22:36:25Z</time>
      </trkpt>
      <trkpt lat="44.1671" lon="3.22621">
        <ele>852</ele>
        <time>2019-05-22T22:36:44Z</time>
      </trkpt>
      <trkpt lat="44.16718" lon="3.22598">
        <ele>851</ele>
        <time>2019-05-22T22:36:47Z</time>
      </trkpt>
      <trkpt lat="44.1673" lon="3.22587">
        <ele>852</ele>
        <time>2019-05-22T22:36:50Z</time>
      </trkpt>
      <trkpt lat="44.16747" lon="3.22582">
        <ele>855</ele>
        <time>2019-05-22T22:36:53Z</time>
      </trkpt>
      <trkpt lat="44.16806" lon="3.22596">
        <ele>855</ele>
        <time>2019-05-22T22:37:04Z</time>
      </trkpt>
      <trkpt lat="44.16827" lon="3.22596">
        <ele>854</ele>
        <time>2019-05-22T22:37:07Z</time>
      </trkpt>
      <trkpt lat="44.16853" lon="3.22591">
        <ele>853</ele>
        <time>2019-05-22T22:37:12Z</time>
      </trkpt>
      <trkpt lat="44.1688" lon="3.22575">
        <ele>852</ele>
        <time>2019-05-22T22:37:17Z</time>
      </trkpt>
      <trkpt lat="44.16931" lon="3.22528">
        <ele>848</ele>
        <time>2019-05-22T22:37:28Z</time>
      </trkpt>
      <trkpt lat="44.16969" lon="3.22487">
        <ele>844</ele>
        <time>2019-05-22T22:37:37Z</time>
      </trkpt>
      <trkpt lat="44.16973" lon="3.22474">
        <ele>843</ele>
        <time>2019-05-22T22:37:39Z</time>
      </trkpt>
      <trkpt lat="44.16971" lon="3.22463">
        <ele>842</ele>
        <time>2019-05-22T22:37:40Z</time>
      </trkpt>
      <trkpt lat="44.16964" lon="3.2245">
        <ele>841</ele>
        <time>2019-05-22T22:37:42Z</time>
      </trkpt>
      <trkpt lat="44.16926" lon="3.2242">
        <ele>839</ele>
        <time>2019-05-22T22:37:50Z</time>
      </trkpt>
      <trkpt lat="44.16894" lon="3.22369">
        <ele>836</ele>
        <time>2019-05-22T22:37:59Z</time>
      </trkpt>
      <trkpt lat="44.16876" lon="3.22352">
        <ele>835</ele>
        <time>2019-05-22T22:38:02Z</time>
      </trkpt>
      <trkpt lat="44.16843" lon="3.22333">
        <ele>835</ele>
        <time>2019-05-22T22:38:09Z</time>
      </trkpt>
      <trkpt lat="44.1681" lon="3.2232">
        <ele>833</ele>
        <time>2019-05-22T22:38:15Z</time>
      </trkpt>
      <trkpt lat="44.16724" lon="3.22299">
        <ele>827</ele>
        <time>2019-05-22T22:38:30Z</time>
      </trkpt>
      <trkpt lat="44.16691" lon="3.22285">
        <ele>824</ele>
        <time>2019-05-22T22:38:37Z</time>
      </trkpt>
      <trkpt lat="44.16648" lon="3.22281">
        <ele>822</ele>
        <time>2019-05-22T22:38:44Z</time>
      </trkpt>
      <trkpt lat="44.16581" lon="3.22283">
        <ele>819</ele>
        <time>2019-05-22T22:38:56Z</time>
      </trkpt>
      <trkpt lat="44.1655" lon="3.22274">
        <ele>817</ele>
        <time>2019-05-22T22:39:02Z</time>
      </trkpt>
      <trkpt lat="44.16522" lon="3.22264">
        <ele>816</ele>
        <time>2019-05-22T22:39:07Z</time>
      </trkpt>
      <trkpt lat="44.16484" lon="3.22225">
        <ele>811</ele>
        <time>2019-05-22T22:39:15Z</time>
      </trkpt>
      <trkpt lat="44.16453" lon="3.22213">
        <ele>809</ele>
        <time>2019-05-22T22:39:21Z</time>
      </trkpt>
      <trkpt lat="44.16437" lon="3.22214">
        <ele>810</ele>
        <time>2019-05-22T22:39:24Z</time>
      </trkpt>
      <trkpt lat="44.16409" lon="3.2223">
        <ele>812</ele>
        <time>2019-05-22T22:39:29Z</time>
      </trkpt>
      <trkpt lat="44.16387" lon="3.22233">
        <ele>812</ele>
        <time>2019-05-22T22:39:33Z</time>
      </trkpt>
      <trkpt lat="44.16374" lon="3.22225">
        <ele>811</ele>
        <time>2019-05-22T22:39:36Z</time>
      </trkpt>
      <trkpt lat="44.16371" lon="3.22212">
        <ele>811</ele>
        <time>2019-05-22T22:39:37Z</time>
      </trkpt>
      <trkpt lat="44.16382" lon="3.22157">
        <ele>806</ele>
        <time>2019-05-22T22:39:45Z</time>
      </trkpt>
      <trkpt lat="44.16383" lon="3.22125">
        <ele>803</ele>
        <time>2019-05-22T22:39:49Z</time>
      </trkpt>
      <trkpt lat="44.16378" lon="3.22108">
        <ele>802</ele>
        <time>2019-05-22T22:39:51Z</time>
      </trkpt>
      <trkpt lat="44.16365" lon="3.22095">
        <ele>801</ele>
        <time>2019-05-22T22:39:54Z</time>
      </trkpt>
      <trkpt lat="44.16332" lon="3.22076">
        <ele>801</ele>
        <time>2019-05-22T22:40:00Z</time>
      </trkpt>
      <trkpt lat="44.16319" lon="3.22054">
        <ele>799</ele>
        <time>2019-05-22T22:40:04Z</time>
      </trkpt>
      <trkpt lat="44.16315" lon="3.2203">
        <ele>798</ele>
        <time>2019-05-22T22:40:07Z</time>
      </trkpt>
      <trkpt lat="44.16316" lon="3.22002">
        <ele>797</ele>
        <time>2019-05-22T22:40:11Z</time>
      </trkpt>
      <trkpt lat="44.16338" lon="3.2188">
        <ele>793</ele>
        <time>2019-05-22T22:40:27Z</time>
      </trkpt>
      <trkpt lat="44.16369" lon="3.21798">
        <ele>789</ele>
        <time>2019-05-22T22:40:39Z</time>
      </trkpt>
      <trkpt lat="44.16375" lon="3.21767">
        <ele>788</ele>
        <time>2019-05-22T22:40:43Z</time>
      </trkpt>
      <trkpt lat="44.16376" lon="3.21735">
        <ele>787</ele>
        <time>2019-05-22T22:40:47Z</time>
      </trkpt>
      <trkpt lat="44.16375" lon="3.21699">
        <ele>786</ele>
        <time>2019-05-22T22:40:51Z</time>
      </trkpt>
      <trkpt lat="44.16382" lon="3.21676">
        <ele>785</ele>
        <time>2019-05-22T22:40:55Z</time>
      </trkpt>
      <trkpt lat="44.16405" lon="3.21632">
        <ele>781</ele>
        <time>2019-05-22T22:41:02Z</time>
      </trkpt>
      <trkpt lat="44.16405" lon="3.21616">
        <ele>780</ele>
        <time>2019-05-22T22:41:04Z</time>
      </trkpt>
      <trkpt lat="44.164" lon="3.21595">
        <ele>779</ele>
        <time>2019-05-22T22:41:06Z</time>
      </trkpt>
      <trkpt lat="44.16392" lon="3.21585">
        <ele>778</ele>
        <time>2019-05-22T22:41:08Z</time>
      </trkpt>
      <trkpt lat="44.1638" lon="3.21578">
        <ele>778</ele>
        <time>2019-05-22T22:41:11Z</time>
      </trkpt>
      <trkpt lat="44.16315" lon="3.21555">
        <ele>778</ele>
        <time>2019-05-22T22:41:23Z</time>
      </trkpt>
      <trkpt lat="44.16294" lon="3.21541">
        <ele>777</ele>
        <time>2019-05-22T22:41:27Z</time>
      </trkpt>
      <trkpt lat="44.16281" lon="3.21516">
        <ele>775</ele>
        <time>2019-05-22T22:41:31Z</time>
      </trkpt>
      <trkpt lat="44.16261" lon="3.21471">
        <ele>771</ele>
        <time>2019-05-22T22:41:37Z</time>
      </trkpt>
      <trkpt lat="44.16237" lon="3.21446">
        <ele>768</ele>
        <time>2019-05-22T22:41:43Z</time>
      </trkpt>
      <trkpt lat="44.16231" lon="3.21428">
        <ele>766</ele>
        <time>2019-05-22T22:41:45Z</time>
      </trkpt>
      <trkpt lat="44.16236" lon="3.21412">
        <ele>765</ele>
        <time>2019-05-22T22:41:48Z</time>
      </trkpt>
      <trkpt lat="44.16245" lon="3.21402">
        <ele>764</ele>
        <time>2019-05-22T22:41:50Z</time>
      </trkpt>
      <trkpt lat="44.16368" lon="3.21345">
        <ele>762</ele>
        <time>2019-05-22T22:42:13Z</time>
      </trkpt>
      <trkpt lat="44.16429" lon="3.213">
        <ele>762</ele>
        <time>2019-05-22T22:42:25Z</time>
      </trkpt>
      <trkpt lat="44.16448" lon="3.21291">
        <ele>762</ele>
        <time>2019-05-22T22:42:28Z</time>
      </trkpt>
      <trkpt lat="44.1648" lon="3.21283">
        <ele>761</ele>
        <time>2019-05-22T22:42:34Z</time>
      </trkpt>
      <trkpt lat="44.16529" lon="3.21262">
        <ele>760</ele>
        <time>2019-05-22T22:42:43Z</time>
      </trkpt>
      <trkpt lat="44.16549" lon="3.21241">
        <ele>759</ele>
        <time>2019-05-22T22:42:48Z</time>
      </trkpt>
      <trkpt lat="44.16552" lon="3.21227">
        <ele>758</ele>
        <time>2019-05-22T22:42:50Z</time>
      </trkpt>
      <trkpt lat="44.16553" lon="3.21192">
        <ele>756</ele>
        <time>2019-05-22T22:42:54Z</time>
      </trkpt>
      <trkpt lat="44.16561" lon="3.21167">
        <ele>754</ele>
        <time>2019-05-22T22:42:58Z</time>
      </trkpt>
      <trkpt lat="44.16581" lon="3.21126">
        <ele>751</ele>
        <time>2019-05-22T22:43:04Z</time>
      </trkpt>
      <trkpt lat="44.16602" lon="3.21095">
        <ele>748</ele>
        <time>2019-05-22T22:43:09Z</time>
      </trkpt>
      <trkpt lat="44.1663" lon="3.21069">
        <ele>746</ele>
        <time>2019-05-22T22:43:15Z</time>
      </trkpt>
      <trkpt lat="44.16641" lon="3.21047">
        <ele>746</ele>
        <time>2019-05-22T22:43:19Z</time>
      </trkpt>
      <trkpt lat="44.16658" lon="3.20982">
        <ele>746</ele>
        <time>2019-05-22T22:43:28Z</time>
      </trkpt>
      <trkpt lat="44.16674" lon="3.20959">
        <ele>745</ele>
        <time>2019-05-22T22:43:32Z</time>
      </trkpt>
      <trkpt lat="44.16689" lon="3.2095">
        <ele>744</ele>
        <time>2019-05-22T22:43:35Z</time>
      </trkpt>
      <trkpt lat="44.16707" lon="3.20945">
        <ele>743</ele>
        <time>2019-05-22T22:43:38Z</time>
      </trkpt>
      <trkpt lat="44.16745" lon="3.20945">
        <ele>740</ele>
        <time>2019-05-22T22:43:45Z</time>
      </trkpt>
      <trkpt lat="44.1676" lon="3.20955">
        <ele>739</ele>
        <time>2019-05-22T22:43:48Z</time>
      </trkpt>
      <trkpt lat="44.16844" lon="3.21032">
        <ele>732</ele>
        <time>2019-05-22T22:44:06Z</time>
      </trkpt>
      <trkpt lat="44.16876" lon="3.21056">
        <ele>733</ele>
        <time>2019-05-22T22:44:12Z</time>
      </trkpt>
      <trkpt lat="44.16892" lon="3.21059">
        <ele>733</ele>
        <time>2019-05-22T22:44:15Z</time>
      </trkpt>
      <trkpt lat="44.16911" lon="3.21058">
        <ele>733</ele>
        <time>2019-05-22T22:44:18Z</time>
      </trkpt>
      <trkpt lat="44.17046" lon="3.21003">
        <ele>735</ele>
        <time>2019-05-22T22:44:43Z</time>
      </trkpt>
      <trkpt lat="44.17146" lon="3.20958">
        <ele>736</ele>
        <time>2019-05-22T22:45:02Z</time>
      </trkpt>
      <trkpt lat="44.17174" lon="3.2094">
        <ele>736</ele>
        <time>2019-05-22T22:45:07Z</time>
      </trkpt>
      <trkpt lat="44.17206" lon="3.20911">
        <ele>737</ele>
        <time>2019-05-22T22:45:14Z</time>
      </trkpt>
      <trkpt lat="44.1726" lon="3.20838">
        <ele>736</ele>
        <time>2019-05-22T22:45:28Z</time>
      </trkpt>
      <trkpt lat="44.17293" lon="3.20801">
        <ele>734</ele>
        <time>2019-05-22T22:45:35Z</time>
      </trkpt>
      <trkpt lat="44.17316" lon="3.20784">
        <ele>734</ele>
        <time>2019-05-22T22:45:40Z</time>
      </trkpt>
      <trkpt lat="44.17329" lon="3.20779">
        <ele>735</ele>
        <time>2019-05-22T22:45:42Z</time>
      </trkpt>
      <trkpt lat="44.17344" lon="3.20782">
        <ele>734</ele>
        <time>2019-05-22T22:45:45Z</time>
      </trkpt>
      <trkpt lat="44.17366" lon="3.20804">
        <ele>734</ele>
        <time>2019-05-22T22:45:50Z</time>
      </trkpt>
      <trkpt lat="44.17378" lon="3.2081">
        <ele>734</ele>
        <time>2019-05-22T22:45:52Z</time>
      </trkpt>
      <trkpt lat="44.1743" lon="3.2081">
        <ele>729</ele>
        <time>2019-05-22T22:46:01Z</time>
      </trkpt>
      <trkpt lat="44.17476" lon="3.20817">
        <ele>725</ele>
        <time>2019-05-22T22:46:09Z</time>
      </trkpt>
      <trkpt lat="44.17494" lon="3.20827">
        <ele>725</ele>
        <time>2019-05-22T22:46:13Z</time>
      </trkpt>
      <trkpt lat="44.17494" lon="3.20827">
        <ele>725</ele>
        <time>2019-05-22T22:46:13Z</time>
      </trkpt>
      <trkpt lat="44.1752" lon="3.20834">
        <ele>722</ele>
        <time>2019-05-22T22:46:18Z</time>
      </trkpt>
      <trkpt lat="44.17533" lon="3.2084">
        <ele>720</ele>
        <time>2019-05-22T22:46:20Z</time>
      </trkpt>
      <trkpt lat="44.17556" lon="3.20856">
        <ele>718</ele>
        <time>2019-05-22T22:46:25Z</time>
      </trkpt>
      <trkpt lat="44.17576" lon="3.20861">
        <ele>715</ele>
        <time>2019-05-22T22:46:28Z</time>
      </trkpt>
      <trkpt lat="44.17599" lon="3.20864">
        <ele>713</ele>
        <time>2019-05-22T22:46:32Z</time>
      </trkpt>
      <trkpt lat="44.17614" lon="3.20874">
        <ele>713</ele>
        <time>2019-05-22T22:46:35Z</time>
      </trkpt>
      <trkpt lat="44.17655" lon="3.20915">
        <ele>714</ele>
        <time>2019-05-22T22:46:44Z</time>
      </trkpt>
      <trkpt lat="44.17666" lon="3.20922">
        <ele>714</ele>
        <time>2019-05-22T22:46:46Z</time>
      </trkpt>
      <trkpt lat="44.17675" lon="3.20921">
        <ele>715</ele>
        <time>2019-05-22T22:46:48Z</time>
      </trkpt>
      <trkpt lat="44.17692" lon="3.20906">
        <ele>714</ele>
        <time>2019-05-22T22:46:52Z</time>
      </trkpt>
      <trkpt lat="44.1774" lon="3.20853">
        <ele>708</ele>
        <time>2019-05-22T22:47:03Z</time>
      </trkpt>
      <trkpt lat="44.17763" lon="3.20837">
        <ele>707</ele>
        <time>2019-05-22T22:47:07Z</time>
      </trkpt>
      <trkpt lat="44.17777" lon="3.2082">
        <ele>706</ele>
        <time>2019-05-22T22:47:10Z</time>
      </trkpt>
      <trkpt lat="44.178" lon="3.20779">
        <ele>701</ele>
        <time>2019-05-22T22:47:17Z</time>
      </trkpt>
      <trkpt lat="44.17813" lon="3.20768">
        <ele>700</ele>
        <time>2019-05-22T22:47:20Z</time>
      </trkpt>
      <trkpt lat="44.17851" lon="3.2075">
        <ele>700</ele>
        <time>2019-05-22T22:47:27Z</time>
      </trkpt>
      <trkpt lat="44.17859" lon="3.2074">
        <ele>700</ele>
        <time>2019-05-22T22:47:29Z</time>
      </trkpt>
      <trkpt lat="44.17859" lon="3.20726">
        <ele>699</ele>
        <time>2019-05-22T22:47:31Z</time>
      </trkpt>
      <trkpt lat="44.17855" lon="3.20716">
        <ele>697</ele>
        <time>2019-05-22T22:47:32Z</time>
      </trkpt>
      <trkpt lat="44.17845" lon="3.207">
        <ele>693</ele>
        <time>2019-05-22T22:47:35Z</time>
      </trkpt>
      <trkpt lat="44.17843" lon="3.2068">
        <ele>690</ele>
        <time>2019-05-22T22:47:37Z</time>
      </trkpt>
      <trkpt lat="44.17847" lon="3.2066">
        <ele>689</ele>
        <time>2019-05-22T22:47:40Z</time>
      </trkpt>
      <trkpt lat="44.17855" lon="3.20645">
        <ele>689</ele>
        <time>2019-05-22T22:47:42Z</time>
      </trkpt>
      <trkpt lat="44.17925" lon="3.20555">
        <ele>683</ele>
        <time>2019-05-22T22:47:59Z</time>
      </trkpt>
      <trkpt lat="44.17956" lon="3.2053">
        <ele>680</ele>
        <time>2019-05-22T22:48:06Z</time>
      </trkpt>
      <trkpt lat="44.17987" lon="3.20514">
        <ele>679</ele>
        <time>2019-05-22T22:48:12Z</time>
      </trkpt>
      <trkpt lat="44.18006" lon="3.20485">
        <ele>668</ele>
        <time>2019-05-22T22:48:17Z</time>
      </trkpt>
      <trkpt lat="44.18012" lon="3.20483">
        <ele>665</ele>
        <time>2019-05-22T22:48:18Z</time>
      </trkpt>
      <trkpt lat="44.1802" lon="3.2049">
        <ele>665</ele>
        <time>2019-05-22T22:48:19Z</time>
      </trkpt>
      <trkpt lat="44.18041" lon="3.20523">
        <ele>672</ele>
        <time>2019-05-22T22:48:25Z</time>
      </trkpt>
      <trkpt lat="44.18061" lon="3.20537">
        <ele>673</ele>
        <time>2019-05-22T22:48:29Z</time>
      </trkpt>
      <trkpt lat="44.18121" lon="3.20568">
        <ele>669</ele>
        <time>2019-05-22T22:48:40Z</time>
      </trkpt>
      <trkpt lat="44.18156" lon="3.20581">
        <ele>662</ele>
        <time>2019-05-22T22:48:47Z</time>
      </trkpt>
      <trkpt lat="44.18183" lon="3.20599">
        <ele>664</ele>
        <time>2019-05-22T22:48:52Z</time>
      </trkpt>
      <trkpt lat="44.18204" lon="3.20602">
        <ele>662</ele>
        <time>2019-05-22T22:48:56Z</time>
      </trkpt>
      <trkpt lat="44.18252" lon="3.20605">
        <ele>653</ele>
        <time>2019-05-22T22:49:04Z</time>
      </trkpt>
      <trkpt lat="44.18309" lon="3.20616">
        <ele>647</ele>
        <time>2019-05-22T22:49:15Z</time>
      </trkpt>
      <trkpt lat="44.18335" lon="3.20632">
        <ele>649</ele>
        <time>2019-05-22T22:49:20Z</time>
      </trkpt>
      <trkpt lat="44.18364" lon="3.20659">
        <ele>647</ele>
        <time>2019-05-22T22:49:26Z</time>
      </trkpt>
      <trkpt lat="44.18422" lon="3.20723">
        <ele>632</ele>
        <time>2019-05-22T22:49:39Z</time>
      </trkpt>
      <trkpt lat="44.18436" lon="3.20742">
        <ele>626</ele>
        <time>2019-05-22T22:49:43Z</time>
      </trkpt>
      <trkpt lat="44.18438" lon="3.20762">
        <ele>626</ele>
        <time>2019-05-22T22:49:45Z</time>
      </trkpt>
      <trkpt lat="44.18434" lon="3.2078">
        <ele>627</ele>
        <time>2019-05-22T22:49:48Z</time>
      </trkpt>
      <trkpt lat="44.18425" lon="3.20799">
        <ele>633</ele>
        <time>2019-05-22T22:49:50Z</time>
      </trkpt>
      <trkpt lat="44.18426" lon="3.20809">
        <ele>632</ele>
        <time>2019-05-22T22:49:52Z</time>
      </trkpt>
      <trkpt lat="44.18431" lon="3.20809">
        <ele>628</ele>
        <time>2019-05-22T22:49:53Z</time>
      </trkpt>
      <trkpt lat="44.18439" lon="3.20801">
        <ele>622</ele>
        <time>2019-05-22T22:49:54Z</time>
      </trkpt>
      <trkpt lat="44.1845" lon="3.2077">
        <ele>617</ele>
        <time>2019-05-22T22:49:59Z</time>
      </trkpt>
      <trkpt lat="44.18451" lon="3.20753">
        <ele>617</ele>
        <time>2019-05-22T22:50:01Z</time>
      </trkpt>
      <trkpt lat="44.1845" lon="3.20741">
        <ele>616</ele>
        <time>2019-05-22T22:50:03Z</time>
      </trkpt>
      <trkpt lat="44.18434" lon="3.20701">
        <ele>619</ele>
        <time>2019-05-22T22:50:08Z</time>
      </trkpt>
      <trkpt lat="44.18421" lon="3.20685">
        <ele>624</ele>
        <time>2019-05-22T22:50:11Z</time>
      </trkpt>
      <trkpt lat="44.18364" lon="3.20586">
        <ele>616</ele>
        <time>2019-05-22T22:50:28Z</time>
      </trkpt>
      <trkpt lat="44.18348" lon="3.20567">
        <ele>613</ele>
        <time>2019-05-22T22:50:31Z</time>
      </trkpt>
      <trkpt lat="44.18328" lon="3.20554">
        <ele>613</ele>
        <time>2019-05-22T22:50:35Z</time>
      </trkpt>
      <trkpt lat="44.18238" lon="3.20511">
        <ele>607</ele>
        <time>2019-05-22T22:50:52Z</time>
      </trkpt>
      <trkpt lat="44.18195" lon="3.205">
        <ele>609</ele>
        <time>2019-05-22T22:51:00Z</time>
      </trkpt>
      <trkpt lat="44.18165" lon="3.20484">
        <ele>606</ele>
        <time>2019-05-22T22:51:06Z</time>
      </trkpt>
      <trkpt lat="44.18134" lon="3.2046">
        <ele>610</ele>
        <time>2019-05-22T22:51:12Z</time>
      </trkpt>
      <trkpt lat="44.18118" lon="3.20433">
        <ele>606</ele>
        <time>2019-05-22T22:51:17Z</time>
      </trkpt>
      <trkpt lat="44.18103" lon="3.20395">
        <ele>602</ele>
        <time>2019-05-22T22:51:22Z</time>
      </trkpt>
      <trkpt lat="44.18083" lon="3.20376">
        <ele>607</ele>
        <time>2019-05-22T22:51:26Z</time>
      </trkpt>
      <trkpt lat="44.18082" lon="3.20364">
        <ele>605</ele>
        <time>2019-05-22T22:51:28Z</time>
      </trkpt>
      <trkpt lat="44.18086" lon="3.2036">
        <ele>602</ele>
        <time>2019-05-22T22:51:29Z</time>
      </trkpt>
      <trkpt lat="44.18093" lon="3.20361">
        <ele>599</ele>
        <time>2019-05-22T22:51:30Z</time>
      </trkpt>
      <trkpt lat="44.18099" lon="3.20368">
        <ele>598</ele>
        <time>2019-05-22T22:51:31Z</time>
      </trkpt>
      <trkpt lat="44.18117" lon="3.20405">
        <ele>597</ele>
        <time>2019-05-22T22:51:37Z</time>
      </trkpt>
      <trkpt lat="44.18137" lon="3.20435">
        <ele>597</ele>
        <time>2019-05-22T22:51:42Z</time>
      </trkpt>
      <trkpt lat="44.18153" lon="3.20449">
        <ele>596</ele>
        <time>2019-05-22T22:51:46Z</time>
      </trkpt>
      <trkpt lat="44.1818" lon="3.20458">
        <ele>591</ele>
        <time>2019-05-22T22:51:51Z</time>
      </trkpt>
      <trkpt lat="44.18214" lon="3.20461">
        <ele>587</ele>
        <time>2019-05-22T22:51:57Z</time>
      </trkpt>
      <trkpt lat="44.18248" lon="3.20455">
        <ele>577</ele>
        <time>2019-05-22T22:52:03Z</time>
      </trkpt>
      <trkpt lat="44.18269" lon="3.20459">
        <ele>576</ele>
        <time>2019-05-22T22:52:07Z</time>
      </trkpt>
      <trkpt lat="44.18303" lon="3.20471">
        <ele>577</ele>
        <time>2019-05-22T22:52:13Z</time>
      </trkpt>
      <trkpt lat="44.18323" lon="3.20474">
        <ele>575</ele>
        <time>2019-05-22T22:52:16Z</time>
      </trkpt>
      <trkpt lat="44.18361" lon="3.20474">
        <ele>565</ele>
        <time>2019-05-22T22:52:23Z</time>
      </trkpt>
      <trkpt lat="44.1838" lon="3.20483">
        <ele>564</ele>
        <time>2019-05-22T22:52:27Z</time>
      </trkpt>
      <trkpt lat="44.18403" lon="3.20498">
        <ele>563</ele>
        <time>2019-05-22T22:52:31Z</time>
      </trkpt>
      <trkpt lat="44.18431" lon="3.20527">
        <ele>565</ele>
        <time>2019-05-22T22:52:37Z</time>
      </trkpt>
      <trkpt lat="44.18486" lon="3.20612">
        <ele>565</ele>
        <time>2019-05-22T22:52:52Z</time>
      </trkpt>
      <trkpt lat="44.18502" lon="3.2063">
        <ele>561</ele>
        <time>2019-05-22T22:52:56Z</time>
      </trkpt>
      <trkpt lat="44.1854" lon="3.20652">
        <ele>547</ele>
        <time>2019-05-22T22:53:03Z</time>
      </trkpt>
      <trkpt lat="44.18546" lon="3.20663">
        <ele>547</ele>
        <time>2019-05-22T22:53:05Z</time>
      </trkpt>
      <trkpt lat="44.18548" lon="3.20682">
        <ele>547</ele>
        <time>2019-05-22T22:53:07Z</time>
      </trkpt>
      <trkpt lat="44.18546" lon="3.20726">
        <ele>550</ele>
        <time>2019-05-22T22:53:13Z</time>
      </trkpt>
      <trkpt lat="44.18548" lon="3.20817">
        <ele>544</ele>
        <time>2019-05-22T22:53:25Z</time>
      </trkpt>
      <trkpt lat="44.18515" lon="3.20958">
        <ele>538</ele>
        <time>2019-05-22T22:53:43Z</time>
      </trkpt>
      <trkpt lat="44.18499" lon="3.20997">
        <ele>535</ele>
        <time>2019-05-22T22:53:49Z</time>
      </trkpt>
      <trkpt lat="44.1848" lon="3.21033">
        <ele>532</ele>
        <time>2019-05-22T22:53:55Z</time>
      </trkpt>
      <trkpt lat="44.18468" lon="3.21046">
        <ele>533</ele>
        <time>2019-05-22T22:53:58Z</time>
      </trkpt>
      <trkpt lat="44.18456" lon="3.21053">
        <ele>536</ele>
        <time>2019-05-22T22:54:00Z</time>
      </trkpt>
      <trkpt lat="44.18387" lon="3.21079">
        <ele>554</ele>
        <time>2019-05-22T22:54:13Z</time>
      </trkpt>
      <trkpt lat="44.18378" lon="3.21088">
        <ele>552</ele>
        <time>2019-05-22T22:54:15Z</time>
      </trkpt>
      <trkpt lat="44.1837" lon="3.21102">
        <ele>548</ele>
        <time>2019-05-22T22:54:17Z</time>
      </trkpt>
      <trkpt lat="44.18343" lon="3.21128">
        <ele>548</ele>
        <time>2019-05-22T22:54:23Z</time>
      </trkpt>
      <trkpt lat="44.18341" lon="3.21138">
        <ele>543</ele>
        <time>2019-05-22T22:54:24Z</time>
      </trkpt>
      <trkpt lat="44.18344" lon="3.21145">
        <ele>538</ele>
        <time>2019-05-22T22:54:25Z</time>
      </trkpt>
      <trkpt lat="44.18348" lon="3.21146">
        <ele>535</ele>
        <time>2019-05-22T22:54:26Z</time>
      </trkpt>
      <trkpt lat="44.18354" lon="3.21141">
        <ele>535</ele>
        <time>2019-05-22T22:54:27Z</time>
      </trkpt>
      <trkpt lat="44.18363" lon="3.2112">
        <ele>542</ele>
        <time>2019-05-22T22:54:30Z</time>
      </trkpt>
      <trkpt lat="44.18382" lon="3.21098">
        <ele>545</ele>
        <time>2019-05-22T22:54:35Z</time>
      </trkpt>
      <trkpt lat="44.1839" lon="3.21091">
        <ele>545</ele>
        <time>2019-05-22T22:54:36Z</time>
      </trkpt>
      <trkpt lat="44.18451" lon="3.21078">
        <ele>526</ele>
        <time>2019-05-22T22:54:47Z</time>
      </trkpt>
      <trkpt lat="44.18479" lon="3.21077">
        <ele>513</ele>
        <time>2019-05-22T22:54:52Z</time>
      </trkpt>
      <trkpt lat="44.185" lon="3.2107">
        <ele>506</ele>
        <time>2019-05-22T22:54:56Z</time>
      </trkpt>
      <trkpt lat="44.18514" lon="3.21062">
        <ele>505</ele>
        <time>2019-05-22T22:54:59Z</time>
      </trkpt>
      <trkpt lat="44.18531" lon="3.21038">
        <ele>507</ele>
        <time>2019-05-22T22:55:03Z</time>
      </trkpt>
      <trkpt lat="44.1856" lon="3.2101">
        <ele>504</ele>
        <time>2019-05-22T22:55:09Z</time>
      </trkpt>
      <trkpt lat="44.18569" lon="3.20997">
        <ele>503</ele>
        <time>2019-05-22T22:55:12Z</time>
      </trkpt>
      <trkpt lat="44.18583" lon="3.20968">
        <ele>501</ele>
        <time>2019-05-22T22:55:16Z</time>
      </trkpt>
      <trkpt lat="44.1859" lon="3.2095">
        <ele>500</ele>
        <time>2019-05-22T22:55:19Z</time>
      </trkpt>
      <trkpt lat="44.18597" lon="3.2091">
        <ele>502</ele>
        <time>2019-05-22T22:55:24Z</time>
      </trkpt>
      <trkpt lat="44.18604" lon="3.20891">
        <ele>501</ele>
        <time>2019-05-22T22:55:27Z</time>
      </trkpt>
      <trkpt lat="44.18625" lon="3.20852">
        <ele>494</ele>
        <time>2019-05-22T22:55:33Z</time>
      </trkpt>
      <trkpt lat="44.18632" lon="3.20827">
        <ele>493</ele>
        <time>2019-05-22T22:55:36Z</time>
      </trkpt>
      <trkpt lat="44.18638" lon="3.20762">
        <ele>493</ele>
        <time>2019-05-22T22:55:45Z</time>
      </trkpt>
      <trkpt lat="44.18641" lon="3.20736">
        <ele>493</ele>
        <time>2019-05-22T22:55:48Z</time>
      </trkpt>
      <trkpt lat="44.18645" lon="3.20721">
        <ele>492</ele>
        <time>2019-05-22T22:55:50Z</time>
      </trkpt>
      <trkpt lat="44.18684" lon="3.20637">
        <ele>474</ele>
        <time>2019-05-22T22:56:03Z</time>
      </trkpt>
      <trkpt lat="44.18687" lon="3.20616">
        <ele>471</ele>
        <time>2019-05-22T22:56:06Z</time>
      </trkpt>
      <trkpt lat="44.18684" lon="3.20596">
        <ele>470</ele>
        <time>2019-05-22T22:56:08Z</time>
      </trkpt>
      <trkpt lat="44.18673" lon="3.20579">
        <ele>471</ele>
        <time>2019-05-22T22:56:11Z</time>
      </trkpt>
      <trkpt lat="44.1866" lon="3.20566">
        <ele>473</ele>
        <time>2019-05-22T22:56:14Z</time>
      </trkpt>
      <trkpt lat="44.18628" lon="3.20544">
        <ele>480</ele>
        <time>2019-05-22T22:56:20Z</time>
      </trkpt>
      <trkpt lat="44.18616" lon="3.20528">
        <ele>480</ele>
        <time>2019-05-22T22:56:23Z</time>
      </trkpt>
      <trkpt lat="44.1859" lon="3.20457">
        <ele>474</ele>
        <time>2019-05-22T22:56:33Z</time>
      </trkpt>
      <trkpt lat="44.18587" lon="3.20412">
        <ele>467</ele>
        <time>2019-05-22T22:56:39Z</time>
      </trkpt>
      <trkpt lat="44.1858" lon="3.20394">
        <ele>467</ele>
        <time>2019-05-22T22:56:42Z</time>
      </trkpt>
      <trkpt lat="44.18571" lon="3.20383">
        <ele>469</ele>
        <time>2019-05-22T22:56:44Z</time>
      </trkpt>
      <trkpt lat="44.18565" lon="3.20373">
        <ele>470</ele>
        <time>2019-05-22T22:56:46Z</time>
      </trkpt>
      <trkpt lat="44.18565" lon="3.20359">
        <ele>469</ele>
        <time>2019-05-22T22:56:47Z</time>
      </trkpt>
      <trkpt lat="44.18571" lon="3.20349">
        <ele>467</ele>
        <time>2019-05-22T22:56:49Z</time>
      </trkpt>
      <trkpt lat="44.18577" lon="3.20346">
        <ele>465</ele>
        <time>2019-05-22T22:56:50Z</time>
      </trkpt>
      <trkpt lat="44.18588" lon="3.20351">
        <ele>465</ele>
        <time>2019-05-22T22:56:52Z</time>
      </trkpt>
      <trkpt lat="44.18633" lon="3.20408">
        <ele>464</ele>
        <time>2019-05-22T22:57:03Z</time>
      </trkpt>
      <trkpt lat="44.18659" lon="3.20459">
        <ele>460</ele>
        <time>2019-05-22T22:57:11Z</time>
      </trkpt>
      <trkpt lat="44.18673" lon="3.20478">
        <ele>457</ele>
        <time>2019-05-22T22:57:15Z</time>
      </trkpt>
      <trkpt lat="44.18691" lon="3.20492">
        <ele>454</ele>
        <time>2019-05-22T22:57:18Z</time>
      </trkpt>
      <trkpt lat="44.18716" lon="3.20505">
        <ele>452</ele>
        <time>2019-05-22T22:57:23Z</time>
      </trkpt>
      <trkpt lat="44.18767" lon="3.20519">
        <ele>450</ele>
        <time>2019-05-22T22:57:32Z</time>
      </trkpt>
      <trkpt lat="44.18786" lon="3.20529">
        <ele>452</ele>
        <time>2019-05-22T22:57:36Z</time>
      </trkpt>
      <trkpt lat="44.18805" lon="3.20547">
        <ele>450</ele>
        <time>2019-05-22T22:57:40Z</time>
      </trkpt>
      <trkpt lat="44.18823" lon="3.20573">
        <ele>445</ele>
        <time>2019-05-22T22:57:44Z</time>
      </trkpt>
      <trkpt lat="44.18839" lon="3.20602">
        <ele>440</ele>
        <time>2019-05-22T22:57:49Z</time>
      </trkpt>
      <trkpt lat="44.18847" lon="3.20623">
        <ele>438</ele>
        <time>2019-05-22T22:57:52Z</time>
      </trkpt>
      <trkpt lat="44.18853" lon="3.20664">
        <ele>434</ele>
        <time>2019-05-22T22:57:58Z</time>
      </trkpt>
      <trkpt lat="44.18853" lon="3.20681">
        <ele>433</ele>
        <time>2019-05-22T22:58:00Z</time>
      </trkpt>
      <trkpt lat="44.18852" lon="3.20699">
        <ele>432</ele>
        <time>2019-05-22T22:58:02Z</time>
      </trkpt>
      <trkpt lat="44.18846" lon="3.20715">
        <ele>432</ele>
        <time>2019-05-22T22:58:04Z</time>
      </trkpt>
      <trkpt lat="44.18836" lon="3.20731">
        <ele>432</ele>
        <time>2019-05-22T22:58:07Z</time>
      </trkpt>
      <trkpt lat="44.18807" lon="3.20758">
        <ele>433</ele>
        <time>2019-05-22T22:58:13Z</time>
      </trkpt>
      <trkpt lat="44.18796" lon="3.20778">
        <ele>434</ele>
        <time>2019-05-22T22:58:16Z</time>
      </trkpt>
      <trkpt lat="44.18796" lon="3.2079">
        <ele>433</ele>
        <time>2019-05-22T22:58:18Z</time>
      </trkpt>
      <trkpt lat="44.18821" lon="3.20901">
        <ele>425</ele>
        <time>2019-05-22T22:58:33Z</time>
      </trkpt>
      <trkpt lat="44.18824" lon="3.20921">
        <ele>423</ele>
        <time>2019-05-22T22:58:35Z</time>
      </trkpt>
      <trkpt lat="44.18826" lon="3.20942">
        <ele>422</ele>
        <time>2019-05-22T22:58:38Z</time>
      </trkpt>
      <trkpt lat="44.18836" lon="3.20964">
        <ele>419</ele>
        <time>2019-05-22T22:58:41Z</time>
      </trkpt>
      <trkpt lat="44.18856" lon="3.20978">
        <ele>418</ele>
        <time>2019-05-22T22:58:45Z</time>
      </trkpt>
      <trkpt lat="44.1887" lon="3.20994">
        <ele>416</ele>
        <time>2019-05-22T22:58:49Z</time>
      </trkpt>
      <trkpt lat="44.18891" lon="3.21023">
        <ele>414</ele>
        <time>2019-05-22T22:58:54Z</time>
      </trkpt>
      <trkpt lat="44.18939" lon="3.21057">
        <ele>408</ele>
        <time>2019-05-22T22:59:03Z</time>
      </trkpt>
      <trkpt lat="44.18952" lon="3.2106">
        <ele>406</ele>
        <time>2019-05-22T22:59:06Z</time>
      </trkpt>
      <trkpt lat="44.18962" lon="3.21054">
        <ele>404</ele>
        <time>2019-05-22T22:59:08Z</time>
      </trkpt>
      <trkpt lat="44.18972" lon="3.21041">
        <ele>403</ele>
        <time>2019-05-22T22:59:10Z</time>
      </trkpt>
      <trkpt lat="44.18979" lon="3.21018">
        <ele>403</ele>
        <time>2019-05-22T22:59:13Z</time>
      </trkpt>
      <trkpt lat="44.18995" lon="3.20952">
        <ele>400</ele>
        <time>2019-05-22T22:59:22Z</time>
      </trkpt>
      <trkpt lat="44.19002" lon="3.20948">
        <ele>399</ele>
        <time>2019-05-22T22:59:24Z</time>
      </trkpt>
      <trkpt lat="44.19047" lon="3.20954">
        <ele>406</ele>
        <time>2019-05-22T22:59:32Z</time>
      </trkpt>
      <trkpt lat="44.19052" lon="3.20903">
        <ele>404</ele>
        <time>2019-05-22T22:59:38Z</time>
      </trkpt>
      <trkpt lat="44.19055" lon="3.20858">
        <ele>403</ele>
        <time>2019-05-22T22:59:44Z</time>
      </trkpt>
      <trkpt lat="44.19066" lon="3.20764">
        <ele>400</ele>
        <time>2019-05-22T22:59:56Z</time>
      </trkpt>
      <trkpt lat="44.19068" lon="3.2076">
        <ele>400</ele>
        <time>2019-05-22T22:59:57Z</time>
      </trkpt>
      <trkpt lat="44.19161" lon="3.20708">
        <ele>407</ele>
        <time>2019-05-22T23:00:15Z</time>
      </trkpt>
      <trkpt lat="44.19185" lon="3.20703">
        <ele>406</ele>
        <time>2019-05-22T23:00:19Z</time>
      </trkpt>
      <trkpt lat="44.19211" lon="3.20707">
        <ele>406</ele>
        <time>2019-05-22T23:00:24Z</time>
      </trkpt>
      <trkpt lat="44.19236" lon="3.20721">
        <ele>407</ele>
        <time>2019-05-22T23:00:28Z</time>
      </trkpt>
      <trkpt lat="44.19282" lon="3.20772">
        <ele>408</ele>
        <time>2019-05-22T23:00:39Z</time>
      </trkpt>
      <trkpt lat="44.19295" lon="3.20793">
        <ele>409</ele>
        <time>2019-05-22T23:00:42Z</time>
      </trkpt>
      <trkpt lat="44.1932" lon="3.20843">
        <ele>411</ele>
        <time>2019-05-22T23:00:50Z</time>
      </trkpt>
      <trkpt lat="44.19327" lon="3.20848">
        <ele>410</ele>
        <time>2019-05-22T23:00:52Z</time>
      </trkpt>
      <trkpt lat="44.19337" lon="3.20845">
        <ele>407</ele>
        <time>2019-05-22T23:00:53Z</time>
      </trkpt>
      <trkpt lat="44.19424" lon="3.20801">
        <ele>394</ele>
        <time>2019-05-22T23:01:10Z</time>
      </trkpt>
      <trkpt lat="44.19436" lon="3.208">
        <ele>396</ele>
        <time>2019-05-22T23:01:12Z</time>
      </trkpt>
      <trkpt lat="44.19462" lon="3.2081">
        <ele>400</ele>
        <time>2019-05-22T23:01:17Z</time>
      </trkpt>
      <trkpt lat="44.19449" lon="3.20704">
        <ele>399</ele>
        <time>2019-05-22T23:01:30Z</time>
      </trkpt>
      <trkpt lat="44.19451" lon="3.20673">
        <ele>398</ele>
        <time>2019-05-22T23:01:34Z</time>
      </trkpt>
      <trkpt lat="44.19456" lon="3.20636">
        <ele>398</ele>
        <time>2019-05-22T23:01:39Z</time>
      </trkpt>
      <trkpt lat="44.19457" lon="3.20594">
        <ele>397</ele>
        <time>2019-05-22T23:01:45Z</time>
      </trkpt>
      <trkpt lat="44.19446" lon="3.2049">
        <ele>395</ele>
        <time>2019-05-22T23:01:58Z</time>
      </trkpt>
      <trkpt lat="44.19451" lon="3.20468">
        <ele>396</ele>
        <time>2019-05-22T23:02:01Z</time>
      </trkpt>
      <trkpt lat="44.19469" lon="3.20426">
        <ele>398</ele>
        <time>2019-05-22T23:02:07Z</time>
      </trkpt>
      <trkpt lat="44.19485" lon="3.20368">
        <ele>399</ele>
        <time>2019-05-22T23:02:15Z</time>
      </trkpt>
      <trkpt lat="44.19508" lon="3.20229">
        <ele>399</ele>
        <time>2019-05-22T23:02:33Z</time>
      </trkpt>
      <trkpt lat="44.19531" lon="3.20146">
        <ele>400</ele>
        <time>2019-05-22T23:02:45Z</time>
      </trkpt>
      <trkpt lat="44.19547" lon="3.20065">
        <ele>398</ele>
        <time>2019-05-22T23:02:55Z</time>
      </trkpt>
      <trkpt lat="44.19559" lon="3.20029">
        <ele>396</ele>
        <time>2019-05-22T23:03:00Z</time>
      </trkpt>
      <trkpt lat="44.19628" lon="3.19913">
        <ele>398</ele>
        <time>2019-05-22T23:03:20Z</time>
      </trkpt>
      <trkpt lat="44.19628" lon="3.19913">
        <ele>398</ele>
        <time>2019-05-22T23:03:20Z</time>
      </trkpt>
      <trkpt lat="44.1969" lon="3.19808">
        <ele>399</ele>
        <time>2019-05-22T23:03:37Z</time>
      </trkpt>
      <trkpt lat="44.19707" lon="3.19773">
        <ele>398</ele>
        <time>2019-05-22T23:03:42Z</time>
      </trkpt>
      <trkpt lat="44.1972" lon="3.19732">
        <ele>397</ele>
        <time>2019-05-22T23:03:48Z</time>
      </trkpt>
      <trkpt lat="44.19759" lon="3.19577">
        <ele>399</ele>
        <time>2019-05-22T23:04:09Z</time>
      </trkpt>
      <trkpt lat="44.19769" lon="3.19545">
        <ele>400</ele>
        <time>2019-05-22T23:04:14Z</time>
      </trkpt>
      <trkpt lat="44.19859" lon="3.19315">
        <ele>399</ele>
        <time>2019-05-22T23:04:47Z</time>
      </trkpt>
      <trkpt lat="44.1987" lon="3.19261">
        <ele>397</ele>
        <time>2019-05-22T23:04:54Z</time>
      </trkpt>
      <trkpt lat="44.19875" lon="3.19228">
        <ele>397</ele>
        <time>2019-05-22T23:04:58Z</time>
      </trkpt>
      <trkpt lat="44.19879" lon="3.19155">
        <ele>396</ele>
        <time>2019-05-22T23:05:08Z</time>
      </trkpt>
      <trkpt lat="44.19877" lon="3.19115">
        <ele>397</ele>
        <time>2019-05-22T23:05:13Z</time>
      </trkpt>
      <trkpt lat="44.19866" lon="3.19079">
        <ele>397</ele>
        <time>2019-05-22T23:05:18Z</time>
      </trkpt>
      <trkpt lat="44.19792" lon="3.18933">
        <ele>394</ele>
        <time>2019-05-22T23:05:41Z</time>
      </trkpt>
      <trkpt lat="44.19774" lon="3.18907">
        <ele>395</ele>
        <time>2019-05-22T23:05:45Z</time>
      </trkpt>
      <trkpt lat="44.19763" lon="3.18897">
        <ele>395</ele>
        <time>2019-05-22T23:05:48Z</time>
      </trkpt>
      <trkpt lat="44.1974" lon="3.18882">
        <ele>396</ele>
        <time>2019-05-22T23:05:52Z</time>
      </trkpt>
      <trkpt lat="44.19686" lon="3.18857">
        <ele>395</ele>
        <time>2019-05-22T23:06:02Z</time>
      </trkpt>
      <trkpt lat="44.1967" lon="3.18843">
        <ele>395</ele>
        <time>2019-05-22T23:06:06Z</time>
      </trkpt>
      <trkpt lat="44.19656" lon="3.18822">
        <ele>396</ele>
        <time>2019-05-22T23:06:09Z</time>
      </trkpt>
      <trkpt lat="44.19644" lon="3.18792">
        <ele>397</ele>
        <time>2019-05-22T23:06:14Z</time>
      </trkpt>
      <trkpt lat="44.19639" lon="3.18769">
        <ele>398</ele>
        <time>2019-05-22T23:06:17Z</time>
      </trkpt>
      <trkpt lat="44.19637" lon="3.18735">
        <ele>399</ele>
        <time>2019-05-22T23:06:21Z</time>
      </trkpt>
      <trkpt lat="44.19638" lon="3.18706">
        <ele>398</ele>
        <time>2019-05-22T23:06:25Z</time>
      </trkpt>
      <trkpt lat="44.19642" lon="3.18686">
        <ele>399</ele>
        <time>2019-05-22T23:06:27Z</time>
      </trkpt>
      <trkpt lat="44.1965" lon="3.18657">
        <ele>399</ele>
        <time>2019-05-22T23:06:31Z</time>
      </trkpt>
      <trkpt lat="44.19669" lon="3.18618">
        <ele>398</ele>
        <time>2019-05-22T23:06:37Z</time>
      </trkpt>
      <trkpt lat="44.19679" lon="3.18603">
        <ele>397</ele>
        <time>2019-05-22T23:06:40Z</time>
      </trkpt>
      <trkpt lat="44.19697" lon="3.18584">
        <ele>397</ele>
        <time>2019-05-22T23:06:44Z</time>
      </trkpt>
      <trkpt lat="44.19873" lon="3.18464">
        <ele>403</ele>
        <time>2019-05-22T23:07:19Z</time>
      </trkpt>
      <trkpt lat="44.19908" lon="3.18424">
        <ele>403</ele>
        <time>2019-05-22T23:07:27Z</time>
      </trkpt>
      <trkpt lat="44.1993" lon="3.18387">
        <ele>403</ele>
        <time>2019-05-22T23:07:33Z</time>
      </trkpt>
      <trkpt lat="44.19947" lon="3.18348">
        <ele>402</ele>
        <time>2019-05-22T23:07:39Z</time>
      </trkpt>
      <trkpt lat="44.19963" lon="3.18309">
        <ele>403</ele>
        <time>2019-05-22T23:07:45Z</time>
      </trkpt>
      <trkpt lat="44.19972" lon="3.18274">
        <ele>403</ele>
        <time>2019-05-22T23:07:49Z</time>
      </trkpt>
      <trkpt lat="44.19977" lon="3.18241">
        <ele>403</ele>
        <time>2019-05-22T23:07:54Z</time>
      </trkpt>
      <trkpt lat="44.19978" lon="3.1821">
        <ele>402</ele>
        <time>2019-05-22T23:07:58Z</time>
      </trkpt>
      <trkpt lat="44.19973" lon="3.18146">
        <ele>399</ele>
        <time>2019-05-22T23:08:06Z</time>
      </trkpt>
      <trkpt lat="44.19973" lon="3.18109">
        <ele>398</ele>
        <time>2019-05-22T23:08:11Z</time>
      </trkpt>
      <trkpt lat="44.19975" lon="3.18077">
        <ele>398</ele>
        <time>2019-05-22T23:08:15Z</time>
      </trkpt>
      <trkpt lat="44.19982" lon="3.18037">
        <ele>397</ele>
        <time>2019-05-22T23:08:20Z</time>
      </trkpt>
      <trkpt lat="44.19995" lon="3.17993">
        <ele>397</ele>
        <time>2019-05-22T23:08:26Z</time>
      </trkpt>
      <trkpt lat="44.20029" lon="3.17897">
        <ele>397</ele>
        <time>2019-05-22T23:08:40Z</time>
      </trkpt>
      <trkpt lat="44.20068" lon="3.17807">
        <ele>397</ele>
        <time>2019-05-22T23:08:53Z</time>
      </trkpt>
      <trkpt lat="44.20081" lon="3.17766">
        <ele>395</ele>
        <time>2019-05-22T23:08:59Z</time>
      </trkpt>
      <trkpt lat="44.20098" lon="3.1766">
        <ele>395</ele>
        <time>2019-05-22T23:09:13Z</time>
      </trkpt>
      <trkpt lat="44.20104" lon="3.17611">
        <ele>395</ele>
        <time>2019-05-22T23:09:19Z</time>
      </trkpt>
      <trkpt lat="44.20105" lon="3.17559">
        <ele>393</ele>
        <time>2019-05-22T23:09:26Z</time>
      </trkpt>
      <trkpt lat="44.20108" lon="3.17527">
        <ele>392</ele>
        <time>2019-05-22T23:09:30Z</time>
      </trkpt>
      <trkpt lat="44.20112" lon="3.17506">
        <ele>392</ele>
        <time>2019-05-22T23:09:33Z</time>
      </trkpt>
      <trkpt lat="44.20123" lon="3.17462">
        <ele>392</ele>
        <time>2019-05-22T23:09:38Z</time>
      </trkpt>
      <trkpt lat="44.20135" lon="3.17426">
        <ele>392</ele>
        <time>2019-05-22T23:09:44Z</time>
      </trkpt>
      <trkpt lat="44.2015" lon="3.17392">
        <ele>391</ele>
        <time>2019-05-22T23:09:49Z</time>
      </trkpt>
      <trkpt lat="44.20167" lon="3.17365">
        <ele>390</ele>
        <time>2019-05-22T23:09:53Z</time>
      </trkpt>
      <trkpt lat="44.20173" lon="3.1735">
        <ele>390</ele>
        <time>2019-05-22T23:09:55Z</time>
      </trkpt>
      <trkpt lat="44.20178" lon="3.17327">
        <ele>388</ele>
        <time>2019-05-22T23:09:58Z</time>
      </trkpt>
      <trkpt lat="44.20181" lon="3.17246">
        <ele>389</ele>
        <time>2019-05-22T23:10:09Z</time>
      </trkpt>
      <trkpt lat="44.20179" lon="3.17203">
        <ele>392</ele>
        <time>2019-05-22T23:10:14Z</time>
      </trkpt>
      <trkpt lat="44.20161" lon="3.17098">
        <ele>392</ele>
        <time>2019-05-22T23:10:28Z</time>
      </trkpt>
      <trkpt lat="44.20156" lon="3.17032">
        <ele>395</ele>
        <time>2019-05-22T23:10:37Z</time>
      </trkpt>
      <trkpt lat="44.2014" lon="3.16934">
        <ele>398</ele>
        <time>2019-05-22T23:10:49Z</time>
      </trkpt>
      <trkpt lat="44.20124" lon="3.16791">
        <ele>395</ele>
        <time>2019-05-22T23:11:08Z</time>
      </trkpt>
      <trkpt lat="44.20121" lon="3.16727">
        <ele>396</ele>
        <time>2019-05-22T23:11:16Z</time>
      </trkpt>
      <trkpt lat="44.20124" lon="3.16627">
        <ele>400</ele>
        <time>2019-05-22T23:11:29Z</time>
      </trkpt>
      <trkpt lat="44.20124" lon="3.16576">
        <ele>401</ele>
        <time>2019-05-22T23:11:35Z</time>
      </trkpt>
      <trkpt lat="44.20109" lon="3.1645">
        <ele>397</ele>
        <time>2019-05-22T23:11:52Z</time>
      </trkpt>
      <trkpt lat="44.20105" lon="3.16359">
        <ele>397</ele>
        <time>2019-05-22T23:12:03Z</time>
      </trkpt>
      <trkpt lat="44.20102" lon="3.16228">
        <ele>404</ele>
        <time>2019-05-22T23:12:20Z</time>
      </trkpt>
      <trkpt lat="44.20096" lon="3.16144">
        <ele>399</ele>
        <time>2019-05-22T23:12:31Z</time>
      </trkpt>
      <trkpt lat="44.20096" lon="3.16117">
        <ele>396</ele>
        <time>2019-05-22T23:12:34Z</time>
      </trkpt>
      <trkpt lat="44.201" lon="3.16086">
        <ele>393</ele>
        <time>2019-05-22T23:12:38Z</time>
      </trkpt>
      <trkpt lat="44.20111" lon="3.16042">
        <ele>391</ele>
        <time>2019-05-22T23:12:44Z</time>
      </trkpt>
      <trkpt lat="44.20127" lon="3.16014">
        <ele>389</ele>
        <time>2019-05-22T23:12:49Z</time>
      </trkpt>
      <trkpt lat="44.20145" lon="3.16001">
        <ele>389</ele>
        <time>2019-05-22T23:12:52Z</time>
      </trkpt>
      <trkpt lat="44.20349" lon="3.15912">
        <ele>390</ele>
        <time>2019-05-22T23:13:30Z</time>
      </trkpt>
      <trkpt lat="44.20355" lon="3.15904">
        <ele>390</ele>
        <time>2019-05-22T23:13:32Z</time>
      </trkpt>
      <trkpt lat="44.20361" lon="3.15894">
        <ele>390</ele>
        <time>2019-05-22T23:13:33Z</time>
      </trkpt>
      <trkpt lat="44.20363" lon="3.15885">
        <ele>390</ele>
        <time>2019-05-22T23:13:35Z</time>
      </trkpt>
      <trkpt lat="44.20363" lon="3.15874">
        <ele>389</ele>
        <time>2019-05-22T23:13:36Z</time>
      </trkpt>
      <trkpt lat="44.20344" lon="3.15769">
        <ele>388</ele>
        <time>2019-05-22T23:13:50Z</time>
      </trkpt>
      <trkpt lat="44.20336" lon="3.15744">
        <ele>389</ele>
        <time>2019-05-22T23:13:53Z</time>
      </trkpt>
      <trkpt lat="44.20328" lon="3.15732">
        <ele>390</ele>
        <time>2019-05-22T23:13:55Z</time>
      </trkpt>
      <trkpt lat="44.20316" lon="3.1572">
        <ele>391</ele>
        <time>2019-05-22T23:13:58Z</time>
      </trkpt>
      <trkpt lat="44.20302" lon="3.15711">
        <ele>391</ele>
        <time>2019-05-22T23:14:01Z</time>
      </trkpt>
      <trkpt lat="44.2029" lon="3.15707">
        <ele>392</ele>
        <time>2019-05-22T23:14:03Z</time>
      </trkpt>
      <trkpt lat="44.20271" lon="3.15705">
        <ele>392</ele>
        <time>2019-05-22T23:14:06Z</time>
      </trkpt>
      <trkpt lat="44.20173" lon="3.15703">
        <ele>393</ele>
        <time>2019-05-22T23:14:24Z</time>
      </trkpt>
      <trkpt lat="44.20154" lon="3.15698">
        <ele>392</ele>
        <time>2019-05-22T23:14:27Z</time>
      </trkpt>
      <trkpt lat="44.2014" lon="3.15689">
        <ele>392</ele>
        <time>2019-05-22T23:14:30Z</time>
      </trkpt>
      <trkpt lat="44.2013" lon="3.15681">
        <ele>392</ele>
        <time>2019-05-22T23:14:32Z</time>
      </trkpt>
      <trkpt lat="44.20119" lon="3.15667">
        <ele>392</ele>
        <time>2019-05-22T23:14:35Z</time>
      </trkpt>
      <trkpt lat="44.20109" lon="3.15648">
        <ele>393</ele>
        <time>2019-05-22T23:14:38Z</time>
      </trkpt>
      <trkpt lat="44.20098" lon="3.15619">
        <ele>394</ele>
        <time>2019-05-22T23:14:42Z</time>
      </trkpt>
      <trkpt lat="44.20075" lon="3.15542">
        <ele>398</ele>
        <time>2019-05-22T23:14:53Z</time>
      </trkpt>
      <trkpt lat="44.20066" lon="3.15516">
        <ele>399</ele>
        <time>2019-05-22T23:14:56Z</time>
      </trkpt>
      <trkpt lat="44.20052" lon="3.15486">
        <ele>400</ele>
        <time>2019-05-22T23:15:01Z</time>
      </trkpt>
      <trkpt lat="44.20029" lon="3.15448">
        <ele>400</ele>
        <time>2019-05-22T23:15:07Z</time>
      </trkpt>
      <trkpt lat="44.20003" lon="3.15415">
        <ele>400</ele>
        <time>2019-05-22T23:15:13Z</time>
      </trkpt>
      <trkpt lat="44.19965" lon="3.15385">
        <ele>399</ele>
        <time>2019-05-22T23:15:21Z</time>
      </trkpt>
      <trkpt lat="44.19933" lon="3.15372">
        <ele>397</ele>
        <time>2019-05-22T23:15:27Z</time>
      </trkpt>
      <trkpt lat="44.19903" lon="3.15366">
        <ele>395</ele>
        <time>2019-05-22T23:15:32Z</time>
      </trkpt>
      <trkpt lat="44.19877" lon="3.15364">
        <ele>395</ele>
        <time>2019-05-22T23:15:37Z</time>
      </trkpt>
      <trkpt lat="44.19847" lon="3.15367">
        <ele>393</ele>
        <time>2019-05-22T23:15:42Z</time>
      </trkpt>
      <trkpt lat="44.19771" lon="3.15378">
        <ele>395</ele>
        <time>2019-05-22T23:15:56Z</time>
      </trkpt>
      <trkpt lat="44.19722" lon="3.15379">
        <ele>397</ele>
        <time>2019-05-22T23:16:05Z</time>
      </trkpt>
      <trkpt lat="44.19627" lon="3.15366">
        <ele>401</ele>
        <time>2019-05-22T23:16:22Z</time>
      </trkpt>
      <trkpt lat="44.19588" lon="3.15371">
        <ele>400</ele>
        <time>2019-05-22T23:16:29Z</time>
      </trkpt>
      <trkpt lat="44.19528" lon="3.1539">
        <ele>405</ele>
        <time>2019-05-22T23:16:40Z</time>
      </trkpt>
      <trkpt lat="44.19507" lon="3.15401">
        <ele>405</ele>
        <time>2019-05-22T23:16:44Z</time>
      </trkpt>
      <trkpt lat="44.19484" lon="3.15416">
        <ele>407</ele>
        <time>2019-05-22T23:16:48Z</time>
      </trkpt>
      <trkpt lat="44.19467" lon="3.15431">
        <ele>409</ele>
        <time>2019-05-22T23:16:52Z</time>
      </trkpt>
      <trkpt lat="44.19326" lon="3.15588">
        <ele>403</ele>
        <time>2019-05-22T23:17:24Z</time>
      </trkpt>
      <trkpt lat="44.19314" lon="3.15598">
        <ele>403</ele>
        <time>2019-05-22T23:17:26Z</time>
      </trkpt>
      <trkpt lat="44.19289" lon="3.15607">
        <ele>405</ele>
        <time>2019-05-22T23:17:31Z</time>
      </trkpt>
      <trkpt lat="44.19239" lon="3.15628">
        <ele>406</ele>
        <time>2019-05-22T23:17:40Z</time>
      </trkpt>
      <trkpt lat="44.19203" lon="3.15638">
        <ele>404</ele>
        <time>2019-05-22T23:17:47Z</time>
      </trkpt>
      <trkpt lat="44.19148" lon="3.15648">
        <ele>400</ele>
        <time>2019-05-22T23:17:57Z</time>
      </trkpt>
      <trkpt lat="44.19108" lon="3.15652">
        <ele>397</ele>
        <time>2019-05-22T23:18:04Z</time>
      </trkpt>
      <trkpt lat="44.1908" lon="3.15648">
        <ele>397</ele>
        <time>2019-05-22T23:18:09Z</time>
      </trkpt>
      <trkpt lat="44.19057" lon="3.15639">
        <ele>397</ele>
        <time>2019-05-22T23:18:13Z</time>
      </trkpt>
      <trkpt lat="44.19008" lon="3.15604">
        <ele>395</ele>
        <time>2019-05-22T23:18:23Z</time>
      </trkpt>
      <trkpt lat="44.1899" lon="3.15588">
        <ele>394</ele>
        <time>2019-05-22T23:18:27Z</time>
      </trkpt>
      <trkpt lat="44.18971" lon="3.1556">
        <ele>393</ele>
        <time>2019-05-22T23:18:32Z</time>
      </trkpt>
      <trkpt lat="44.18958" lon="3.15534">
        <ele>393</ele>
        <time>2019-05-22T23:18:36Z</time>
      </trkpt>
      <trkpt lat="44.18944" lon="3.15485">
        <ele>392</ele>
        <time>2019-05-22T23:18:42Z</time>
      </trkpt>
      <trkpt lat="44.1894" lon="3.15449">
        <ele>392</ele>
        <time>2019-05-22T23:18:47Z</time>
      </trkpt>
      <trkpt lat="44.1894" lon="3.15423">
        <ele>392</ele>
        <time>2019-05-22T23:18:50Z</time>
      </trkpt>
      <trkpt lat="44.18947" lon="3.15379">
        <ele>393</ele>
        <time>2019-05-22T23:18:56Z</time>
      </trkpt>
      <trkpt lat="44.18968" lon="3.15296">
        <ele>394</ele>
        <time>2019-05-22T23:19:07Z</time>
      </trkpt>
      <trkpt lat="44.18993" lon="3.1521">
        <ele>391</ele>
        <time>2019-05-22T23:19:19Z</time>
      </trkpt>
      <trkpt lat="44.1904" lon="3.15087">
        <ele>390</ele>
        <time>2019-05-22T23:19:37Z</time>
      </trkpt>
      <trkpt lat="44.19058" lon="3.15028">
        <ele>389</ele>
        <time>2019-05-22T23:19:45Z</time>
      </trkpt>
      <trkpt lat="44.19114" lon="3.14825">
        <ele>388</ele>
        <time>2019-05-22T23:20:13Z</time>
      </trkpt>
      <trkpt lat="44.19129" lon="3.14763">
        <ele>389</ele>
        <time>2019-05-22T23:20:21Z</time>
      </trkpt>
      <trkpt lat="44.19132" lon="3.14729">
        <ele>389</ele>
        <time>2019-05-22T23:20:26Z</time>
      </trkpt>
      <trkpt lat="44.19132" lon="3.1466">
        <ele>387</ele>
        <time>2019-05-22T23:20:34Z</time>
      </trkpt>
      <trkpt lat="44.19128" lon="3.14623">
        <ele>388</ele>
        <time>2019-05-22T23:20:39Z</time>
      </trkpt>
      <trkpt lat="44.19076" lon="3.14332">
        <ele>384</ele>
        <time>2019-05-22T23:21:17Z</time>
      </trkpt>
      <trkpt lat="44.19064" lon="3.14259">
        <ele>383</ele>
        <time>2019-05-22T23:21:27Z</time>
      </trkpt>
      <trkpt lat="44.19061" lon="3.14163">
        <ele>381</ele>
        <time>2019-05-22T23:21:39Z</time>
      </trkpt>
      <trkpt lat="44.19057" lon="3.14122">
        <ele>380</ele>
        <time>2019-05-22T23:21:44Z</time>
      </trkpt>
      <trkpt lat="44.19035" lon="3.14018">
        <ele>378</ele>
        <time>2019-05-22T23:21:58Z</time>
      </trkpt>
      <trkpt lat="44.1902" lon="3.13959">
        <ele>377</ele>
        <time>2019-05-22T23:22:06Z</time>
      </trkpt>
      <trkpt lat="44.18945" lon="3.13636">
        <ele>380</ele>
        <time>2019-05-22T23:22:50Z</time>
      </trkpt>
      <trkpt lat="44.18892" lon="3.13423">
        <ele>381</ele>
        <time>2019-05-22T23:23:18Z</time>
      </trkpt>
      <trkpt lat="44.18883" lon="3.13379">
        <ele>381</ele>
        <time>2019-05-22T23:23:24Z</time>
      </trkpt>
      <trkpt lat="44.18823" lon="3.13125">
        <ele>381</ele>
        <time>2019-05-22T23:23:58Z</time>
      </trkpt>
      <trkpt lat="44.1884" lon="3.13053">
        <ele>383</ele>
        <time>2019-05-22T23:24:08Z</time>
      </trkpt>
    </trkseg>
  </trk>
</gpx>